[[{"header":{"parameterUnit":"m.s-1","parameterCategory":1,"la1":30.6,"la2":29.2853,"lo1":-89.7004,"lo2":-87.6739,"dy":0.0162,"dx":0.0183,"nx":112,"ny":82,"refTime":"2025-02-27T06:00:00:Z","depth":0,"parameterNumber":2,"parameterNumberName":"U-component_of_WINDS"},"data":[0.0,0.0,0.0,0.0,0.0,0.0,0.0,0.0,0.0,0.0,0.0,0.0,0.0,0.0,0.0,0.0,0.0,0.0,0.0,0.0,0.0,0.0,0.0,0.0,0.0,0.0,0.0,0.0,0.0,0.0,0.0,0.0,0.0,0.0,0.0,0.0,0.0,0.0,0.0,0.0,0.0,0.0,0.0,0.0,0.0,0.0,0.0,0.0,0.0,0.0,0.0,0.0,0.0,0.0,0.0,0.0,0.0,0.0,0.0,0.0,0.0,0.0,0.0,0.0,0.0,0.0,0.0,0.0,0.0,0.0,0.0,0.0,0.0,0.0,0.0,0.0,0.0,0.0,0.0,0.0,0.0,0.0,0.0,0.0,0.0,0.0,0.0,0.0,0.0,0.0,-2.5059,-2.6973,-2.9785,-3.1367,-3.1016,-3.0059,-2.8262,-2.5497,0.0,0.0,0.0,0.0,0.0,0.0,0.0,0.0,0.0,0.0,0.0,0.0,0.0,0.0,0.0,0.0,0.0,0.0,0.0,0.0,0.0,0.0,0.0,0.0,0.0,0.0,0.0,0.0,0.0,0.0,0.0,0.0,0.0,0.0,0.0,0.0,0.0,0.0,0.0,0.0,0.0,0.0,0.0,0.0,0.0,0.0,0.0,0.0,0.0,0.0,0.0,0.0,0.0,0.0,0.0,0.0,0.0,0.0,0.0,0.0,0.0,0.0,0.0,0.0,0.0,0.0,0.0,0.0,0.0,0.0,0.0,0.0,0.0,0.0,0.0,0.0,0.0,0.0,0.0,0.0,0.0,0.0,0.0,0.0,0.0,0.0,0.0,0.0,0.0,0.0,0.0,0.0,0.0,0.0,0.0,0.0,0.0,0.0,0.0,0.0,0.0,0.0,0.0,0.0,-2.5644,-3.0254,-3.1211,-3.1484,-3.1426,-2.9941,-2.8203,-2.6309,0.0,0.0,0.0,0.0,0.0,0.0,0.0,0.0,0.0,0.0,0.0,0.0,0.0,0.0,0.0,0.0,0.0,0.0,0.0,0.0,0.0,0.0,0.0,0.0,0.0,0.0,0.0,0.0,0.0,0.0,0.0,0.0,0.0,0.0,0.0,0.0,0.0,0.0,0.0,0.0,0.0,0.0,0.0,0.0,0.0,0.0,0.0,0.0,0.0,0.0,0.0,0.0,0.0,0.0,0.0,0.0,0.0,0.0,0.0,0.0,0.0,0.0,0.0,0.0,0.0,0.0,0.0,0.0,0.0,0.0,0.0,0.0,0.0,0.0,0.0,0.0,0.0,0.0,0.0,0.0,0.0,0.0,0.0,0.0,0.0,0.0,0.0,0.0,0.0,0.0,0.0,0.0,0.0,0.0,0.0,0.0,0.0,0.0,0.0,0.0,0.0,0.0,0.0,-2.5234,-2.7676,-3.1465,-3.1875,-3.1875,-3.1875,-3.0273,-2.8555,-2.6836,-2.3867,0.0,0.0,0.0,0.0,0.0,0.0,0.0,0.0,0.0,0.0,0.0,0.0,0.0,0.0,0.0,0.0,0.0,0.0,0.0,0.0,0.0,0.0,0.0,0.0,0.0,0.0,0.0,0.0,0.0,0.0,0.0,0.0,0.0,0.0,0.0,0.0,0.0,0.0,0.0,0.0,0.0,0.0,0.0,0.0,0.0,0.0,0.0,0.0,0.0,0.0,0.0,0.0,0.0,0.0,0.0,0.0,0.0,0.0,0.0,0.0,0.0,0.0,0.0,0.0,0.0,0.0,0.0,0.0,0.0,0.0,0.0,0.0,0.0,0.0,0.0,0.0,0.0,0.0,0.0,0.0,0.0,0.0,0.0,0.0,0.0,0.0,0.0,0.0,0.0,0.0,0.0,0.0,0.0,0.0,0.0,0.0,0.0,0.0,0.0,0.0,0.0,0.0,-2.8476,-2.9941,-3.2226,-3.2383,-3.2285,-3.2229,-3.0391,-2.8633,-2.7109,-2.3496,0.0,0.0,0.0,0.0,0.0,0.0,0.0,0.0,0.0,0.0,0.0,0.0,0.0,0.0,0.0,0.0,0.0,0.0,0.0,0.0,0.0,0.0,0.0,0.0,0.0,0.0,0.0,0.0,0.0,0.0,0.0,0.0,0.0,0.0,0.0,0.0,0.0,0.0,0.0,0.0,0.0,0.0,0.0,0.0,0.0,0.0,0.0,0.0,0.0,0.0,0.0,0.0,0.0,0.0,0.0,0.0,0.0,0.0,0.0,0.0,0.0,0.0,0.0,0.0,0.0,0.0,0.0,0.0,0.0,0.0,0.0,0.0,0.0,0.0,0.0,0.0,0.0,0.0,0.0,0.0,0.0,0.0,0.0,0.0,0.0,0.0,0.0,0.0,0.0,0.0,0.0,0.0,0.0,0.0,0.0,0.0,0.0,0.0,0.0,0.0,0.0,0.0,-2.9785,-3.1816,-3.3184,-3.2988,-3.2598,-3.2207,-2.9844,-2.7988,-2.707,-2.2637,0.0,0.0,0.0,0.0,0.0,0.0,0.0,0.0,0.0,0.0,0.0,0.0,0.0,0.0,0.0,0.0,0.0,0.0,0.0,0.0,0.0,0.0,0.0,0.0,0.0,0.0,0.0,0.0,0.0,0.0,0.0,0.0,0.0,0.0,0.0,0.0,0.0,0.0,0.0,0.0,0.0,0.0,0.0,0.0,0.0,0.0,0.0,0.0,0.0,0.0,0.0,0.0,0.0,0.0,0.0,0.0,0.0,0.0,0.0,0.0,0.0,0.0,0.0,0.0,0.0,0.0,0.0,0.0,0.0,0.0,0.0,0.0,0.0,0.0,0.0,0.0,0.0,0.0,0.0,0.0,0.0,0.0,0.0,0.0,0.0,0.0,0.0,0.0,0.0,0.0,0.0,0.0,0.0,0.0,0.0,0.0,0.0,0.0,0.0,0.0,0.0,0.0,-2.9043,-3.1113,0.0,-3.2559,-3.2051,-3.2209,-3.0273,-2.8379,-2.6719,0.0,0.0,0.0,0.0,0.0,0.0,0.0,0.0,0.0,0.0,0.0,0.0,0.0,0.0,0.0,0.0,0.0,0.0,0.0,0.0,0.0,0.0,0.0,0.0,0.0,0.0,0.0,0.0,0.0,0.0,0.0,0.0,0.0,0.0,0.0,0.0,0.0,0.0,0.0,0.0,0.0,0.0,0.0,0.0,0.0,0.0,0.0,0.0,0.0,0.0,0.0,0.0,0.0,0.0,0.0,0.0,0.0,0.0,0.0,0.0,0.0,0.0,0.0,0.0,0.0,0.0,0.0,0.0,0.0,0.0,0.0,0.0,0.0,0.0,0.0,0.0,0.0,0.0,0.0,0.0,0.0,0.0,0.0,0.0,0.0,0.0,0.0,0.0,0.0,0.0,0.0,0.0,0.0,0.0,0.0,0.0,0.0,0.0,0.0,0.0,0.0,0.0,-2.6875,-2.8965,-3.0976,0.0,-3.2324,-3.1836,-3.2148,-3.0332,-2.8379,-2.6504,0.0,0.0,0.0,0.0,0.0,0.0,0.0,0.0,0.0,0.0,0.0,0.0,0.0,0.0,0.0,0.0,0.0,0.0,0.0,0.0,0.0,0.0,0.0,0.0,0.0,0.0,0.0,0.0,0.0,0.0,0.0,0.0,0.0,0.0,0.0,0.0,0.0,0.0,0.0,0.0,0.0,0.0,0.0,0.0,0.0,0.0,0.0,0.0,0.0,0.0,0.0,0.0,0.0,0.0,0.0,0.0,0.0,0.0,0.0,0.0,0.0,0.0,0.0,0.0,0.0,0.0,0.0,0.0,0.0,0.0,0.0,0.0,0.0,0.0,0.0,0.0,0.0,0.0,0.0,0.0,0.0,0.0,0.0,0.0,0.0,0.0,0.0,0.0,0.0,0.0,0.0,0.0,0.0,0.0,0.0,0.0,0.0,0.0,0.0,0.0,0.0,0.0,-2.7434,-2.9922,-3.1836,-3.2695,-3.2402,-3.2209,-3.2209,-2.9785,-2.7754,0.0,0.0,0.0,0.0,0.0,0.0,0.0,0.0,0.0,0.0,0.0,0.0,0.0,0.0,0.0,0.0,0.0,0.0,0.0,0.0,0.0,0.0,0.0,0.0,0.0,0.0,0.0,0.0,0.0,0.0,0.0,0.0,0.0,0.0,0.0,0.0,0.0,0.0,0.0,0.0,0.0,0.0,0.0,0.0,0.0,0.0,0.0,0.0,0.0,0.0,0.0,0.0,0.0,0.0,0.0,0.0,0.0,0.0,0.0,0.0,0.0,0.0,0.0,0.0,0.0,0.0,0.0,0.0,0.0,0.0,0.0,0.0,0.0,0.0,0.0,0.0,0.0,0.0,0.0,0.0,0.0,0.0,0.0,0.0,0.0,0.0,0.0,0.0,0.0,0.0,0.0,0.0,0.0,0.0,0.0,0.0,0.0,0.0,0.0,0.0,0.0,0.0,0.0,-2.7486,-2.9816,-3.1624,-3.2326,-3.1699,-3.1269,-3.1269,-3.0,-2.8125,-2.5654,0.0,0.0,0.0,0.0,0.0,0.0,0.0,0.0,0.0,0.0,0.0,0.0,0.0,0.0,0.0,0.0,0.0,0.0,0.0,0.0,0.0,0.0,0.0,0.0,0.0,0.0,0.0,0.0,0.0,0.0,0.0,0.0,0.0,0.0,0.0,0.0,0.0,0.0,0.0,0.0,0.0,0.0,0.0,0.0,0.0,0.0,0.0,0.0,0.0,0.0,0.0,0.0,0.0,0.0,0.0,0.0,0.0,0.0,0.0,0.0,0.0,0.0,0.0,0.0,0.0,0.0,0.0,0.0,0.0,0.0,0.0,0.0,0.0,0.0,0.0,0.0,0.0,0.0,0.0,0.0,0.0,0.0,0.0,0.0,0.0,0.0,0.0,0.0,0.0,0.0,0.0,0.0,0.0,0.0,0.0,0.0,0.0,0.0,0.0,0.0,0.0,0.0,-2.7353,-2.9656,-3.1309,-3.1836,-3.1445,-3.1133,-3.1133,-3.0332,-2.8613,-2.583,0.0,0.0,0.0,0.0,0.0,0.0,0.0,0.0,0.0,0.0,0.0,0.0,0.0,0.0,0.0,0.0,0.0,0.0,0.0,0.0,0.0,0.0,0.0,0.0,0.0,0.0,0.0,0.0,0.0,0.0,0.0,0.0,0.0,0.0,0.0,0.0,0.0,0.0,0.0,0.0,0.0,0.0,0.0,0.0,0.0,0.0,0.0,0.0,0.0,0.0,0.0,0.0,0.0,0.0,0.0,0.0,0.0,0.0,0.0,0.0,0.0,0.0,0.0,0.0,0.0,0.0,0.0,0.0,0.0,0.0,0.0,0.0,0.0,0.0,0.0,0.0,0.0,0.0,0.0,0.0,0.0,0.0,0.0,0.0,0.0,0.0,0.0,0.0,0.0,0.0,0.0,0.0,0.0,0.0,0.0,0.0,0.0,0.0,0.0,0.0,0.0,0.0,-2.7352,-2.9609,-3.1152,-3.1465,-3.1465,-3.1445,-3.1406,-3.0664,-2.9121,-2.6602,0.0,0.0,0.0,0.0,0.0,0.0,0.0,0.0,0.0,0.0,0.0,0.0,0.0,0.0,0.0,0.0,0.0,0.0,0.0,0.0,0.0,0.0,0.0,0.0,0.0,0.0,0.0,0.0,0.0,0.0,0.0,0.0,0.0,0.0,0.0,0.0,0.0,0.0,0.0,0.0,0.0,0.0,0.0,0.0,0.0,0.0,0.0,0.0,0.0,0.0,0.0,0.0,0.0,0.0,0.0,0.0,0.0,0.0,0.0,0.0,-2.5293,-2.4512,0.0,0.0,0.0,0.0,0.0,0.0,0.0,0.0,0.0,0.0,0.0,0.0,0.0,0.0,0.0,0.0,0.0,0.0,0.0,0.0,0.0,0.0,0.0,0.0,0.0,0.0,0.0,0.0,0.0,0.0,0.0,0.0,0.0,0.0,0.0,0.0,0.0,0.0,0.0,0.0,-2.8466,-3.0663,-3.1828,-3.1405,-3.1347,-3.1092,-3.0508,-3.0312,-2.9258,-2.7031,-2.4766,0.0,0.0,0.0,0.0,0.0,0.0,0.0,0.0,0.0,0.0,0.0,0.0,0.0,0.0,0.0,0.0,0.0,0.0,0.0,0.0,0.0,0.0,0.0,0.0,0.0,0.0,0.0,0.0,0.0,0.0,0.0,0.0,0.0,0.0,0.0,0.0,0.0,0.0,0.0,0.0,0.0,0.0,0.0,0.0,0.0,0.0,0.0,0.0,0.0,0.0,0.0,0.0,0.0,0.0,0.0,0.0,0.0,0.0,0.0,-2.7031,-2.5996,0.0,0.0,0.0,0.0,0.0,0.0,0.0,0.0,0.0,0.0,0.0,0.0,0.0,0.0,0.0,0.0,0.0,0.0,0.0,0.0,0.0,0.0,0.0,0.0,0.0,0.0,0.0,0.0,0.0,0.0,0.0,0.0,0.0,0.0,0.0,0.0,0.0,0.0,0.0,0.0,-2.9621,-3.1632,-3.2721,-3.2207,-3.1852,-3.1484,-3.1092,-3.076,-2.9939,-2.8607,-2.6329,0.0,0.0,0.0,0.0,0.0,0.0,0.0,0.0,0.0,0.0,0.0,0.0,0.0,0.0,0.0,0.0,0.0,0.0,0.0,0.0,0.0,0.0,0.0,0.0,0.0,0.0,0.0,0.0,0.0,0.0,0.0,0.0,0.0,0.0,0.0,0.0,0.0,0.0,0.0,0.0,0.0,0.0,0.0,0.0,0.0,0.0,0.0,0.0,0.0,0.0,0.0,0.0,0.0,-2.9609,-3.0195,-3.0469,-3.0469,-3.1055,-3.1934,-2.9434,-2.8301,-2.8158,-2.6554,0.0,0.0,0.0,0.0,0.0,0.0,0.0,0.0,0.0,0.0,0.0,0.0,0.0,0.0,0.0,0.0,0.0,0.0,0.0,0.0,0.0,0.0,-3.1819,0.0,-3.2374,-3.2551,-2.7717,0.0,0.0,0.0,0.0,0.0,0.0,0.0,0.0,0.0,0.0,0.0,-3.1108,-3.2877,-3.3845,-3.3564,-3.2975,-3.2624,-3.2705,-3.1934,-3.1259,-3.0777,-2.841,-2.6173,0.0,0.0,0.0,0.0,0.0,0.0,0.0,0.0,0.0,0.0,0.0,0.0,0.0,0.0,0.0,0.0,0.0,0.0,0.0,0.0,0.0,0.0,0.0,0.0,0.0,0.0,0.0,0.0,0.0,0.0,0.0,0.0,-2.6069,-2.6777,0.0,0.0,0.0,0.0,0.0,0.0,0.0,0.0,0.0,0.0,0.0,0.0,0.0,-2.9375,-3.0195,-3.1777,-3.2598,-3.2676,-3.3945,-3.4355,-3.4023,-3.4023,-3.4121,-3.4258,-3.3867,0.0,-3.0391,-2.9394,0.0,0.0,0.0,0.0,0.0,0.0,0.0,0.0,0.0,0.0,0.0,0.0,0.0,0.0,0.0,0.0,0.0,0.0,0.0,0.0,0.0,0.0,-3.5405,-3.4804,-3.4985,-3.4404,0.0,-2.9223,-2.7525,-2.5819,-2.3869,0.0,0.0,0.0,0.0,0.0,0.0,0.0,-3.3642,-3.5086,-3.5727,-3.5398,-3.53,-3.528,-3.5533,-3.4454,-3.3627,-3.3268,-3.0968,-2.9124,-2.8073,-2.5666,0.0,0.0,0.0,0.0,0.0,0.0,0.0,0.0,0.0,0.0,0.0,0.0,0.0,0.0,0.0,0.0,0.0,0.0,0.0,0.0,0.0,0.0,0.0,0.0,0.0,0.0,0.0,0.0,0.0,-2.7558,-2.8188,-2.7875,-2.779,-2.6901,0.0,0.0,0.0,0.0,0.0,0.0,0.0,0.0,0.0,-3.1149,-3.1959,-3.2934,-3.407,-3.4829,-3.5448,-3.5941,-3.6769,-3.7183,-3.7242,-3.7242,-3.7361,-3.7507,-3.6788,-3.5879,-3.4629,-3.1997,-3.0362,-2.9332,0.0,0.0,0.0,0.0,-2.8184,-2.832,-2.9355,-2.9394,-2.8809,-2.78,0.0,0.0,0.0,0.0,0.0,0.0,0.0,-3.2559,0.0,0.0,-3.7037,-3.7244,-3.7957,-3.8137,-3.6388,-3.5103,-3.3061,0.0,-2.8054,-2.7411,-2.5801,0.0,0.0,0.0,0.0,-3.3433,-3.5474,-3.6573,-3.7049,-3.6757,-3.6108,-3.5989,-3.6669,-3.5846,-3.5373,-3.5666,-3.4094,-3.2705,-3.1741,-3.0063,-2.8333,0.0,0.0,0.0,0.0,0.0,0.0,0.0,0.0,0.0,0.0,0.0,0.0,0.0,0.0,0.0,0.0,0.0,0.0,0.0,0.0,0.0,0.0,0.0,0.0,0.0,0.0,0.0,0.0,-3.0367,-3.0234,-2.8853,-2.9201,-2.8456,0.0,0.0,0.0,0.0,0.0,0.0,-3.0517,-3.1814,-3.3115,-3.4481,-3.538,-3.6314,-3.7421,-3.7539,-3.8007,-3.8735,-3.9054,-3.9393,-3.9732,-3.9732,-3.9818,-4.0097,-3.9129,-3.8662,-3.824,-3.4547,-3.271,-3.2078,-3.0356,-2.9656,-2.9687,-3.0449,-3.0723,-3.0957,-3.2559,-3.2637,-3.1816,-3.0742,-2.9668,-2.853,-2.7159,0.0,0.0,0.0,0.0,-3.4643,-3.4875,-3.6942,-3.9019,-3.9337,-4.0524,-4.1217,-4.0033,-3.953,-3.7702,0.0,-3.1999,-3.2014,-3.0037,0.0,0.0,0.0,0.0,-3.5984,-3.7068,-3.7865,-3.8267,-3.8084,-3.7263,-3.7076,-3.7985,-3.7376,-3.7209,-3.7768,-3.6802,-3.573,-3.4735,-3.3999,-3.2571,-3.0376,0.0,0.0,0.0,0.0,0.0,0.0,0.0,0.0,0.0,0.0,0.0,0.0,0.0,0.0,0.0,0.0,0.0,0.0,0.0,0.0,0.0,0.0,0.0,0.0,0.0,0.0,0.0,0.0,0.0,-2.9877,-3.0898,0.0,0.0,0.0,0.0,-2.9943,-3.1506,-3.3114,-3.4871,-3.58,-3.6777,-3.7639,-3.8533,-3.9208,-3.9612,-4.0048,-4.0509,-4.0921,-4.0941,-4.0962,-4.0982,-4.0982,-4.1002,-4.1022,-4.0982,-4.0626,-3.9912,-3.7025,-3.5293,-3.4518,-3.4009,-3.3516,-3.3223,-3.3672,-3.3848,-3.3867,-3.3965,-3.3711,-3.3242,-3.2773,-3.1484,-3.0248,-3.101,-3.0128,0.0,0.0,-3.6417,-3.7155,-4.1373,-4.2618,-4.242,-4.1362,-4.2037,-4.2411,-4.0563,-4.0266,-3.934,0.0,-3.4722,-3.429,-3.4535,0.0,-3.3577,-3.5727,-3.5964,-3.6554,-3.8517,-3.9294,-3.9594,-3.9569,-3.9517,-3.9715,-4.029,-3.9637,-3.9299,-3.9458,-3.8514,-3.7485,-3.6486,-3.6217,-3.5564,-3.441,-3.1878,0.0,0.0,0.0,0.0,0.0,0.0,0.0,0.0,0.0,0.0,0.0,0.0,0.0,0.0,0.0,0.0,0.0,0.0,0.0,0.0,0.0,0.0,0.0,0.0,0.0,0.0,0.0,0.0,-3.2547,-3.3842,0.0,-3.1062,-3.2387,-3.3455,-3.3498,-3.5199,-3.6603,-3.7334,-3.8409,-3.9312,-3.989,-4.0715,-4.1392,-4.1766,-4.1704,-4.1872,-4.2307,-4.2307,-4.2307,-4.2307,-4.2307,-4.2307,-4.2287,-4.1756,-4.1358,-4.109,-3.9798,-3.8257,-3.6642,-3.6223,-3.5613,-3.5137,-3.5835,-3.5925,-3.5849,-3.6346,-3.602,-3.5231,-3.4246,-3.3795,-3.3677,-3.4036,-3.4202,-3.4736,-3.6805,-3.7188,-3.7649,-4.0336,-4.1057,-4.1424,-4.2832,-4.3481,-4.3479,-4.2222,-4.2521,-4.2454,-4.0257,-3.8411,-3.7032,-3.6456,-3.6604,-3.6801,-3.6889,-3.7443,-3.8241,-3.9295,-3.9572,-3.9697,-3.9697,-3.9697,-4.0074,-4.0924,-4.0451,-4.0285,-4.0686,-4.0049,-3.931,-3.8635,-3.8509,-3.7902,-3.6674,-3.5048,-3.1835,0.0,0.0,0.0,0.0,0.0,0.0,0.0,0.0,0.0,0.0,0.0,0.0,0.0,0.0,0.0,0.0,0.0,0.0,0.0,0.0,0.0,0.0,0.0,0.0,0.0,-3.608,-3.7522,-3.5333,-3.7551,-3.7825,-3.4182,-3.6201,-3.7496,-3.6811,-3.8419,-3.9613,-3.9922,-4.0801,-4.1407,-4.1657,-4.2261,-4.2624,-4.2933,-4.2631,-4.2794,-4.3157,-4.3157,-4.3157,-4.3157,-4.3157,-4.3157,-4.3136,-4.2601,-4.2226,-4.2064,-4.1704,-4.0557,-3.904,-3.8436,-3.8105,-3.8053,-3.8612,-3.8991,-3.9288,-3.964,-3.9013,-3.7883,-3.7009,-3.6792,-3.6894,-3.6724,-3.7237,-3.8055,-3.9023,-3.925,-3.9613,-4.1559,-4.2075,-4.2631,-4.4536,-4.4951,-4.4817,-4.4192,-4.4491,-4.4511,-4.3183,-4.1499,-3.9972,-3.9293,-3.9597,-3.9672,-3.8718,-3.922,-3.9848,-4.0199,-4.0099,-3.9973,-3.9973,-3.9973,-4.0275,-4.0949,-4.0902,-4.0899,-4.125,-4.0827,-4.0275,-3.9722,-3.9521,-3.8918,-3.7842,-3.6393,-3.3424,-2.8949,0.0,0.0,0.0,0.0,0.0,0.0,0.0,0.0,0.0,0.0,0.0,0.0,0.0,0.0,0.0,0.0,0.0,0.0,0.0,0.0,0.0,0.0,0.0,-3.7489,-4.0874,-4.1953,-3.823,-4.1978,-4.2703,-3.6852,-3.9747,-4.1417,-3.9868,-4.0966,-4.2021,-4.289,-4.2932,-4.2933,-4.3004,-4.3024,-4.3024,-4.3024,-4.3024,-4.3233,-4.3615,-4.3615,-4.3615,-4.3615,-4.3615,-4.3615,-4.3615,-4.3615,-4.3346,-4.2932,-4.2673,-4.2256,-4.1785,-4.08,-4.1039,-4.1884,-4.1954,-4.2823,-4.4026,-4.3601,-4.2416,-4.1177,-4.0973,-4.0443,-3.9746,-3.9261,-3.9045,-3.957,-4.1993,-4.2626,-4.3136,-4.5668,-4.624,-4.624,-4.6301,-4.6301,-4.6301,-4.6301,-4.5899,-4.5347,-4.4794,-4.379,-4.3037,-4.2986,-4.259,-4.2062,-4.1426,-4.1326,0.0,-4.1326,-4.0927,-4.0576,-4.0576,-4.0551,-4.0551,-4.0576,-4.0949,-4.125,-4.125,-4.0777,-4.0224,-3.9697,-3.917,-3.8617,-3.8065,-3.5906,-3.3696,-3.1512,0.0,0.0,0.0,0.0,0.0,0.0,0.0,0.0,0.0,0.0,0.0,0.0,0.0,0.0,0.0,0.0,0.0,0.0,0.0,0.0,0.0,-3.9431,-4.1209,-3.9616,-4.197,-4.3678,-4.3399,-4.5165,-4.5161,-4.208,-4.3376,-4.3724,-4.2145,-4.2629,-4.3159,-4.3408,-4.3428,-4.3394,-4.3462,-4.3462,-4.3462,-4.3462,-4.3462,-4.3462,-4.3615,-4.3615,-4.3615,-4.3615,-4.3615,-4.3615,-4.3615,-4.3615,-4.4193,-4.5072,-4.4998,-4.5383,-4.5678,-4.2575,-4.1804,-4.2422,-4.2728,-4.3547,-4.446,-4.403,-4.3533,-4.3173,-4.272,-4.2994,-4.3391,-4.2841,-4.2679,-4.2909,-4.4216,-4.3106,-4.2229,-4.5196,-4.5159,-4.4743,-4.5999,-4.6301,-4.6301,-4.6301,-4.62,-4.6024,-4.5874,-4.5271,-4.4418,-4.3187,-4.2861,-4.271,-4.2559,-4.2534,0.0,-4.2534,-4.2384,-4.2158,-4.1756,-4.1354,-4.1279,-4.1735,-4.0752,-4.0325,-4.0727,-3.9848,-3.9245,-3.9145,-3.8994,-3.8969,-3.922,-3.7061,-3.5429,0.0,0.0,0.0,0.0,0.0,0.0,0.0,0.0,0.0,0.0,0.0,0.0,0.0,0.0,0.0,0.0,0.0,0.0,0.0,0.0,0.0,0.0,-4.2854,-4.4803,-4.4818,-4.6069,-4.7103,-4.7328,-4.8564,-4.824,-4.5085,-4.6418,-4.6306,-4.3427,-4.4033,-4.4256,-4.3615,-4.3615,-4.3898,-4.4558,-4.4558,-4.4558,-4.4558,-4.5213,-4.4934,-4.3615,-4.4256,-4.4256,-4.3615,-4.3615,-4.3615,-4.3615,-4.3615,-4.4482,-4.5915,-4.5915,-4.6697,-4.7614,0.0,0.0,0.0,0.0,-4.6491,-4.6839,-4.6452,-4.613,-4.5861,-4.5515,-4.5698,-4.6014,-4.551,-4.5342,-4.542,-4.6068,-4.5049,-4.427,-4.6217,-4.5921,-4.5465,-4.6659,-4.6627,-4.6376,-4.6602,-4.6476,-4.6301,-4.6301,-4.605,0.0,-4.4543,-4.3991,-4.3664,-4.3664,-4.3664,-4.3664,-4.3664,-4.3463,-4.3212,-4.2886,-4.2559,-4.2409,-4.2539,-4.1458,0.0,0.0,0.0,-3.8818,-3.8517,-3.8517,0.0,0.0,0.0,0.0,0.0,0.0,0.0,0.0,-3.5102,-3.4926,0.0,0.0,0.0,0.0,0.0,0.0,0.0,0.0,0.0,0.0,0.0,0.0,0.0,0.0,0.0,0.0,-4.5183,-4.7896,-5.0938,-5.1423,-5.1152,-5.0295,-5.1778,-5.1187,-4.6876,-4.8961,-4.884,-4.4482,-4.5415,-4.5565,-4.4201,-4.4125,0.0,0.0,0.0,-4.6137,-4.6137,-4.7608,-4.6876,-4.4125,-4.549,-4.5415,-4.4125,-4.4125,-4.4125,-4.4125,-4.4125,-4.4988,-4.6433,-4.6433,-4.7389,-4.8722,-4.814,-4.838,-4.9266,-5.0091,-5.0222,-4.9949,-4.9661,0.0,0.0,-4.8501,-4.8224,-4.7932,-4.7389,-4.7217,-4.7255,-4.7457,-4.7558,-4.762,-4.7845,-4.7556,-4.733,-4.7807,-4.7179,-4.6627,-4.7104,-4.6803,-4.6401,-4.6401,-4.6351,-4.6301,-4.6301,-4.5472,-4.4819,-4.4819,-4.4819,-4.4819,-4.4819,-4.4392,-4.4066,-4.3991,0.0,0.0,-4.3212,-4.2665,-4.2007,-4.1455,-3.9948,-3.8818,-3.8316,-3.8417,-3.8944,-3.9948,-3.9546,-4.0352,-4.2313,-4.1831,-4.2108,-4.2961,-3.8542,-3.7538,0.0,0.0,0.0,0.0,0.0,0.0,0.0,0.0,0.0,0.0,0.0,0.0,0.0,0.0,0.0,-4.5754,-4.8546,-5.0722,-5.1825,-5.2327,-5.2516,-5.2316,-5.2648,-5.205,-4.9914,-5.0198,-4.97,-4.7535,-4.7681,-4.7681,-4.7389,-4.7389,-4.7535,-4.7827,-4.7827,-4.7827,-4.7827,-4.8118,-4.7972,-4.7389,-4.7681,0.0,-4.7389,-4.7389,-4.7389,-4.7389,-4.7389,-4.8263,-4.97,-4.97,-5.0576,-5.1861,-5.0092,-4.9479,-4.9704,-5.024,-5.0353,-5.0278,-4.9791,-4.9525,-4.9396,-4.9336,-4.9311,-4.9146,-4.8571,-4.8484,0.0,-4.7908,-4.7783,-4.7845,-4.7908,-4.7832,-4.7782,-4.7883,-4.7757,-4.7631,-4.7732,-4.733,-4.6979,-4.6979,-4.6627,-4.6301,-4.6301,-4.6125,-4.5974,-4.5974,-4.5974,-4.5974,-4.5974,-4.5899,-4.5648,-4.5221,-4.4744,-4.4418,-4.4317,-4.3388,-4.2585,-4.2032,-4.0877,-4.0149,-4.0049,-4.0877,-4.1509,-4.1735,-4.2062,-4.2384,-4.2866,-4.3162,-4.3438,-4.3614,-4.266,-4.2434,0.0,0.0,0.0,0.0,0.0,0.0,0.0,0.0,0.0,0.0,0.0,-3.7891,-4.0668,0.0,-4.5874,-4.8385,-5.0419,-5.1875,-5.2427,-5.2754,-5.2929,-5.2929,-5.2929,-5.2258,-5.0717,-5.1303,-5.0787,-4.848,-4.8984,-4.9128,-4.8335,-4.8335,-4.8624,-4.9415,-4.9415,-4.9415,-4.9415,-5.0222,-4.9866,-4.8335,-4.9056,-4.9056,-4.8335,-4.8335,-4.8335,-4.8335,-4.8335,-4.92,-5.0646,-5.1443,-5.2189,-5.2836,-5.1753,-5.1378,-5.1349,-5.128,-5.1096,-5.077,-5.0193,-4.9816,-4.959,-4.959,-4.959,-4.954,-4.9264,-4.9188,-4.9113,-4.8837,-4.8761,-4.8761,-4.8761,-4.8535,-4.841,-4.8686,-4.8335,-4.7983,-4.8284,-4.7908,-4.7531,-4.7531,-4.7305,-4.7104,-4.7104,-4.6903,-4.6627,-4.6351,-4.6301,-4.6301,-4.6301,-4.6301,-4.62,-4.5924,-4.5648,-4.5347,-4.507,-4.4041,-4.3162,-4.2665,-4.2057,-4.1756,-4.1756,-4.2283,-4.2766,-4.2961,-4.3237,-4.3815,-4.4644,-4.492,-4.5321,-4.5874,-4.615,-4.5849,0.0,0.0,0.0,0.0,0.0,0.0,0.0,0.0,-3.4745,-3.7593,-3.9642,-4.1731,-4.4141,-4.6351,-4.8435,-5.0419,-5.1599,-5.2427,-5.2854,-5.2929,-5.2929,-5.2929,-5.2929,-5.2421,-5.1163,-5.2189,-5.1911,-4.9343,-5.0363,-5.0505,-4.9271,-4.92,-4.9795,-5.1022,-5.1093,-5.1093,-5.1093,-5.2258,-5.1677,-4.92,-5.0434,-5.0434,-4.92,-4.92,-4.92,-4.92,-4.92,-4.9938,-5.1163,-5.2421,-5.2929,-5.2929,-5.2929,-5.2929,-5.2854,-5.2302,-5.1825,-5.1348,-5.067,-5.0117,-4.9741,-4.9615,-4.959,-4.959,-4.959,-4.959,-4.959,-4.959,-4.959,-4.959,-4.959,-4.9264,-4.9038,-4.949,-4.8887,-4.836,-4.8837,-4.8485,-4.8083,-4.8083,-4.7983,-4.7908,-4.7908,-4.7556,-4.7104,-4.6552,-4.6376,-4.6301,-4.6301,-4.6301,-4.6351,-4.6451,-4.6376,-4.6175,-4.5824,-4.4869,-4.4141,-4.3815,-4.3689,-4.3614,-4.3614,-4.3714,-4.3991,-4.4443,-4.4543,-4.5271,-4.6627,-4.6728,-4.728,-4.8234,-4.8837,-4.8309,-3.469,-3.3049,-3.2107,-3.2635,-3.2921,-3.3815,0.0,-3.8447,-3.9954,-4.1274,-4.3671,-4.5949,-4.723,-4.8887,-5.0469,-5.1724,-5.2427,-5.2854,-5.2929,-5.2929,-5.2929,-5.2929,-5.2929,-5.2861,-5.2629,-5.2792,-5.2792,-5.2421,-5.256,-5.256,-5.2421,-5.2421,-5.2491,-5.2629,-5.2629,-5.2629,-5.2629,-5.2792,-5.2698,-5.2421,-5.256,-5.256,-5.2421,-5.2421,-5.2421,-5.2421,-5.2421,-5.2491,-5.2629,-5.2861,-5.2929,-5.2929,-5.2929,-5.2929,-5.2854,-5.2302,-5.2076,-5.1875,-5.0795,-5.0368,-5.0243,-4.9741,-4.959,-4.959,-4.959,-4.959,-4.959,-4.959,-4.959,-4.959,-4.959,-4.954,-4.9515,-4.959,-4.949,-4.9414,-4.949,-4.9063,-4.8686,-4.8686,-4.8259,-4.7908,-4.7908,-4.7857,-4.7631,-4.7129,-4.6627,-4.6301,-4.6301,-4.6301,-4.6502,-4.6979,-4.6602,-4.6476,-4.6903,-4.6376,-4.6225,-4.6652,-4.62,-4.5924,-4.5924,-4.6401,-4.6702,-4.6753,-4.7205,-4.7531,-4.7732,-4.8259,-4.8812,-4.9414,-4.9967,-4.9866,-3.8367,-3.7044,-3.6131,-3.6751,-3.7765,-3.8929,-4.0135,-4.1694,-4.3269,-4.473,-4.6498,-4.8184,-4.9615,-5.072,-5.1674,0.0,-5.2779,-5.2929,-5.2929,-5.2929,-5.2804,-5.2477,-5.2729,-5.2929,-5.2929,-5.2929,-5.2929,-5.2929,-5.2929,-5.2929,-5.2929,-5.2929,-5.2929,-5.2929,-5.2929,-5.2929,-5.2929,-5.2929,-5.2929,-5.2929,-5.2929,-5.2929,-5.2929,-5.2929,-5.2929,-5.2929,-5.2929,-5.2929,-5.2929,-5.2929,-5.2929,-5.2929,-5.2929,-5.2929,-5.2904,-5.2678,-5.2377,-5.2,-5.1197,-5.0695,-5.0318,-4.9766,-4.959,-4.959,-4.959,-4.959,-4.959,-4.959,-4.959,-4.959,-4.959,-4.959,-4.959,-4.959,-4.959,-4.959,-4.959,-4.9414,-4.9264,-4.9264,-4.9063,-4.8887,-4.8887,-4.8611,-4.8335,-4.8109,-4.7606,-4.723,-4.723,-4.723,-4.733,-4.7556,-4.738,-4.733,-4.7556,-4.738,-4.733,-4.7581,-4.738,-4.723,-4.723,-4.7456,-4.7581,-4.7581,-4.8134,-4.856,-4.8887,-4.9464,-5.0017,-5.0569,-5.082,-5.0971,-4.0023,-3.9572,-3.9446,-3.9998,-4.1505,-4.2911,-4.3294,-4.4468,-4.5949,-4.7481,-4.8686,-4.9891,-5.1247,-5.195,-5.2452,-5.2854,-5.2929,-5.2929,-5.2929,-5.2804,-5.2553,-5.2151,-5.2327,-5.2528,-5.2678,-5.2829,-5.2929,-5.2929,-5.2929,-5.2929,-5.2929,-5.2929,-5.2929,-5.2929,-5.2929,-5.2929,-5.2929,-5.2929,-5.2929,-5.2929,-5.2929,-5.2929,-5.2929,-5.2929,-5.2929,-5.2929,-5.2929,-5.2929,-5.2929,-5.2929,-5.2929,-5.2929,-5.2929,-5.2929,-5.2929,-5.2929,-5.2678,-5.2226,-5.1523,-5.0996,-5.0544,-4.9816,-4.959,-4.959,-4.959,-4.959,-4.959,-4.959,-4.959,-4.959,-4.959,-4.959,-4.959,-4.959,-4.959,-4.959,-4.959,-4.959,-4.959,-4.959,-4.959,-4.959,-4.959,-4.9264,-4.9012,-4.9012,-4.8636,-4.8259,-4.7958,-4.8058,-4.8083,-4.7933,-4.8058,-4.8159,-4.8159,-4.8159,-4.8209,-4.836,-4.8385,-4.8385,-4.8385,-4.8385,-4.8385,-4.8385,-4.8937,-4.9414,-4.9816,-5.0393,-5.0946,-5.1498,-5.1498,-5.18,-3.8391,-3.9245,-4.0601,-4.11,-4.288,-4.4844,-4.5924,-4.7029,-4.8134,-4.9289,-5.0419,-5.1398,-5.1975,-5.2528,-5.2904,-5.2929,-5.2929,-5.2929,-5.2929,-5.2477,-5.2126,-5.2101,-5.1649,-5.1548,0.0,-5.2603,-5.2929,-5.2929,-5.2929,-5.2929,-5.2929,-5.2929,-5.2929,-5.2929,-5.2929,-5.2929,-5.2929,-5.2929,-5.2929,-5.2929,-5.2929,-5.2929,-5.2929,-5.2929,-5.2929,-5.2929,-5.2929,-5.2929,-5.2929,-5.2929,-5.2929,-5.2929,-5.2929,-5.2929,-5.2929,-5.2929,-5.2929,-5.2754,-5.1649,-5.1272,-5.1071,-4.9967,-4.959,-4.959,-4.959,-4.959,-4.959,-4.959,-4.959,-4.959,-4.959,-4.959,-4.959,-4.959,-4.959,-4.959,-4.959,-4.959,-4.959,-4.959,-4.959,-4.959,-4.959,-4.959,-4.9565,-4.9565,-4.9565,-4.9138,-4.8058,-4.841,-4.8535,-4.7958,-4.841,-4.8736,-4.8736,-4.8736,-4.8962,-4.9515,-4.954,-4.954,-4.954,-4.954,-4.954,-4.954,-5.0092,-5.0368,-5.0393,-5.0971,-5.1548,-5.2076,-5.2076,-5.2377,-4.0528,-4.143,-4.2559,-4.4217,-4.5723,-4.7004,-4.7757,-4.851,-4.9238,-4.9992,-5.0142,-5.0343,-5.087,-5.1147,-5.1398,-5.1774,-5.2151,-5.2503,-5.2879,-5.2779,-5.2377,-5.1649,-5.1724,0.0,0.0,0.0,0.0,-5.2904,-5.2929,-5.2929,-5.2929,-5.2929,-5.2929,-5.2929,-5.2929,-5.2929,-5.2929,-5.2929,-5.2929,-5.2929,-5.2929,-5.2929,-5.2929,-5.2929,-5.2929,-5.2929,-5.2929,-5.2929,-5.2929,-5.2929,-5.2929,-5.2929,-5.2929,-5.2929,-5.2929,-5.2929,-5.2929,-5.2779,-5.1674,-5.1272,-5.1096,-4.9967,-4.959,-4.959,-4.959,-4.959,-4.959,-4.959,-4.959,-4.959,-4.959,-4.959,-4.959,-4.959,-4.959,-4.959,-4.959,-4.959,-4.959,-4.959,-4.959,-4.959,-4.959,-4.959,-4.959,-4.959,-4.959,-4.9464,-4.9088,-4.9188,-4.9238,-4.9038,-4.9213,-4.9314,-4.9314,-4.9314,-4.9389,-4.959,-4.959,-4.959,-4.959,-4.9941,-5.0142,-5.0142,-5.0695,-5.1172,-5.1548,-5.1724,-5.2126,-5.2653,-5.2653,-5.2754,-4.2011,-4.3137,-4.4367,-4.6376,-4.7556,-4.836,-4.8937,-4.9339,-4.964,-4.9791,-4.9389,-4.9113,-4.9464,-4.9213,-4.9389,-5.0745,-5.1096,-5.1599,-5.2754,-5.2754,-5.2377,-5.1649,-5.1724,-5.1599,0.0,0.0,0.0,-5.2603,-5.2804,-5.2929,-5.2929,-5.2929,-5.2929,-5.2929,-5.2929,-5.2929,-5.2929,-5.2929,-5.2929,-5.2929,-5.2929,-5.2929,-5.2929,-5.2929,-5.2929,-5.2929,-5.2929,-5.2929,-5.2929,-5.2929,-5.2929,-5.2929,-5.2929,-5.2929,-5.2929,-5.2929,-5.2929,-5.2779,-5.1674,-5.1272,-5.1096,-4.9967,-4.959,-4.959,-4.959,-4.959,-4.959,-4.959,-4.959,-4.959,-4.959,-4.959,-4.959,-4.959,-4.959,-4.959,-4.959,-4.959,-4.959,-4.959,-4.959,-4.959,-4.959,-4.959,-4.959,-4.959,-4.959,-4.959,-4.959,-4.959,-4.959,-4.959,-4.959,-4.959,-4.959,-4.959,-4.959,-4.959,-4.9766,-4.9891,-4.9891,-5.0419,-5.072,-5.072,-5.1297,-5.1749,-5.2101,-5.2302,-5.2578,-5.2929,-5.2929,-5.2929,-4.2911,-4.4443,-4.6075,-4.7682,-4.846,-4.8987,-4.9515,-4.9565,-4.9364,-4.8812,-4.8184,-4.7732,0.0,0.0,-4.7179,-4.9816,-4.9941,-5.0444,-5.2628,-5.2477,-5.2126,0.0,0.0,0.0,0.0,0.0,0.0,-5.2101,-5.2628,-5.2929,-5.2929,-5.2929,-5.2929,-5.2929,-5.2929,-5.2929,-5.2929,-5.2929,-5.2929,-5.2929,-5.2929,-5.2929,-5.2929,-5.2929,-5.2929,-5.2929,-5.2929,-5.2929,-5.2929,-5.2929,-5.2929,-5.2929,-5.2929,-5.2929,-5.2929,-5.2929,-5.2929,-5.2779,-5.1699,-5.1322,-5.1147,-5.0017,-4.964,-4.964,-4.9615,-4.959,-4.959,-4.959,-4.959,-4.959,-4.959,-4.959,-4.9615,-4.9615,-4.964,-4.964,-4.9665,-4.969,-4.969,-4.969,-4.969,-4.969,-4.969,-4.969,-4.9665,-4.964,-4.964,-4.9615,-4.959,-4.959,-4.959,-4.959,-4.959,-4.959,-4.959,-4.9615,-4.964,-4.964,-5.0167,-5.0469,-5.0469,-5.1021,-5.1322,-5.1322,-5.1875,-5.2151,-5.2151,-5.2678,-5.2929,-5.2929,-5.2929,-5.2929,-4.5899,-4.7581,-4.8862,-5.0117,-5.0218,-5.0042,-5.0167,-4.9238,-4.8184,-4.7657,-4.6451,-4.5221,-4.4392,-4.5372,-4.6677,-4.7782,-4.959,0.0,-5.2729,-5.2804,0.0,-5.2151,0.0,-5.18,-5.1523,-5.1875,0.0,-5.2101,-5.2628,-5.2929,-5.2929,-5.2929,-5.2929,-5.2929,-5.2929,-5.2929,-5.2929,-5.2929,-5.2929,-5.2929,-5.2929,-5.2929,-5.2929,-5.2929,-5.2929,-5.2929,-5.2929,-5.2929,-5.2929,-5.2929,-5.2929,-5.2929,-5.2929,-5.2929,-5.2929,-5.2929,-5.2929,-5.2829,-5.2126,-5.19,-5.1699,-5.0569,-5.0218,-5.0117,-4.9715,-4.959,-4.959,-4.959,-4.959,-4.959,-4.959,-4.959,-4.969,-5.0117,-5.0218,-5.0318,-5.0745,-5.0845,-5.0845,-5.0845,-5.0845,-5.0845,-5.0845,-5.0845,-5.0695,-5.0268,-5.0218,-5.0067,-4.964,-4.959,-4.959,-4.959,-4.959,-4.959,-4.959,-4.9967,-5.0218,-5.0218,-5.0745,-5.1071,-5.1071,-5.1599,-5.19,-5.19,-5.2427,-5.2729,-5.2729,-5.2854,-5.2929,-5.2929,-5.2929,-5.2929,-4.7657,-4.9289,-5.0419,-5.082,-5.067,-5.0167,-4.9188,-4.8234,-4.7004,-4.4937,-4.3783,-4.2685,-4.1103,-4.261,-4.4644,-4.6175,0.0,0.0,-5.2678,-5.2929,-5.2804,0.0,-5.2477,0.0,-5.2026,-5.2277,-5.2477,-5.2477,-5.2754,-5.2929,-5.2929,-5.2929,-5.2929,-5.2929,-5.2929,-5.2929,-5.2929,-5.2929,-5.2929,-5.2929,-5.2929,-5.2929,-5.2929,-5.2929,-5.2929,-5.2929,-5.2929,-5.2929,-5.2929,-5.2929,-5.2929,-5.2929,-5.2929,-5.2929,-5.2929,-5.2929,-5.2929,-5.2879,-5.2578,-5.2477,-5.2277,-5.1172,-5.0795,-5.0745,-5.0419,-5.0343,-5.0343,-5.0343,-5.0343,-5.0343,-5.0343,-5.0343,-5.0419,-5.072,-5.0795,-5.0896,-5.1222,-5.1272,-5.1272,-5.1272,-5.1272,-5.1272,-5.1272,-5.1272,-5.1172,-5.0845,-5.0795,-5.0695,-5.0368,-5.0117,-5.0042,-5.0318,-5.0343,-5.0343,-5.0343,-5.0619,-5.0795,-5.0795,-5.1322,-5.1649,-5.1649,-5.2176,-5.2477,-5.2477,-5.2779,-5.2929,-5.2929,-5.2929,-5.2929,-5.2929,-5.2929,-5.2929,-4.8862,-5.0268,-5.1272,-5.077,-5.0469,-4.9766,-4.7707,-4.6828,-4.5472,-4.1902,-4.0949,-4.0147,-3.8266,-3.9722,-4.2158,-4.502,0.0,-4.9741,-5.2528,-5.2929,-5.2929,-5.2929,-5.2929,-5.2929,-5.2929,-5.2929,-5.2929,-5.2929,-5.2929,-5.2929,-5.2929,-5.2929,-5.2929,-5.2929,-5.2929,-5.2929,-5.2929,-5.2929,-5.2929,-5.2929,-5.2929,-5.2929,-5.2929,-5.2929,-5.2929,-5.2929,-5.2929,-5.2929,-5.2929,-5.2929,-5.2929,-5.2929,-5.2929,-5.2929,-5.2929,-5.2929,-5.2929,-5.2929,-5.2929,-5.2929,-5.2754,-5.1724,-5.1398,-5.1373,-5.1297,-5.1272,-5.1272,-5.1272,-5.1272,-5.1272,-5.1272,-5.1272,-5.1297,-5.1373,-5.1398,-5.1423,-5.1498,-5.1498,-5.1498,-5.1498,-5.1498,-5.1498,-5.1498,-5.1498,-5.1473,-5.1398,-5.1398,-5.1398,-5.1398,-5.0896,-5.072,-5.1222,-5.1272,-5.1272,-5.1272,-5.1348,-5.1398,-5.1398,-5.19,-5.2226,-5.2226,-5.2678,-5.2929,-5.2929,-5.2929,-5.2929,-5.2929,-5.2929,-5.2929,-5.2929,-5.2929,-5.2929,-5.0971,-5.1749,-5.195,-5.1825,-5.077,-4.9389,-4.8083,-4.5321,0.0,-4.0978,-3.9195,-3.7789,-3.7387,-3.9145,-4.1731,-4.497,-4.733,-4.9741,-5.2528,-5.2929,-5.2929,0.0,-5.2929,-5.2929,-5.2929,-5.2929,0.0,-5.2929,-5.2929,-5.2929,-5.2929,-5.2929,-5.2929,-5.2929,-5.2929,-5.2929,-5.2929,-5.2929,-5.2929,-5.2929,-5.2929,-5.2929,-5.2929,-5.2929,-5.2929,-5.2929,-5.2929,0.0,-5.2929,-5.2929,-5.2929,-5.2929,-5.2929,-5.2929,-5.2929,-5.2929,-5.2929,-5.2929,-5.2929,-5.2929,-5.2829,-5.2176,-5.1975,-5.1875,-5.1423,-5.1272,-5.1272,-5.1272,-5.1272,-5.1272,-5.1272,-5.1272,-5.1398,-5.185,-5.1975,-5.2076,-5.2553,-5.2628,-5.2628,-5.2628,-5.2628,-5.2628,-5.2628,-5.2628,-5.2477,-5.2026,-5.1975,-5.1975,-5.1975,-5.1473,-5.1172,-5.1272,-5.1272,-5.1272,-5.1272,-5.1699,-5.1975,-5.1975,-5.2477,-5.2779,-5.2779,-5.2879,-5.2929,-5.2929,-5.2929,-5.2929,-5.2929,-5.2929,-5.2929,-5.2929,-5.2929,-5.2929,-5.1649,-5.2302,-5.2402,-5.1825,-5.0419,-4.8485,-4.5924,0.0,0.0,-3.8015,-3.6885,-3.6157,-3.5579,-3.799,-4.0701,-4.2585,-4.5246,-4.8033,-5.0795,-5.1197,-5.1624,-5.2779,-5.2929,-5.2929,-5.2929,-5.2929,-5.2929,-5.2929,-5.2929,-5.2929,-5.2929,-5.2929,-5.2929,-5.2929,-5.2929,-5.2929,-5.2929,-5.2929,-5.2929,-5.2929,-5.2929,-5.2929,-5.2929,-5.2929,-5.2929,-5.2929,-5.2929,-5.2929,-5.2929,-5.2929,-5.2929,-5.2929,-5.2929,-5.2929,-5.2929,-5.2929,-5.2929,-5.2929,-5.2929,-5.2929,-5.2879,-5.2628,-5.2528,-5.2477,-5.2226,-5.2126,-5.2126,-5.2126,-5.2126,-5.2126,-5.2126,-5.2126,-5.2201,-5.2477,-5.2528,-5.2603,-5.2879,-5.2929,-5.2929,-5.2929,-5.2929,-5.2929,-5.2929,-5.2929,-5.2829,-5.2578,-5.2528,-5.2528,-5.2528,-5.2302,-5.2126,-5.2126,-5.2126,-5.2126,-5.2126,-5.2377,-5.2528,-5.2528,-5.2779,-5.2929,-5.2929,-5.2929,-5.2929,-5.2929,-5.2929,-5.2929,-5.2929,-5.2929,-5.2929,-5.2929,-5.2929,-5.2929,-5.1825,-5.2503,-5.2628,-5.1398,-4.9741,-4.7431,-4.3664,-4.1153,0.0,-3.5403,-3.4731,-3.463,-3.4173,-3.6584,-3.9094,-4.0475,-4.3087,-4.6024,-4.9163,-4.9816,-5.0695,-5.2703,-5.2929,0.0,-5.2929,-5.2929,0.0,-5.2929,-5.2929,-5.2929,-5.2929,-5.2929,-5.2929,-5.2929,-5.2929,-5.2929,-5.2929,-5.2929,-5.2929,-5.2929,-5.2929,-5.2929,-5.2929,-5.2929,-5.2929,-5.2929,-5.2929,-5.2929,-5.2929,-5.2929,-5.2929,-5.2929,-5.2929,-5.2929,-5.2929,-5.2929,-5.2929,-5.2929,-5.2929,-5.2929,-5.2929,-5.2929,-5.2929,-5.2929,-5.2929,-5.2929,-5.2929,-5.2929,-5.2929,-5.2929,-5.2929,-5.2929,-5.2929,-5.2929,-5.2929,-5.2929,-5.2929,-5.2929,-5.2929,-5.2929,-5.2929,-5.2929,-5.2929,-5.2929,-5.2929,-5.2929,-5.2929,-5.2929,-5.2929,-5.2929,-5.2929,-5.2929,-5.2929,-5.2929,-5.2929,-5.2929,-5.2929,-5.2929,-5.2929,-5.2929,-5.2929,-5.2929,-5.2929,-5.2929,-5.2929,-5.2929,-5.2929,-5.2929,-5.2929,-5.2929,-5.303,-5.308,-5.195,-5.2503,-5.2528,-5.0896,-4.8887,-4.6401,-4.3037,0.0,-3.6358,-3.5002,-3.3545,-3.2968,-3.4374,-3.4951,-3.6461,-4.0548,-4.2359,-4.4694,-4.8987,-5.0469,-5.1574,-5.2779,0.0,0.0,-5.2929,-5.2929,-5.2929,-5.2929,-5.2929,-5.2929,-5.2929,-5.2929,-5.2929,-5.2929,-5.2929,-5.2929,-5.2929,-5.2929,-5.2929,-5.2929,-5.2929,-5.2929,-5.2929,-5.2929,-5.2929,-5.2929,-5.2929,-5.2929,0.0,-5.2929,-5.2929,-5.2929,-5.2929,-5.2929,-5.2929,-5.2929,-5.2929,-5.2929,-5.2929,-5.2929,-5.2929,-5.2929,-5.2929,-5.2929,-5.2929,-5.2929,-5.2929,-5.2929,-5.2929,-5.2929,-5.2929,-5.2929,-5.2929,-5.2929,-5.2929,-5.2929,-5.2929,-5.2929,-5.2929,-5.2929,-5.2929,-5.2929,-5.2929,-5.2929,-5.2929,-5.2929,-5.2929,-5.2929,-5.2929,-5.2929,-5.2929,-5.2929,-5.2929,-5.2929,-5.2929,-5.2929,-5.2929,-5.2929,-5.2929,-5.2929,-5.2929,-5.2929,-5.2929,-5.2929,-5.2929,-5.2929,-5.2929,-5.2929,-5.2929,-5.2929,-5.3406,-5.3632,-5.1674,-5.2503,-5.2528,-5.0845,-4.851,-4.5673,-4.2032,-3.8693,-3.5902,-3.4098,-3.3194,-3.3043,-3.4048,-3.45,-3.5629,-3.8391,-3.9471,-4.1304,-4.507,-4.6577,-4.8184,-5.0619,-5.1523,-5.2201,0.0,0.0,-5.2929,-5.2929,-5.2929,-5.2929,-5.2929,-5.2929,-5.2929,-5.2929,-5.2929,-5.2929,-5.2929,-5.2929,-5.2929,-5.2929,-5.2929,-5.2929,-5.2929,-5.2929,-5.2929,-5.2929,-5.2929,-5.2929,0.0,-5.2929,-5.2929,-5.2929,-5.2929,-5.2929,-5.2929,-5.2929,-5.2929,-5.2929,-5.2929,-5.2929,-5.2929,-5.2929,-5.2929,-5.2929,-5.2929,-5.2929,-5.2929,-5.2929,-5.2929,-5.2929,-5.2929,-5.2929,-5.2929,-5.2929,-5.2929,-5.2929,-5.2929,-5.2929,-5.2929,-5.2929,-5.2929,-5.2929,-5.2929,-5.2929,-5.2929,-5.2929,-5.2929,-5.2929,-5.2929,-5.2929,-5.2929,-5.2929,-5.2929,-5.2929,-5.2929,-5.2929,-5.2929,-5.2929,-5.2929,-5.2929,-5.2929,-5.2929,-5.2929,-5.2929,-5.2929,-5.2929,-5.2929,-5.2929,-5.308,-5.3406,-5.3607,-5.3884,-5.0645,-5.1774,-5.2026,-5.0343,-4.7983,-4.5045,-4.1153,-3.8115,-3.5529,-3.3539,-3.2943,-3.2993,-3.3545,-3.4098,-3.5027,-3.6684,-3.7688,-3.9496,-4.2986,-4.4292,-4.5999,-4.8987,0.0,-5.0971,-5.2076,-5.2628,-5.2929,-5.2929,-5.2929,-5.2929,-5.2929,-5.2929,-5.2929,-5.2929,-5.2929,-5.2929,-5.2929,-5.2929,-5.2929,-5.2929,-5.2929,-5.2929,-5.2929,-5.2929,-5.2929,-5.2929,-5.2929,-5.2929,0.0,-5.2929,-5.2929,-5.2929,-5.2929,-5.2929,-5.2929,-5.2929,-5.2929,-5.2929,-5.2929,-5.2929,-5.2929,-5.2929,-5.2929,-5.2929,-5.2929,-5.2929,-5.2929,-5.2929,-5.2929,-5.2929,-5.2929,-5.2929,-5.2929,-5.2929,-5.2929,-5.2929,-5.2929,-5.2929,-5.2929,-5.2929,-5.2929,-5.2929,-5.2929,-5.2929,-5.2929,-5.2929,-5.2929,-5.2929,-5.2929,-5.2929,-5.2929,-5.2929,-5.2929,-5.2929,-5.2929,-5.2929,-5.2929,-5.2929,-5.2929,-5.2929,-5.2929,-5.2929,-5.2929,-5.2929,-5.2929,-5.2929,-5.2929,-5.308,-5.3331,-5.3708,-5.4059,-5.4511,-4.8636,-5.0017,-5.0896,-4.9213,-4.7129,-4.4468,-4.0576,-3.7563,-3.5031,-3.342,-3.2616,-3.239,-3.2993,-3.3545,-3.4449,-3.6157,-3.7789,-4.0199,-4.4066,-4.5121,-4.6301,0.0,-4.8786,-4.9238,-5.0343,-5.195,-5.2929,-5.2929,-5.2929,-5.2929,-5.2929,-5.2929,-5.2929,-5.2929,-5.2929,-5.2929,-5.2929,-5.2929,-5.2929,-5.2929,-5.2929,-5.2929,-5.2929,-5.2929,-5.2929,-5.2929,-5.2929,-5.2929,0.0,-5.2929,-5.2929,-5.2929,-5.2929,-5.2929,-5.2929,-5.2929,-5.2929,-5.2929,-5.2929,-5.2929,-5.2929,-5.2929,-5.2929,-5.2929,-5.2929,-5.2929,-5.2929,-5.2929,-5.2929,-5.2929,-5.2929,-5.2929,-5.2929,-5.2929,-5.2929,-5.2929,-5.2929,-5.2929,-5.2929,-5.2929,-5.2929,-5.2929,-5.2929,-5.2929,-5.2929,-5.2929,-5.2929,-5.2929,-5.2929,-5.2929,-5.2929,-5.2929,-5.2929,-5.2929,-5.2929,-5.2929,-5.2929,-5.2929,-5.2929,-5.2929,-5.2929,-5.2929,-5.2929,-5.2929,-5.2929,-5.2929,-5.2929,-5.3432,-5.3683,-5.3733,-5.4838,-5.5666,-4.5472,-4.6627,-4.6903,-4.5221,-4.3714,-4.1831,-3.8693,-3.6709,-3.5031,-3.342,-3.2943,-3.2867,-3.3043,-3.3262,-3.4374,-3.7563,-3.8191,-3.9496,-4.3011,-4.497,0.0,-4.7531,-4.9992,-5.1749,-5.2101,-5.2628,-5.2929,-5.2929,-5.2929,-5.2929,-5.2929,-5.2929,-5.2929,-5.2929,-5.2929,-5.2929,-5.2929,-5.2929,-5.2929,-5.2929,-5.2929,-5.2929,-5.2929,-5.2929,-5.2929,-5.2929,-5.2929,-5.2929,-5.2929,-5.2929,-5.2929,-5.2929,-5.2929,-5.2929,-5.2929,-5.2929,-5.2929,-5.2929,-5.2929,-5.2929,-5.2929,-5.2929,-5.2929,-5.2929,-5.2929,-5.2929,-5.2929,-5.2929,-5.2929,-5.2929,-5.2929,-5.2929,-5.2929,-5.2929,-5.2929,-5.2929,-5.2929,-5.2929,-5.2929,-5.2929,-5.2929,-5.2929,-5.2929,-5.2929,-5.2929,-5.2929,-5.2929,-5.2929,-5.2929,-5.2929,-5.2929,-5.2929,-5.2929,-5.2929,-5.2929,-5.2929,-5.2929,-5.2929,-5.2929,-5.2929,-5.2929,-5.2929,-5.2929,-5.2929,-5.3281,-5.3457,-5.3457,-5.4009,-5.4486,-5.4863,-5.5616,-5.6043,-4.2183,-4.379,-4.4242,-4.3042,-4.1681,-4.0099,-3.7713,-3.6182,-3.4781,-3.337,-3.3111,-3.3111,-3.3111,-3.3244,-3.4324,-3.7161,-3.7663,-3.8868,-4.2263,-4.4217,-4.5949,-4.7556,-5.0268,-5.2076,-5.2277,-5.2678,-5.2929,-5.2929,-5.2929,-5.2929,-5.2929,-5.2929,-5.2929,-5.2929,-5.2929,-5.2929,-5.2929,-5.2929,-5.2929,-5.2929,-5.2929,-5.2929,-5.2929,-5.2929,-5.2929,-5.2929,-5.2929,-5.2929,0.0,-5.2929,-5.2929,-5.2929,-5.2929,-5.2929,-5.2929,-5.2929,-5.2929,-5.2929,-5.2929,-5.2929,-5.2929,-5.2929,-5.2929,-5.2929,-5.2929,-5.2929,-5.2929,-5.2929,-5.2929,-5.2929,-5.2929,-5.2929,-5.2929,-5.2929,-5.2929,-5.2929,-5.2929,-5.2929,-5.2929,-5.2929,-5.2929,-5.2929,-5.2929,-5.2929,-5.2929,-5.2929,-5.2929,-5.2929,-5.2929,-5.2929,-5.2929,-5.2929,-5.2929,-5.3005,-5.3206,-5.303,-5.2929,-5.2929,-5.2929,-5.2929,-5.2929,-5.3105,-5.3231,-5.3231,-5.3758,-5.4034,-5.4034,-5.4587,-5.5164,-5.5717,-5.6043,-5.6219,0.0,-4.1128,-4.2258,-4.181,-4.0475,-3.8919,-3.7262,-3.5705,0.0,-3.3194,-3.3011,-3.3036,-3.3119,-3.3495,-3.4223,-3.5583,-3.6634,-3.8417,-4.1861,-4.3363,-4.5372,-4.8686,-4.9967,-5.082,-5.1348,-5.2327,-5.2929,-5.2929,-5.2929,-5.2929,-5.2929,-5.2929,-5.2929,-5.2929,-5.2929,-5.2929,-5.2929,-5.2929,-5.2929,-5.2929,-5.2929,-5.2929,-5.2929,-5.2929,-5.2929,0.0,-5.2929,-5.2929,-5.2929,-5.2929,-5.2929,-5.2929,-5.2929,-5.2929,-5.2929,-5.2929,-5.2929,-5.2929,-5.2929,-5.2929,-5.2929,-5.2929,-5.2929,-5.2929,-5.2929,-5.2929,-5.2929,-5.2929,-5.2929,-5.2929,-5.2929,-5.2929,-5.2929,-5.2929,-5.2929,-5.2929,-5.2929,-5.2929,-5.2929,-5.2929,-5.2929,-5.2929,-5.2929,-5.2929,-5.2929,-5.2929,-5.2929,-5.2929,-5.2929,-5.2929,-5.2929,-5.298,-5.298,-5.3206,-5.3708,-5.3281,-5.3005,-5.303,-5.3055,-5.3055,-5.3055,-5.3507,-5.3758,-5.3758,-5.4336,-5.4708,-5.4687,-5.5189,-5.5717,-5.6219,-5.6219,-5.6219,-3.3847,0.0,-3.6634,-3.6508,-3.6182,-3.5554,0.0,-3.3746,-3.3144,-3.2014,-3.1788,-3.219,-3.347,-3.3119,-3.3947,-3.8065,-3.8216,-3.912,-4.2886,-4.5824,-4.8686,-5.1599,-5.2176,-5.2402,-5.2528,-5.2779,-5.2929,-5.2929,-5.2929,-5.2929,-5.2929,-5.2929,-5.2929,-5.2929,-5.2929,-5.2929,-5.2929,-5.2929,-5.2929,-5.2929,-5.2929,-5.2929,-5.2929,-5.2929,-5.2929,-5.2929,-5.2929,-5.2929,-5.2929,-5.2929,-5.2929,-5.2929,-5.2929,-5.2929,-5.2929,-5.2929,-5.2929,-5.2929,-5.2929,-5.2929,-5.2929,-5.2929,-5.2929,-5.2929,-5.2929,-5.2929,-5.2929,-5.2929,-5.2929,-5.2929,-5.2929,-5.2929,-5.2929,-5.2929,-5.2929,-5.2929,-5.2929,-5.2929,-5.2929,-5.2929,-5.2929,-5.2929,-5.2929,-5.2929,-5.2929,-5.2929,-5.2929,-5.2929,-5.2929,-5.2929,-5.308,-5.3482,-5.3507,-5.3758,-5.431,-5.3833,-5.3708,-5.416,-5.4185,-5.4185,-5.4185,-5.4285,-5.4361,-5.4361,-5.4913,-5.539,-5.5817,-5.5968,-5.6093,-5.6219,-5.6219,-5.6219,-3.1411,-3.3201,-3.5056,-3.5056,-3.4856,-3.4575,-3.3972,-3.3043,-3.2139,-3.1512,-3.1386,-3.1838,-3.3269,-3.3219,-3.4123,-3.7588,-3.8291,-4.0023,-4.4669,-4.7757,-5.0368,-5.2653,-5.2929,-5.2929,-5.2929,-5.2929,-5.2929,-5.2929,-5.2929,-5.2929,-5.2929,-5.2929,-5.2929,-5.2929,-5.2929,-5.2929,-5.2929,-5.2929,-5.2929,-5.2929,-5.2929,-5.2929,-5.2929,-5.2929,-5.2929,-5.2929,-5.2929,-5.2929,-5.2929,-5.2929,-5.2929,-5.2929,-5.2929,-5.2929,-5.2929,-5.2929,-5.2929,-5.2929,-5.2929,-5.2929,-5.2929,-5.2929,-5.2929,-5.2929,-5.2929,-5.2929,-5.2929,-5.2929,-5.2929,-5.2929,-5.2929,-5.2929,-5.2929,-5.2929,-5.2929,-5.2929,-5.2929,-5.2929,-5.2929,-5.2929,-5.2929,-5.2929,-5.2929,-5.313,-5.3281,-5.3281,-5.3507,-5.3683,-5.3683,-5.3683,-5.3783,-5.4059,-5.411,-5.4336,-5.4888,-5.4662,-5.4511,-5.4561,-5.4561,-5.4561,-5.4561,-5.4813,-5.5064,-5.5315,-5.5616,-5.5917,-5.6219,-5.6219,-5.6219,-5.6219,-5.6219,-5.6219,-3.0658,-3.3101,-3.5408,-3.5082,-3.4831,-3.4605,-3.4399,-3.2867,-3.1486,-3.1411,-3.1386,-3.1813,-3.3194,-3.3847,-3.4801,-3.6832,-3.8793,-4.1731,-4.6702,-4.9213,-5.1147,-5.2729,-5.2929,-5.2929,-5.2998,-5.2929,-5.2929,-5.2998,-5.2929,-5.2929,-5.2929,-5.2929,-5.2929,-5.2929,-5.2929,-5.2929,-5.2929,-5.2929,-5.2929,-5.2929,-5.2929,-5.2929,-5.2929,-5.2929,-5.2929,-5.2929,-5.2929,0.0,-5.2929,-5.2929,-5.2929,-5.2929,-5.2929,-5.2929,-5.2929,-5.2929,-5.2929,-5.2929,-5.2929,-5.2929,-5.2929,-5.2929,-5.2929,-5.2929,-5.2929,-5.2929,-5.2929,-5.2929,-5.2929,-5.2929,-5.2929,-5.2929,-5.2929,-5.2929,-5.2929,-5.2929,-5.2929,-5.2929,-5.2929,-5.2929,-5.2929,-5.2955,-5.303,-5.3406,-5.3733,-5.3808,-5.426,-5.4561,-5.4561,-5.4561,-5.4587,-5.4687,-5.4687,-5.4913,-5.5465,-5.5516,-5.5315,-5.4838,-5.4813,-5.4813,-5.4813,-5.5265,-5.5742,-5.6194,-5.6219,-5.6219,-5.6219,-5.6219,-5.6219,-5.6219,-5.6219,-5.6244,-3.1562,-3.3677,-3.5031,-3.3151,-3.3677,-3.4349,-3.2918,-3.234,-3.1964,-3.1486,-3.1386,-3.2164,-3.4655,-3.5182,-3.6411,-3.9946,-4.3162,-4.5949,-4.8209,-5.0042,-5.1599,-5.2779,-5.2929,-5.2998,-5.3341,-5.3136,-5.3067,-5.341,-5.3067,-5.2929,-5.2929,-5.2929,-5.2929,-5.2929,-5.2929,-5.2929,-5.2929,-5.2929,-5.2929,-5.2929,-5.2929,-5.2929,-5.2929,-5.2929,-5.2929,-5.2929,0.0,-5.2929,-5.2929,-5.2929,-5.2929,-5.2929,-5.2929,-5.2929,-5.2929,-5.2929,-5.2929,-5.2929,-5.2929,-5.2929,-5.2929,-5.2929,-5.2929,-5.2929,-5.2929,-5.2929,-5.2929,-5.2929,-5.2929,-5.2929,-5.2929,-5.2929,-5.2929,-5.2929,-5.2929,-5.2929,-5.2929,-5.2929,-5.2929,-5.2929,-5.2929,-5.3055,-5.3507,-5.3658,-5.3858,-5.4361,-5.4511,-5.4561,-5.4561,-5.4561,-5.4737,-5.5214,-5.5265,-5.5491,-5.6043,-5.6093,-5.6043,-5.5968,-5.5968,-5.5968,-5.5968,-5.6043,-5.6118,-5.6219,-5.6219,-5.6219,-5.6219,-5.6219,-5.6219,-5.6219,-5.6219,-5.647,-3.0708,-3.2516,-3.3972,-3.2943,-3.46,-3.6207,-3.5152,-3.4198,-3.3495,-3.3244,-3.3194,-3.3847,-3.6031,-3.7161,-3.9145,-4.3338,-4.605,-4.8109,-4.9464,-5.0845,-5.2026,-5.2829,-5.2929,-5.3067,-5.3478,-5.3136,-5.3067,-5.3478,-5.3136,-5.2929,-5.2929,-5.2929,-5.2929,-5.2929,-5.2929,-5.2929,-5.2929,-5.2929,-5.2929,-5.2929,-5.2929,-5.2929,-5.2929,-5.2929,-5.2929,-5.2929,0.0,-5.2929,-5.2929,-5.2929,-5.2929,-5.2929,-5.2929,-5.2929,-5.2929,-5.2929,-5.2929,-5.2929,-5.2929,-5.2929,-5.2929,-5.2929,-5.2929,-5.2929,-5.2929,-5.2929,-5.2929,-5.2929,-5.2929,-5.2929,-5.2929,-5.2929,-5.2929,-5.2929,-5.2929,-5.2929,-5.2929,-5.2929,-5.3005,-5.3281,-5.3356,-5.3507,-5.4084,-5.4411,-5.4712,-5.4963,-5.5265,-5.544,-5.544,-5.544,-5.5541,-5.5817,-5.5842,-5.5942,-5.6194,-5.6219,-5.6219,-5.6219,-5.6219,-5.6219,-5.6219,-5.6219,-5.6219,-5.6219,-5.6219,-5.6219,-5.6219,-5.6219,-5.6219,-5.6219,-5.652,-5.6796,-3.0658,-3.1989,-3.3345,-3.3596,-3.5454,-3.7236,-3.7186,-3.6006,-3.4981,-3.5403,-3.5479,-3.5956,-3.7487,-3.9672,-4.2484,-4.6276,-4.8385,-4.9841,-5.0695,-5.1741,-5.2521,-5.2879,-5.3067,-5.3273,-5.3478,-5.3204,-5.3204,-5.3614,-5.3204,-5.2998,-5.3136,-5.2998,-5.2929,-5.3067,-5.2929,-5.2929,-5.2929,-5.2929,-5.2929,-5.2929,-5.2929,-5.2929,-5.2929,-5.2929,-5.2929,-5.2929,-5.2929,-5.2929,-5.2929,-5.2929,-5.2929,-5.2929,-5.2929,-5.2929,-5.2929,-5.2929,-5.2929,-5.2929,-5.2929,-5.2929,-5.2929,-5.2929,-5.2929,-5.2929,-5.2929,-5.2929,-5.2929,-5.2929,-5.2929,-5.2929,-5.2929,-5.2929,-5.2929,-5.2929,-5.2929,-5.2929,-5.2929,-5.303,-5.3231,-5.3632,-5.3808,-5.4084,-5.4662,-5.5114,-5.544,-5.5566,-5.5942,-5.6219,-5.6219,-5.6219,-5.6219,-5.6219,-5.6219,-5.6219,-5.6219,-5.6219,-5.6219,-5.6219,-5.6219,-5.6219,-5.6219,-5.6219,-5.6219,-5.6219,-5.6219,-5.6219,-5.6219,-5.6344,-5.6394,-5.642,-5.6972,-5.7298,-3.3169,-3.3721,-3.4098,-3.5056,-3.5107,-3.5353,-3.6835,-3.6307,-3.5884,-3.7462,-3.7764,-3.8115,-3.9295,-4.2986,-4.6451,-4.8309,-5.0444,-5.19,-5.1975,-5.2775,-5.3291,-5.2929,-5.3521,-5.3793,-5.3546,-5.3478,-5.3614,-5.3929,-5.3316,-5.3204,-5.3861,-5.3247,-5.3067,-5.3478,-5.3067,-5.2929,-5.2929,-5.2929,-5.2929,-5.2929,-5.2929,-5.2929,-5.2929,-5.2929,-5.2929,-5.2929,-5.2929,-5.2929,-5.2929,-5.2929,-5.2929,-5.2929,-5.2929,-5.2929,-5.2929,-5.2929,-5.2929,-5.2929,-5.2929,-5.2929,-5.2929,-5.2929,-5.2929,-5.2929,-5.2929,-5.2929,-5.2929,-5.2929,-5.2929,-5.2929,-5.2929,-5.2929,-5.2929,-5.2929,-5.2929,-5.2929,-5.2929,-5.3306,-5.3658,-5.3683,-5.4135,-5.4687,-5.5239,-5.5365,-5.5566,-5.6068,-5.6194,-5.6219,-5.6219,-5.6219,-5.6219,-5.6219,-5.6219,-5.6219,-5.6219,-5.6219,-5.6219,-5.6219,-5.6219,-5.6219,-5.6219,-5.6219,-5.6219,-5.6219,-5.6219,-5.6219,-5.6219,-5.6721,-5.6972,-5.6997,-5.7575,-5.8102,-3.2164,-3.2842,-3.3646,-3.4705,-3.5378,-3.6257,-3.8291,-3.922,-4.0023,-4.1329,-4.1605,-4.1957,-4.3087,-4.5221,-4.7481,-4.9464,-5.1096,-5.2226,-5.2578,-5.3146,-5.3341,-5.2929,-5.3521,-5.3861,-5.3546,-5.3682,-5.3793,-5.3682,-5.3589,-5.3589,-5.3682,-5.341,-5.341,-5.3793,-5.3478,-5.3273,-5.3273,-5.3273,-5.3136,-5.2929,-5.2929,-5.2929,-5.2929,-5.2929,-5.2929,-5.2929,-5.2929,-5.2929,-5.2929,-5.2929,-5.2929,-5.2929,-5.2929,-5.2929,-5.2929,-5.2929,-5.2929,-5.2929,-5.2929,-5.2929,-5.2929,-5.2929,-5.2929,-5.2929,-5.2929,-5.2929,-5.2929,-5.2929,-5.2929,-5.2929,-5.2929,-5.2929,-5.2929,-5.2929,-5.2929,-5.3005,-5.3331,-5.3557,-5.3909,-5.4612,-5.4938,-5.5239,-5.5817,-5.5892,-5.5968,-5.6168,-5.6219,-5.6219,-5.6219,-5.6219,-5.6219,-5.6219,-5.6219,-5.6219,-5.6219,-5.6219,-5.6219,-5.6219,-5.6219,-5.6219,-5.6219,-5.6219,-5.6219,-5.6219,-5.6219,-5.6369,-5.6721,-5.6922,-5.7223,-5.7575,-5.8152,-5.8529,-3.2014,-3.2533,-3.3345,-3.4449,-3.568,-3.7335,-3.9873,-4.1204,-4.2359,-4.3991,-4.4192,-4.4418,-4.5547,-4.6502,-4.7807,-4.9816,-5.1247,-5.2302,-5.2854,-5.3273,-5.341,-5.3136,-5.3725,-5.4064,-5.3682,-5.3997,-5.4064,-5.3793,-5.3929,-5.3997,-5.4022,-5.3819,-5.3793,-5.4174,-5.3793,-5.3614,-5.3478,-5.3614,-5.3478,-5.3067,-5.3204,-5.3136,-5.2929,-5.2929,-5.2929,-5.2929,-5.2929,-5.2929,-5.2929,-5.2929,-5.2929,-5.2929,-5.2929,-5.2929,-5.2929,-5.2929,-5.2929,-5.2929,-5.2929,-5.2929,-5.2929,-5.2929,-5.2929,-5.2929,-5.2929,-5.2929,-5.2929,-5.2929,-5.2929,-5.2929,-5.2929,-5.2929,-5.2929,-5.2929,-5.3055,-5.3281,-5.3632,-5.3984,-5.4461,-5.5239,-5.5541,-5.5767,-5.6143,-5.6219,-5.6219,-5.6219,-5.6219,-5.6219,-5.6219,-5.6219,-5.6219,-5.6219,-5.6219,-5.6294,-5.647,-5.6319,-5.6369,-5.6721,-5.657,-5.6394,-5.6219,-5.6219,-5.6294,-5.647,-5.647,-5.6746,-5.7298,-5.7474,-5.7775,-5.8177,-5.8704,-5.8956,-3.337,-3.3111,-3.3345,-3.4449,-3.5981,-3.809,-4.1483,-4.1756,-4.2103,-4.4945,-4.5045,-4.4995,-4.6125,-4.6778,-4.7682,-4.9339,-5.1021,-5.2302,-5.2854,-5.3273,-5.3478,-5.3478,-5.4106,-5.4376,-5.4064,-5.4309,-5.4511,-5.4511,-5.4174,-5.4335,-5.5032,-5.4402,-5.4174,-5.4511,-5.4174,-5.3861,-5.3478,-5.3861,-5.3861,-5.3478,-5.3861,-5.3589,-5.2929,-5.2929,-5.2929,-5.2929,-5.2929,-5.2929,-5.2929,-5.2929,-5.2929,-5.2929,-5.2929,-5.2929,-5.2929,-5.2929,-5.2929,-5.2929,-5.2929,-5.2929,-5.2929,-5.2929,-5.2929,-5.2929,-5.2929,-5.2929,-5.2929,-5.2929,-5.2929,-5.2929,-5.2929,-5.2929,-5.2929,-5.2929,-5.3331,-5.3708,-5.3708,-5.4587,-5.539,-5.539,-5.5842,-5.6219,-5.6219,-5.6219,-5.6219,-5.6219,-5.6219,-5.6219,-5.6219,-5.6219,-5.6219,-5.6219,-5.6219,-5.6445,-5.6972,-5.6545,-5.6721,-5.7826,-5.7374,-5.6796,-5.6244,-5.6219,-5.6495,-5.7022,-5.7047,-5.7323,-5.7901,-5.8453,-5.873,-5.873,-5.9257,-5.9483,-3.229,-3.2742,-3.3922,-3.4981,-3.7437,-4.03,-4.3237,-4.4091,-4.492,-4.7305,-4.733,-4.7029,-4.738,-4.7908,-4.8711,-4.9967,-5.1272,-5.237,-5.3197,-5.3614,-5.3861,-5.3861,-5.4469,-5.4671,-5.4064,-5.4537,-5.4738,-5.4174,-5.4537,-5.4738,-5.4645,-5.4443,-5.4511,-5.4872,-5.4511,-5.4309,-5.4174,-5.4309,-5.4174,-5.3861,-5.3929,-5.3725,-5.3341,-5.3341,-5.3136,-5.2929,-5.2929,-5.2929,-5.2929,-5.2929,-5.2929,-5.2929,-5.2929,-5.2929,-5.2929,-5.2929,-5.2929,-5.2929,-5.2929,-5.2929,-5.2929,-5.2929,-5.2929,-5.2929,-5.2929,-5.2929,-5.2929,-5.2929,-5.2929,-5.2929,-5.2929,-5.2929,-5.2929,-5.2929,-5.3331,-5.3808,-5.421,-5.4888,-5.5491,-5.5892,-5.6093,-5.6219,-5.6219,-5.6219,-5.6219,-5.6219,-5.6219,-5.6219,-5.6219,-5.6219,-5.6219,-5.6219,-5.657,-5.6846,-5.7022,-5.7248,-5.7549,-5.7876,-5.7725,-5.7575,-5.7399,-5.7399,-5.7474,-5.765,-5.765,-5.7926,-5.8478,-5.8629,-5.8905,-5.9282,-5.9433,-5.9483,-3.342,-3.4123,-3.5303,-3.7038,-3.9371,-4.2007,-4.5196,-4.6376,-4.723,-4.8786,-4.846,-4.7983,-4.8209,-4.836,-4.8862,-5.0193,-5.1305,-5.2497,-5.402,-5.4106,-5.4443,-5.5631,-5.522,-5.5006,-5.522,-5.5139,-5.5139,-5.522,-5.5139,-5.5206,-5.5551,-5.5046,-5.4872,-5.5099,-5.4872,-5.4645,-5.4511,-5.4645,-5.4604,-5.4174,-5.4335,-5.4267,-5.3861,-5.3614,-5.341,-5.3316,-5.3204,-5.3136,-5.3136,-5.2998,-5.2929,-5.2929,-5.3067,-5.3136,-5.3136,-5.3273,-5.3316,-5.3316,-5.3316,-5.3316,-5.3316,-5.3316,-5.3316,-5.3316,-5.3316,-5.3273,-5.3136,-5.3136,-5.2998,-5.2929,-5.2929,-5.2929,-5.298,-5.3181,-5.3658,-5.421,-5.4762,-5.5315,-5.5817,-5.6143,-5.6219,-5.6219,-5.6219,-5.6219,-5.6219,-5.6219,-5.6219,-5.6219,-5.6219,-5.6394,-5.6545,-5.6545,-5.7047,-5.7474,-5.7675,-5.7826,-5.8077,-5.8504,-5.8353,-5.8303,-5.8529,-5.8127,-5.8001,-5.8227,-5.8227,-5.8478,-5.9031,-5.9031,-5.9182,-5.9483,-5.9483,-5.9483,-3.5554,-3.6257,-3.7134,-3.9848,-4.158,-4.3564,-4.7179,-4.8435,-4.8987,-4.949,-4.8786,-4.8234,-4.8761,-4.846,-4.8699,-5.0363,-5.1266,-5.2613,-5.5195,-5.4664,-5.5181,-5.8111,-5.6363,-5.5525,-5.7157,-5.617,-5.5973,-5.7221,-5.6144,-5.5973,-5.7221,-5.617,-5.5472,-5.5472,-5.5365,-5.5139,-5.4753,-5.5072,-5.5006,-5.4578,-5.5072,-5.5006,-5.4511,-5.3861,-5.3725,-5.3997,-5.3682,-5.3546,-5.3546,-5.3136,-5.2998,-5.3067,-5.341,-5.3546,-5.3614,-5.3861,-5.3997,-5.3997,-5.3997,-5.3997,-5.3997,-5.3997,-5.3997,-5.3997,-5.3997,-5.3793,-5.3478,-5.3478,-5.3204,-5.2929,-5.2929,-5.2955,-5.3199,-5.3727,-5.4255,-5.4712,-5.5265,-5.5817,-5.6219,-5.6219,-5.6219,-5.6219,-5.6219,-5.6219,-5.6219,-5.6219,-5.6219,-5.6219,-5.6219,-5.6696,-5.7022,-5.7022,-5.76,-5.8177,-5.8679,-5.8303,-5.8453,-5.9433,-5.9056,-5.9006,-5.9483,-5.8554,-5.8278,-5.878,-5.878,-5.9031,-5.9483,-5.9483,-5.9483,-5.9483,-5.9483,-5.9483,-3.3671,-3.5353,-3.7563,-3.9923,-4.3313,-4.6502,-4.8209,-4.9012,-4.9464,-4.9565,-4.9414,-4.9264,-4.9389,-4.9665,-5.042,-5.1984,-5.1765,-5.2553,-5.5913,-5.5552,-5.5784,-5.7964,-5.8133,-5.825,-5.8627,-5.8376,-5.8376,-5.8627,-5.8376,-5.8376,-5.8627,-5.8376,-5.825,-5.825,-5.7221,-5.6639,-5.6574,-5.6639,-5.6078,-5.4939,-5.6144,-5.6078,-5.4965,-5.4511,-5.4174,-5.3997,-5.3929,-5.3861,-5.3861,-5.3793,-5.3793,-5.3793,-5.3861,-5.3861,-5.3929,-5.3997,-5.3997,-5.3997,-5.3997,-5.3997,-5.3997,-5.3997,-5.3997,-5.3997,-5.3997,-5.3793,-5.3478,-5.3478,-5.3204,-5.2998,-5.3273,-5.3645,-5.4239,-5.5102,-5.491,-5.4712,-5.5265,-5.5817,-5.6219,-5.6219,-5.6219,-5.6219,-5.6219,-5.6219,-5.6219,-5.6219,-5.6219,-5.6219,-5.6219,-5.6696,-5.7022,-5.7022,-5.7951,-5.8579,-5.8704,-5.8981,-5.9257,-5.9483,-5.9382,-5.9382,-5.9483,-5.9282,-5.9207,-5.9332,-5.9332,-5.9382,-5.9483,-5.9483,-5.9483,-5.9483,-5.9483,-5.9483,-3.4474,-3.6684,-3.917,-4.2459,-4.5422,-4.7732,-4.8586,-4.9188,-4.959,-4.959,-4.959,-4.959,-4.959,-4.9971,-5.0779,-5.2492,-5.2642,-5.3694,-5.7033,-5.6698,-5.6953,-5.9243,-5.8725,-5.8551,-5.9505,-5.8984,-5.9002,-5.999,-5.9436,-5.9375,-6.0018,-5.9436,-5.9127,-5.9127,-5.8439,-5.8088,-5.8088,-5.8088,-5.7706,-5.7028,-5.7706,-5.7706,-5.6963,-5.5512,-5.4604,-5.4241,-5.4241,-5.4241,-5.4241,-5.4064,-5.3929,-5.3793,-5.4106,-5.4106,-5.4064,-5.4402,-5.4537,-5.4537,-5.4537,-5.4537,-5.4537,-5.4537,-5.4537,-5.4537,-5.4537,-5.4267,-5.3997,-5.3997,-5.3725,-5.3452,-5.3657,-5.4159,-5.4789,-5.549,-5.5471,-5.54,-5.5955,-5.6163,-5.6219,-5.6219,-5.6219,-5.6219,-5.6219,-5.6219,-5.6219,-5.6219,-5.6219,-5.6319,-5.657,-5.7097,-5.7549,-5.7826,-5.8604,-5.9081,-5.9081,-5.9332,-5.9483,-5.9483,-5.9483,-5.9483,-5.9483,-5.9483,-5.9483,-5.9483,-5.9483,-5.9483,-5.9483,-5.9483,-5.9483,-5.9483,-5.9483,-5.9483,-3.5152,-3.7965,-4.0877,-4.5221,-4.7054,-4.7933,-4.8485,-4.8987,-4.9314,-4.9314,-4.9632,-4.9822,-4.9654,-5.0206,-5.1287,-5.281,-5.3573,-5.5111,-5.8146,-5.7819,-5.814,-6.0645,-5.9103,-5.8453,-6.0122,-5.9264,-5.9314,-6.0967,-6.0068,-5.9947,-6.1055,-6.0068,-5.9432,-5.9432,-5.9333,-5.9267,-5.9267,-5.938,-5.9313,-5.9127,-5.9127,-5.9127,-5.9002,-5.6769,-5.5512,-5.4953,-5.4953,-5.482,-5.4578,-5.4335,-5.3997,-5.3819,-5.4402,-5.4578,-5.4578,-5.4939,-5.5232,-5.5405,-5.5165,-5.5232,-5.5472,-5.5472,-5.5604,-5.5776,-5.5776,-5.5379,-5.4887,-5.4887,-5.4619,-5.4335,-5.4235,-5.4834,-5.5538,-5.5993,-5.6207,-5.6433,-5.67,-5.651,-5.6219,-5.6219,-5.6219,-5.6219,-5.6219,-5.6219,-5.6219,-5.6219,-5.6294,-5.652,-5.6972,-5.7625,-5.8227,-5.8679,-5.9182,-5.9483,-5.9483,-5.9483,-5.9483,-5.9483,-5.9483,-5.9483,-5.9483,-5.9483,-5.9483,-5.9483,-5.9483,-5.9483,-5.9483,-5.9483,-5.9483,-5.9483,-5.9483,-5.9483,-3.1738,-3.6207,-4.1354,-4.5321,-4.6778,-4.738,-4.7908,-4.8083,-4.8134,-4.8134,-4.9782,-5.0916,-4.9783,-5.1705,-5.3604,-5.4079,-5.4286,-5.5437,-5.8567,-5.8226,-5.829,-6.0041,-6.0436,-6.0654,-6.0942,-6.08,-6.0803,-6.1062,-6.0948,-6.0892,-6.1062,-6.0948,-6.0835,-6.0835,-6.0238,-5.9969,-5.9969,-6.0547,-6.0262,-5.9127,-5.9127,-5.9127,-5.9064,-5.8752,-5.7897,-5.6769,-5.6769,-5.6078,-5.5032,-5.4965,-5.4898,-5.4898,-5.4965,-5.571,-5.6574,-5.5472,-5.5842,-5.6639,-5.5472,-5.5842,-5.6834,-5.6834,-5.7642,-5.8564,-5.8564,-5.7487,-5.6221,-5.6221,-5.5998,-5.567,-5.531,-5.6536,-5.7769,-5.7538,-5.7551,-5.7492,-5.6921,-5.651,-5.6219,-5.6219,-5.6219,-5.6219,-5.6219,-5.6219,-5.6219,-5.6219,-5.662,-5.6947,-5.7022,-5.7951,-5.8629,-5.8704,-5.9182,-5.9483,-5.9483,-5.9483,-5.9483,-5.9483,-5.9483,-5.9483,-5.9483,-5.9483,-5.9483,-5.9483,-5.9483,-5.9483,-5.9483,-5.9483,-5.9483,-5.9483,-5.9483,-5.9483,-3.3571,-3.7061,-4.0526,-4.4392,-4.5799,-4.6426,-4.728,-4.7707,-4.7908,-4.7908,-4.9906,-5.1205,-4.9698,-5.1171,-5.3109,-5.4477,-5.5385,-5.6679,-5.8798,-5.8762,-5.8745,-5.9463,-5.9817,-6.0146,-6.0505,-6.0535,-6.0715,-6.1074,-6.1104,-6.1104,-6.1104,-6.1104,-6.1104,-6.1104,-6.1191,-6.1229,-6.1229,-6.1879,-6.1939,-6.1316,-6.1316,-6.1316,-6.1316,-6.1316,-6.0202,-5.8186,-5.8186,-5.7897,-5.7322,-5.7322,-5.7194,-5.7065,-5.7258,-5.7065,-5.6807,-5.7194,-5.7258,-5.7157,-5.7285,-5.7706,-5.8186,-5.8186,-5.8627,-5.9127,-5.9127,-5.8564,-5.7997,-5.7997,-5.7842,-5.7597,-5.697,-5.7692,-5.8617,-5.8829,-5.9003,-5.9079,-5.8727,-5.7687,-5.6874,-5.6874,-5.6729,-5.651,-5.651,-5.651,-5.6538,-5.662,-5.7019,-5.7496,-5.7901,-5.8428,-5.883,-5.9131,-5.9357,-5.9483,-5.9483,-5.9483,-5.9483,-5.9483,-5.9483,-5.9483,-5.9483,-5.9483,-5.9483,-5.9483,-5.9483,-5.9483,-5.9483,-5.9483,-5.9483,-5.9483,-5.9483,-5.9483,-3.4424,-3.6925,-3.8866,-4.2464,-4.4288,-4.5413,0.0,-4.7122,-4.7795,-4.7983,-4.9765,-5.1013,-5.0159,-5.1609,-5.3358,-5.4902,-5.6449,-5.7849,-5.8961,-5.9099,-5.9099,-5.9099,-5.9099,-5.9308,-5.9787,-5.9847,-6.0057,-6.0565,-6.0595,-6.0595,-6.0595,-6.0595,-6.0595,-6.0595,-6.1253,-6.1672,-6.1852,-6.266,-6.3079,-6.3079,-6.3079,-6.3079,-6.3079,-6.3079,-6.1998,-6.0141,-5.9773,-5.9375,-5.9127,-5.9127,-5.8912,-5.8724,-5.9002,-5.8502,-5.7806,-5.8752,-5.869,-5.8214,-5.8877,-5.9313,-5.9622,-5.9622,-5.9806,-6.0141,-6.0141,-5.9896,-5.9622,-5.9622,-5.9735,-5.968,-5.8861,-5.9401,-6.0138,-6.0478,-6.0701,-6.062,-6.007,-5.8586,-5.7379,-5.7235,-5.7091,-5.6946,-5.6801,-5.6903,-5.701,-5.712,-5.7571,-5.8075,-5.8604,-5.883,-5.9056,-5.9458,-5.9483,-5.9483,-5.9483,-5.9483,-5.9483,-5.9483,-5.9483,-5.9483,-5.9483,-5.9483,-5.9483,-5.9483,-5.9483,-5.9483,-5.9483,-5.9483,-5.9483,-5.9483,-5.9483,-5.9483,-3.1386,-3.393,0.0,-3.9222,-4.2202,-4.4535,0.0,0.0,-4.7576,-4.8274,-4.927,-5.0399,-5.1736,-5.419,-5.5975,-5.5785,-5.7034,-5.8274,-5.9009,-5.9099,-5.9099,-5.9099,-5.9099,-5.9129,-5.9159,-5.9159,-5.9159,-5.9219,-5.9219,-5.9219,-5.9219,-5.9219,-5.9219,-5.9219,-5.9847,-6.0505,-6.1164,-6.245,-6.3079,-6.3079,-6.3079,-6.3079,-6.3079,-6.3079,-6.3021,-6.2817,-6.1524,-6.0262,-5.9127,-5.9127,-5.9064,-5.9064,-5.9064,-5.9834,-6.0716,-5.956,-5.9896,-6.0716,-5.9498,-5.9957,-6.1017,-6.1017,-6.1821,-6.2875,-6.2875,-6.2028,-6.1017,-6.1017,-6.1423,-6.1697,-6.0949,-6.2146,-6.3469,-6.2774,-6.2613,-6.2081,-5.9974,-5.8373,-5.7307,-5.6946,-5.7091,-5.7235,-5.6874,-5.7232,-5.7514,-5.7565,-5.8177,-5.8654,-5.8704,-5.9156,-5.9458,-5.9483,-5.9483,-5.9483,-5.9483,-5.9483,-5.9483,-5.9483,-5.9483,-5.9483,-5.9483,-5.9483,-5.9483,-5.9483,-5.9483,-5.9483,-5.9483,-5.9483,-5.9483,-5.9483,-5.9483,-5.9483,-2.9997,0.0,0.0,-3.8214,-4.083,-4.2726,-4.3192,-4.5645,-4.7689,-4.751,-4.9359,-5.1402,-5.25,-5.3665,-5.4707,-5.5372,-5.6574,-5.7543,-5.7782,-5.8201,-5.8471,-5.8471,-5.886,-5.9099,-5.9099,-5.9099,-5.9099,-5.9099,-5.9099,-5.9099,-5.9099,-5.9099,-5.9099,-5.9099,-5.9727,-6.0625,-6.1732,-6.2211,-6.266,-6.3079,-6.3079,-6.3079,-6.3079,-6.3079,-6.3079,-6.3079,-6.2585,-6.2145,-6.1703,-6.1703,-6.1703,-6.1703,-6.1703,-6.1465,-6.1166,-6.1524,-6.1465,-6.1137,-6.1524,-6.1998,-6.238,-6.238,-6.2701,-6.3079,-6.3079,-6.2759,-6.238,-6.238,-6.2824,-6.3088,-6.2356,-6.3053,-6.397,-6.4131,-6.4146,-6.3952,-6.3141,-6.1138,-5.9402,-5.9262,-5.944,-5.9278,-5.8254,-5.8598,-5.8965,-5.9101,-5.951,-5.9818,-5.9642,-5.9767,-5.9817,-5.9508,-5.9483,-5.9483,-5.9483,-5.9483,-5.9483,-5.9483,-5.9483,-5.9483,-5.9483,-5.9483,-5.9483,-5.9483,-5.9483,-5.9483,-5.9483,-5.9483,-5.9483,-5.9483,-5.9483,-5.9483,-2.8636,0.0,0.0,0.0,-3.8764,-4.051,-4.2671,-4.5227,-4.7233,-4.7893,-5.0206,-5.2391,-5.3279,-5.3709,-5.4309,-5.5435,-5.6295,-5.6855,-5.7064,-5.7483,-5.7872,-5.8082,-5.8501,-5.886,-5.9069,-5.9099,-5.9099,-5.9099,-5.9099,-5.9099,-5.9099,-5.9099,-5.9099,-5.9099,-5.9727,-6.0625,-6.1762,-6.2002,-6.2421,-6.3079,-6.3079,-6.3079,-6.3079,-6.3079,-6.3079,-6.3079,-6.3079,-6.3079,-6.3079,-6.3079,-6.3079,-6.3079,-6.3079,-6.2585,-6.191,-6.2759,-6.2526,-6.191,-6.2759,-6.3079,-6.3079,-6.3079,-6.3079,-6.3079,-6.3079,-6.3079,-6.3109,-6.3318,-6.3857,-6.4249,-6.4028,-6.4429,-6.5077,-6.5517,-6.5198,-6.5007,-6.548,-6.3366,-6.122,-6.0822,-6.0897,-6.0713,-5.9305,-5.9558,-6.0002,-6.0065,-6.0371,-6.0478,-6.0304,-6.0278,-6.0201,-5.9971,-5.9869,-5.9894,-5.9714,-5.9714,-5.9637,-5.9483,-5.9483,-5.9483,-5.9483,-5.9483,-5.9483,-5.9483,-5.9483,-5.9483,-5.9483,-5.9483,-5.9483,-5.9483,-5.9483,-5.9483,0.0,0.0,0.0,0.0,0.0,0.0,-4.3003,0.0,-4.6019,-4.9342,-5.1546,-5.3143,-5.4046,-5.4509,-5.5083,-5.5966,-5.6137,-5.6346,-5.6944,-5.7064,-5.7304,-5.7992,-5.8112,-5.8381,-5.9009,-5.9099,-5.9099,-5.9099,-5.9099,-5.9099,-5.9099,-5.9099,-5.9099,-5.9099,-5.9727,-6.0386,-6.1104,-6.1762,-6.2421,-6.3079,-6.3079,-6.3079,-6.3079,-6.3079,-6.3079,-6.3079,-6.3079,-6.3079,-6.3079,-6.3079,-6.3079,-6.3079,-6.3079,-6.3079,-6.3079,-6.3079,-6.3079,-6.3079,-6.3079,-6.3079,-6.3079,-6.3079,-6.3079,-6.3079,-6.3079,-6.3079,-6.3228,-6.3827,-6.4515,-6.5203,-6.5862,-6.652,-6.6999,-6.6999,-6.5948,-6.5353,-6.6753,-6.4909,-6.2571,-6.1337,-6.136,-6.1323,-6.007,-6.0302,-6.0665,-6.0616,-6.068,-6.0813,-6.0737,-6.0737,-6.0737,-6.0737,-6.0737,-6.0508,-6.0125,-6.0125,-5.9971,-5.9508,-5.9483,-5.9483,-5.9483,-5.9483,-5.9483,-5.9483,-5.9483,-5.9508,-5.9508,-5.9508,-5.9508,-5.9508,-5.9533,-5.9533,-2.816,0.0,0.0,0.0,0.0,0.0,0.0,0.0,-4.2983,-4.5657,-4.7846,-4.9873,-5.1896,-5.3107,-5.3917,-5.4399,-5.5048,-5.5508,-5.5688,-5.6137,-5.6496,-5.6675,-5.7543,-5.8201,-5.8381,-5.883,-5.9099,0.0,-5.9099,-5.9099,-5.9099,-5.9099,-5.9099,-5.9099,-5.9279,-5.9937,-6.1104,-6.1283,-6.1972,-6.3079,-6.3079,-6.3079,-6.3079,-6.3079,-6.3079,-6.3079,-6.3079,-6.3079,-6.3079,-6.3079,-6.3079,-6.3079,-6.3079,-6.3079,-6.3079,-6.3079,-6.3079,-6.3079,-6.3079,-6.3079,-6.3079,-6.3079,-6.3079,-6.3079,-6.3079,-6.3378,-6.3767,-6.3947,-6.4844,-6.5892,-6.655,-6.6849,-6.6999,-6.6999,-6.6723,-6.6657,-6.7535,-6.7097,-6.6148,-6.4773,-6.5279,-6.5556,-6.4207,-6.4379,-6.4434,-6.3331,-6.3245,-6.2762,-6.142,-6.1193,-6.1041,-6.0737,-6.0737,-6.0508,-6.0125,-6.0125,-5.9971,-5.9508,-5.9483,-5.9483,-5.9483,-5.9483,-5.9483,-5.9483,-5.9483,-5.9684,-6.0085,-5.9684,-5.9709,-6.0111,-6.0512,-6.0713,0.0,0.0,0.0,0.0,0.0,0.0,-3.8489,-4.0038,-4.1678,0.0,-4.7247,-4.8909,-5.0602,-5.1935,-5.2842,-5.2961,-5.4013,-5.488,-5.5149,-5.5538,-5.5867,-5.6188,-5.6855,-5.7513,-5.8082,-5.8471,-5.88,-5.9069,-5.9099,-5.9099,-5.9099,-5.9099,-5.9099,-5.9099,-5.9099,-5.9608,-6.0685,-6.0954,-6.1642,-6.266,-6.2959,-6.3079,-6.3079,-6.3079,-6.3079,-6.3079,-6.3079,-6.3079,-6.3079,-6.3079,-6.3079,-6.3079,-6.3079,-6.3079,-6.3079,-6.3079,-6.3079,-6.3079,-6.3079,-6.3079,-6.3079,-6.3079,-6.3079,-6.3079,-6.3079,-6.3498,-6.4066,-6.4336,-6.5383,-6.652,-6.6879,-6.6999,-6.6999,-6.6999,-6.7208,-6.7508,-6.7897,-6.8405,-6.8385,-6.6948,-6.7231,-6.7315,-6.6141,-6.6202,-6.5892,-6.4419,-6.4201,-6.3573,-6.1872,-6.1646,-6.1571,-6.1268,-6.1268,-6.1041,-6.066,-6.066,-6.0431,-6.0048,-5.9792,-5.9841,-6.0093,-5.9912,-5.9834,-5.9834,-6.0085,-6.0362,-6.0688,-6.0111,-6.0136,-6.0688,-6.1266,-6.1391,-3.1026,-3.1673,0.0,0.0,-3.4129,0.0,-4.0525,-4.0815,-4.1018,0.0,-4.7403,-4.8214,-4.9092,-5.0371,-5.1268,-5.1131,-5.2711,-5.4251,-5.497,-5.5149,-5.5418,-5.6038,-5.6188,-5.6615,-5.7782,-5.7962,-5.8291,-5.8949,-5.9069,-5.9099,-5.9099,-5.9099,-5.9099,-5.9099,-5.9099,-5.9428,-6.0086,-6.0685,-6.1373,-6.2121,-6.269,-6.3019,-6.3079,-6.3079,-6.3079,-6.3079,-6.3079,-6.3079,-6.3079,-6.3079,-6.3079,-6.3079,-6.3079,-6.3079,-6.3079,-6.3079,-6.3079,-6.3079,-6.3079,-6.3079,-6.3079,-6.3079,-6.3079,-6.3079,-6.3169,-6.3617,-6.4276,-6.5024,-6.6071,-6.6999,-6.6999,-6.6999,-6.6999,-6.7089,-6.7537,-6.8016,-6.8166,-6.9123,-6.964,-6.8305,-6.804,-6.7814,-6.7037,-6.6914,-6.6356,-6.4895,-6.4707,-6.4129,-6.2667,-6.2321,-6.2246,-6.2246,-6.2123,-6.1823,-6.142,-6.142,-6.1218,-6.0839,-6.0431,-6.0532,-6.1063,-6.0672,-6.0412,-6.0412,-6.0989,-6.1266,-6.1266,-6.0763,-6.0763,-6.1291,-6.1843,-6.1843,-3.3636,-3.4306,-3.5402,-3.5532,0.0,0.0,-3.6112,-3.6577,-3.7622,0.0,-4.0216,-4.1011,-4.3251,-4.5874,-4.7451,-4.6904,-5.0054,-5.3025,-5.4221,-5.485,-5.5239,-5.5359,-5.5837,-5.6286,-5.6526,-5.7004,-5.7573,-5.8261,-5.88,-5.9099,-5.9099,-5.9099,-5.9099,-5.9099,-5.9099,-5.9428,-6.0086,-6.0206,-6.0894,-6.2091,-6.2241,-6.257,-6.3079,-6.3079,-6.3079,-6.3079,-6.3079,-6.3079,-6.3079,-6.3079,-6.3079,-6.3079,-6.3079,-6.3079,-6.3079,-6.3079,-6.3079,-6.3079,-6.3079,-6.3079,-6.3079,-6.3079,-6.3079,-6.3169,-6.3677,-6.4306,-6.5084,-6.6281,-6.6789,-6.6999,-6.6999,-6.6999,-6.7119,-6.7657,-6.7867,-6.8256,-6.9363,-6.9812,-7.0047,-7.0266,-7.029,-7.0189,-7.0045,-7.0009,-6.9516,-6.8043,-6.7839,-6.726,-6.5751,-6.4491,-6.3792,-6.3792,-6.2741,-6.1823,-6.142,-6.142,-6.1399,-6.1454,-6.1326,-6.1427,-6.1596,-6.1543,-6.1385,-6.1014,-6.1567,-6.1843,-6.1843,-6.1743,-6.1743,-6.1868,-6.2395,-6.2596,-3.6018,-3.6334,-3.7261,-3.7635,0.0,0.0,0.0,-3.6751,-3.6954,-3.9189,-3.9131,-3.9344,-4.1412,-4.2767,-4.3944,-4.5171,-4.7762,-5.012,-5.1558,-5.3144,-5.4192,-5.4192,-5.479,-5.5329,-5.5658,-5.6256,-5.7034,-5.8052,-5.8441,-5.877,-5.9099,-5.9099,-5.9099,-5.9099,-5.9099,-5.9249,-5.9608,-5.9907,-6.0595,-6.1613,-6.1942,-6.245,-6.3079,-6.3079,-6.3079,-6.3079,-6.3079,-6.3079,-6.3079,-6.3079,-6.3079,-6.3079,-6.3079,-6.3079,-6.3079,-6.3079,-6.3079,-6.3079,-6.3079,-6.3079,-6.3079,-6.3079,-6.3079,-6.3199,-6.3827,-6.4725,-6.5712,-6.67,-6.6999,-6.6999,-6.6999,-6.7238,-6.7567,-6.7897,-6.8495,-6.9153,-6.9842,-7.0231,-7.053,-7.0829,-7.0889,-7.0889,-7.0889,-7.0889,-7.0403,-6.8952,-6.8683,-6.7907,-6.5609,-6.4635,-6.3938,-6.3158,-6.247,-6.2002,-6.2062,-6.2088,-6.2246,-6.2664,-6.2484,-6.243,-6.2497,-6.2364,-6.2172,-6.1994,-6.1994,-6.2144,-6.2421,-6.2421,-6.2421,-6.2421,-6.2697,-6.2822,0.0,0.0,0.0,0.0,0.0,-3.7252,0.0,0.0,0.0,-3.9363,-3.8986,0.0,0.0,0.0,0.0,-4.3078,0.0,0.0,0.0,-5.0092,0.0,-5.2546,-5.3324,-5.4072,-5.473,-5.5179,-5.6047,-5.7633,-5.7513,-5.7812,-5.886,-5.9039,-5.9099,-5.9099,-5.9099,-5.9099,-5.9099,-5.9757,-6.0446,-6.1134,-6.1792,-6.245,-6.3079,-6.3079,-6.3079,-6.3079,-6.3079,-6.3079,-6.3079,-6.3079,-6.3079,-6.3079,-6.3079,-6.3079,-6.3079,-6.3079,-6.3079,-6.3079,-6.3079,-6.3079,-6.3109,-6.3228,-6.3438,-6.3737,-6.4246,-6.5233,-6.6311,-6.6849,-6.6999,-6.7029,-6.7148,-6.7567,-6.8046,-6.8286,-6.9183,-7.0021,-7.0141,-7.056,-7.0889,-7.0889,-7.0889,-7.0889,-7.0889,-7.0889,-7.0498,-6.9286,-6.9086,-6.8248,-6.5821,-6.5253,-6.469,-6.3614,-6.2975,-6.2791,-6.337,-6.3145,-6.3381,-6.4239,-6.37,-6.3571,-6.3878,-6.3083,-6.2669,-6.2822,-6.2395,-6.2395,-6.2822,-6.2822,-6.2822,-6.2822,-6.2822,-6.2822,0.0,0.0,0.0,0.0,-4.0728,0.0,0.0,0.0,-3.6809,-3.5444,0.0,0.0,0.0,0.0,0.0,0.0,0.0,0.0,-4.3061,-4.4833,-4.7279,-5.0166,-5.1678,-5.2695,-5.3354,-5.2965,-5.3683,-5.6196,-5.5299,-5.5718,-5.8112,-5.88,-5.9099,-5.9099,-5.9099,-5.9099,-5.9099,-5.9757,-6.0446,-6.1134,-6.1792,-6.245,-6.3079,-6.3079,-6.3079,-6.3079,-6.3079,-6.3079,-6.3079,-6.3079,-6.3079,-6.3079,-6.3079,-6.3079,-6.3079,-6.3079,-6.3079,-6.3079,-6.3079,-6.3079,-6.3169,-6.3707,-6.4695,-6.5682,-6.5772,-6.6281,-6.6879,-6.6969,-6.6999,-6.7119,-6.7717,-6.7897,-6.8256,-6.9482,-6.9871,-7.0141,-7.0679,-7.0859,-7.0889,-7.0889,-7.0889,-7.0889,-7.0889,-7.0889,-7.0824,-7.0694,-7.0629,-7.0563,-7.0206,-6.9019,-6.8342,-6.878,-6.6341,-6.5038,-6.566,-6.4383,-6.4392,-6.6423,-6.5154,-6.49,-6.6077,-6.3966,-6.2772,-6.2822,-6.2772,-6.2772,-6.2822,-6.2822,-6.2822,-6.2822,-6.2822,-6.2822,0.0,0.0,0.0,0.0,0.0,0.0,-3.6983,0.0,-3.5503,0.0,0.0,0.0,0.0,0.0,0.0,0.0,-3.921,0.0,0.0,0.0,-4.4257,0.0,0.0,0.0,-5.1259,-5.1229,-5.2157,-5.485,-5.3803,-5.4371,-5.7363,-5.8171,-5.871,-5.9099,-5.9099,-5.9099,-5.9099,-5.9757,-6.0446,-6.1134,-6.1792,-6.245,-6.3079,-6.3079,-6.3079,-6.3079,-6.3079,-6.3079,-6.3079,-6.3079,-6.3079,-6.3079,-6.3079,-6.3079,-6.3079,-6.3079,-6.3079,-6.3079,-6.3079,-6.3318,-6.3707,-6.4395,-6.5233,-6.6011,-6.6011,-6.646,-6.6999,-6.6999,-6.7268,-6.7627,-6.7897,-6.8555,-6.9273,-6.9842,-7.026,-7.059,-7.0859,-7.0889,-7.0889,-7.0889,-7.0889,-7.0889,-7.0889,-7.0889,-7.0889,-7.0889,-7.0889,-7.0712,-7.0245,-6.967,-6.9193,-6.8993,-6.7744,-6.6863,-6.6604,-6.5931,-6.5715,-6.602,-6.5162,-6.4819,-6.5081,-6.4094,-6.3311,-6.2822,-6.3067,-6.3067,-6.2822,-6.2822,-6.2822,-6.2822,-6.2822,-6.2822,-4.4327,0.0,0.0,0.0,0.0,0.0,0.0,0.0,0.0,0.0,0.0,0.0,0.0,0.0,0.0,0.0,0.0,-3.8572,0.0,-3.9599,0.0,0.0,0.0,0.0,0.0,-4.9,-4.9897,-5.3144,-5.1828,-5.2546,-5.6376,-5.7393,-5.8141,-5.88,-5.9009,-5.9099,-5.9099,-5.9937,-6.0625,-6.1134,-6.1972,-6.26,-6.3079,-6.3079,-6.3079,-6.3079,-6.3079,-6.3079,-6.3079,-6.3079,-6.3079,-6.3079,-6.3079,-6.3079,-6.3079,-6.3079,-6.3079,-6.3109,-6.3258,-6.3857,-6.4635,-6.5144,-6.5742,-6.6281,-6.6281,-6.661,-6.6999,-6.6999,-6.7478,-6.8016,-6.8196,-6.9123,-7.0021,-7.0201,-7.059,-7.0889,-7.0889,-7.0889,-7.0889,-7.0889,-7.0889,-7.0889,-7.0889,-7.0889,-7.0889,-7.0889,-7.1068,-7.0944,-7.0359,-7.0458,-7.037,-6.9974,-6.9536,-6.8859,-6.7851,-6.7407,-6.6634,-6.5503,-6.545,-6.5053,-6.428,-6.4119,-6.3797,-6.3148,-6.3392,-6.3311,-6.2985,-6.2822,-6.2822,-6.2822,-6.2822,-6.2822,0.0,0.0,0.0,-4.157,0.0,0.0,0.0,0.0,-3.7912,0.0,0.0,0.0,0.0,0.0,0.0,0.0,0.0,0.0,0.0,0.0,0.0,0.0,0.0,0.0,0.0,-4.6022,-4.6381,0.0,-4.8925,-4.9733,-5.497,-5.6436,-5.7453,-5.8141,-5.877,-5.9099,-5.9099,-6.0416,-6.1104,-6.1134,-6.2421,-6.3049,-6.3079,-6.3079,-6.3079,-6.3079,-6.3079,-6.3079,-6.3079,-6.3079,-6.3079,-6.3079,-6.3079,-6.3079,-6.3079,-6.3079,-6.3079,-6.3169,-6.3767,-6.4844,-6.5951,-6.5981,-6.643,-6.6969,-6.6969,-6.6969,-6.6999,-6.6999,-6.7478,-6.8136,-6.8794,-6.9482,-7.0141,-7.0739,-7.0889,-7.0889,-7.0889,-7.0889,-7.0889,-7.0889,-7.0889,-7.0889,-7.0889,-7.0889,-7.0889,-7.0889,-7.1457,-7.1846,-7.1811,-7.2408,-7.3066,-7.3656,-7.2324,-7.1051,-7.0097,-6.8641,-6.7091,-6.5529,-6.6443,-6.6366,-6.484,-6.436,-6.4039,-6.4039,-6.3716,-6.3473,-6.3473,-6.2985,-6.2822,-6.2822,-6.2822,-6.2822,0.0,0.0,-5.0104,-4.5169,0.0,0.0,0.0,0.0,0.0,0.0,0.0,0.0,0.0,0.0,0.0,0.0,0.0,0.0,0.0,0.0,0.0,0.0,0.0,0.0,0.0,0.0,0.0,-4.8416,-4.7818,0.0,-5.4281,-5.5777,-5.6974,-5.8082,-5.877,-5.9308,-5.9757,-6.0655,-6.1343,-6.1762,-6.266,-6.3079,-6.3079,-6.3079,-6.3079,-6.3079,-6.3079,-6.3079,-6.3079,-6.3079,-6.3079,-6.3079,-6.3079,-6.3079,-6.3079,-6.3079,-6.3318,-6.3827,-6.4934,-6.5622,-6.6071,-6.652,-6.6819,-6.6999,-6.6999,-6.6999,-6.7089,-6.7508,-6.8136,-6.8794,-6.9482,-7.0111,-7.0649,-7.0859,-7.0889,-7.0889,-7.0889,-7.0889,-7.0889,-7.0889,-7.0889,-7.1038,-7.1487,-7.1547,-7.1547,-7.1547,-7.1727,-7.2206,-7.3103,-7.3402,-7.3821,-7.448,-7.4099,-7.3157,-7.1812,-7.0209,-6.9093,-6.8566,-6.884,-6.8765,-6.7958,-6.8007,-6.7778,-6.7269,-6.7395,-6.6623,-6.5029,-6.487,-6.4123,-6.2822,-6.2822,-6.2822,-5.1004,-5.1933,0.0,-4.7898,-4.6563,0.0,-4.0379,0.0,-4.157,0.0,0.0,0.0,0.0,0.0,0.0,0.0,0.0,0.0,0.0,-3.5008,0.0,0.0,0.0,0.0,0.0,0.0,-4.3359,-4.704,-4.6441,0.0,0.0,-5.485,-5.6316,-5.7393,-5.853,-5.9428,-6.0086,-6.0775,-6.1433,-6.2121,-6.275,-6.3079,-6.3079,-6.3079,-6.3079,-6.3079,-6.3079,-6.3079,-6.3079,-6.3079,-6.3079,-6.3079,-6.3079,-6.3199,-6.3408,-6.3408,-6.3947,-6.4844,-6.5712,-6.6161,-6.643,-6.6849,-6.6999,-6.6999,-6.6999,-6.6999,-6.7119,-6.7777,-6.8465,-6.9153,-6.9812,-7.044,-7.0889,-7.0889,-7.0889,-7.0889,-7.0889,-7.0889,-7.0889,-7.0889,-7.1098,-7.1398,-7.1816,-7.2086,-7.2265,-7.2265,-7.2445,-7.2924,-7.3791,-7.4091,-7.442,-7.4839,-7.4869,-7.4288,-7.2657,-7.1016,-7.0107,-7.0107,-7.0107,-6.9959,-6.9737,-6.9959,-6.9588,-6.8566,-6.8463,-6.7395,-6.5187,-6.487,-6.4042,-6.2822,-6.2822,-6.2822]},{"header":{"parameterUnit":"m.s-1","parameterCategory":1,"la1":30.6,"la2":29.2853,"lo1":-89.7004,"lo2":-87.6739,"dy":0.0162,"dx":0.0183,"nx":112,"ny":82,"refTime":"2025-02-27T06:00:00:Z","depth":0,"parameterNumber":3,"parameterNumberName":"V-component_of_WINDS"},"data":[0.0,0.0,0.0,0.0,0.0,0.0,0.0,0.0,0.0,0.0,0.0,0.0,0.0,0.0,0.0,0.0,0.0,0.0,0.0,0.0,0.0,0.0,0.0,0.0,0.0,0.0,0.0,0.0,0.0,0.0,0.0,0.0,0.0,0.0,0.0,0.0,0.0,0.0,0.0,0.0,0.0,0.0,0.0,0.0,0.0,0.0,0.0,0.0,0.0,0.0,0.0,0.0,0.0,0.0,0.0,0.0,0.0,0.0,0.0,0.0,0.0,0.0,0.0,0.0,0.0,0.0,0.0,0.0,0.0,0.0,0.0,0.0,0.0,0.0,0.0,0.0,0.0,0.0,0.0,0.0,0.0,0.0,0.0,0.0,0.0,0.0,0.0,0.0,0.0,0.0,4.3403,4.6718,5.1589,5.4329,5.3721,5.2063,4.8951,4.4051,0.0,0.0,0.0,0.0,0.0,0.0,0.0,0.0,0.0,0.0,0.0,0.0,0.0,0.0,0.0,0.0,0.0,0.0,0.0,0.0,0.0,0.0,0.0,0.0,0.0,0.0,0.0,0.0,0.0,0.0,0.0,0.0,0.0,0.0,0.0,0.0,0.0,0.0,0.0,0.0,0.0,0.0,0.0,0.0,0.0,0.0,0.0,0.0,0.0,0.0,0.0,0.0,0.0,0.0,0.0,0.0,0.0,0.0,0.0,0.0,0.0,0.0,0.0,0.0,0.0,0.0,0.0,0.0,0.0,0.0,0.0,0.0,0.0,0.0,0.0,0.0,0.0,0.0,0.0,0.0,0.0,0.0,0.0,0.0,0.0,0.0,0.0,0.0,0.0,0.0,0.0,0.0,0.0,0.0,0.0,0.0,0.0,0.0,0.0,0.0,0.0,0.0,0.0,0.0,4.4418,5.2401,5.4059,5.4532,5.4431,5.186,4.8849,4.5568,0.0,0.0,0.0,0.0,0.0,0.0,0.0,0.0,0.0,0.0,0.0,0.0,0.0,0.0,0.0,0.0,0.0,0.0,0.0,0.0,0.0,0.0,0.0,0.0,0.0,0.0,0.0,0.0,0.0,0.0,0.0,0.0,0.0,0.0,0.0,0.0,0.0,0.0,0.0,0.0,0.0,0.0,0.0,0.0,0.0,0.0,0.0,0.0,0.0,0.0,0.0,0.0,0.0,0.0,0.0,0.0,0.0,0.0,0.0,0.0,0.0,0.0,0.0,0.0,0.0,0.0,0.0,0.0,0.0,0.0,0.0,0.0,0.0,0.0,0.0,0.0,0.0,0.0,0.0,0.0,0.0,0.0,0.0,0.0,0.0,0.0,0.0,0.0,0.0,0.0,0.0,0.0,0.0,0.0,0.0,0.0,0.0,0.0,0.0,0.0,0.0,0.0,0.0,4.3707,4.7936,5.4499,5.5209,5.5209,5.5209,5.2435,4.9458,4.6481,4.1339,0.0,0.0,0.0,0.0,0.0,0.0,0.0,0.0,0.0,0.0,0.0,0.0,0.0,0.0,0.0,0.0,0.0,0.0,0.0,0.0,0.0,0.0,0.0,0.0,0.0,0.0,0.0,0.0,0.0,0.0,0.0,0.0,0.0,0.0,0.0,0.0,0.0,0.0,0.0,0.0,0.0,0.0,0.0,0.0,0.0,0.0,0.0,0.0,0.0,0.0,0.0,0.0,0.0,0.0,0.0,0.0,0.0,0.0,0.0,0.0,0.0,0.0,0.0,0.0,0.0,0.0,0.0,0.0,0.0,0.0,0.0,0.0,0.0,0.0,0.0,0.0,0.0,0.0,0.0,0.0,0.0,0.0,0.0,0.0,0.0,0.0,0.0,0.0,0.0,0.0,0.0,0.0,0.0,0.0,0.0,0.0,0.0,0.0,0.0,0.0,0.0,0.0,4.9323,5.186,5.5818,5.6089,5.5919,5.5681,5.2638,4.9593,4.6955,4.0696,0.0,0.0,0.0,0.0,0.0,0.0,0.0,0.0,0.0,0.0,0.0,0.0,0.0,0.0,0.0,0.0,0.0,0.0,0.0,0.0,0.0,0.0,0.0,0.0,0.0,0.0,0.0,0.0,0.0,0.0,0.0,0.0,0.0,0.0,0.0,0.0,0.0,0.0,0.0,0.0,0.0,0.0,0.0,0.0,0.0,0.0,0.0,0.0,0.0,0.0,0.0,0.0,0.0,0.0,0.0,0.0,0.0,0.0,0.0,0.0,0.0,0.0,0.0,0.0,0.0,0.0,0.0,0.0,0.0,0.0,0.0,0.0,0.0,0.0,0.0,0.0,0.0,0.0,0.0,0.0,0.0,0.0,0.0,0.0,0.0,0.0,0.0,0.0,0.0,0.0,0.0,0.0,0.0,0.0,0.0,0.0,0.0,0.0,0.0,0.0,0.0,0.0,5.1589,5.5108,5.7476,5.7137,5.6461,5.5784,5.1691,4.8477,4.6887,3.9208,0.0,0.0,0.0,0.0,0.0,0.0,0.0,0.0,0.0,0.0,0.0,0.0,0.0,0.0,0.0,0.0,0.0,0.0,0.0,0.0,0.0,0.0,0.0,0.0,0.0,0.0,0.0,0.0,0.0,0.0,0.0,0.0,0.0,0.0,0.0,0.0,0.0,0.0,0.0,0.0,0.0,0.0,0.0,0.0,0.0,0.0,0.0,0.0,0.0,0.0,0.0,0.0,0.0,0.0,0.0,0.0,0.0,0.0,0.0,0.0,0.0,0.0,0.0,0.0,0.0,0.0,0.0,0.0,0.0,0.0,0.0,0.0,0.0,0.0,0.0,0.0,0.0,0.0,0.0,0.0,0.0,0.0,0.0,0.0,0.0,0.0,0.0,0.0,0.0,0.0,0.0,0.0,0.0,0.0,0.0,0.0,0.0,0.0,0.0,0.0,0.0,0.0,5.0304,5.389,0.0,5.6393,5.5513,5.5647,5.2435,4.9154,4.6278,0.0,0.0,0.0,0.0,0.0,0.0,0.0,0.0,0.0,0.0,0.0,0.0,0.0,0.0,0.0,0.0,0.0,0.0,0.0,0.0,0.0,0.0,0.0,0.0,0.0,0.0,0.0,0.0,0.0,0.0,0.0,0.0,0.0,0.0,0.0,0.0,0.0,0.0,0.0,0.0,0.0,0.0,0.0,0.0,0.0,0.0,0.0,0.0,0.0,0.0,0.0,0.0,0.0,0.0,0.0,0.0,0.0,0.0,0.0,0.0,0.0,0.0,0.0,0.0,0.0,0.0,0.0,0.0,0.0,0.0,0.0,0.0,0.0,0.0,0.0,0.0,0.0,0.0,0.0,0.0,0.0,0.0,0.0,0.0,0.0,0.0,0.0,0.0,0.0,0.0,0.0,0.0,0.0,0.0,0.0,0.0,0.0,0.0,0.0,0.0,0.0,0.0,4.6549,5.0168,5.3653,0.0,5.5987,5.5141,5.5683,5.2536,4.9154,4.5906,0.0,0.0,0.0,0.0,0.0,0.0,0.0,0.0,0.0,0.0,0.0,0.0,0.0,0.0,0.0,0.0,0.0,0.0,0.0,0.0,0.0,0.0,0.0,0.0,0.0,0.0,0.0,0.0,0.0,0.0,0.0,0.0,0.0,0.0,0.0,0.0,0.0,0.0,0.0,0.0,0.0,0.0,0.0,0.0,0.0,0.0,0.0,0.0,0.0,0.0,0.0,0.0,0.0,0.0,0.0,0.0,0.0,0.0,0.0,0.0,0.0,0.0,0.0,0.0,0.0,0.0,0.0,0.0,0.0,0.0,0.0,0.0,0.0,0.0,0.0,0.0,0.0,0.0,0.0,0.0,0.0,0.0,0.0,0.0,0.0,0.0,0.0,0.0,0.0,0.0,0.0,0.0,0.0,0.0,0.0,0.0,0.0,0.0,0.0,0.0,0.0,0.0,4.7398,5.1826,5.5141,5.663,5.6122,5.5647,5.5647,5.1589,4.8071,0.0,0.0,0.0,0.0,0.0,0.0,0.0,0.0,0.0,0.0,0.0,0.0,0.0,0.0,0.0,0.0,0.0,0.0,0.0,0.0,0.0,0.0,0.0,0.0,0.0,0.0,0.0,0.0,0.0,0.0,0.0,0.0,0.0,0.0,0.0,0.0,0.0,0.0,0.0,0.0,0.0,0.0,0.0,0.0,0.0,0.0,0.0,0.0,0.0,0.0,0.0,0.0,0.0,0.0,0.0,0.0,0.0,0.0,0.0,0.0,0.0,0.0,0.0,0.0,0.0,0.0,0.0,0.0,0.0,0.0,0.0,0.0,0.0,0.0,0.0,0.0,0.0,0.0,0.0,0.0,0.0,0.0,0.0,0.0,0.0,0.0,0.0,0.0,0.0,0.0,0.0,0.0,0.0,0.0,0.0,0.0,0.0,0.0,0.0,0.0,0.0,0.0,0.0,4.7368,5.1255,5.4226,5.585,5.4905,5.416,5.416,5.1961,4.8714,4.4322,0.0,0.0,0.0,0.0,0.0,0.0,0.0,0.0,0.0,0.0,0.0,0.0,0.0,0.0,0.0,0.0,0.0,0.0,0.0,0.0,0.0,0.0,0.0,0.0,0.0,0.0,0.0,0.0,0.0,0.0,0.0,0.0,0.0,0.0,0.0,0.0,0.0,0.0,0.0,0.0,0.0,0.0,0.0,0.0,0.0,0.0,0.0,0.0,0.0,0.0,0.0,0.0,0.0,0.0,0.0,0.0,0.0,0.0,0.0,0.0,0.0,0.0,0.0,0.0,0.0,0.0,0.0,0.0,0.0,0.0,0.0,0.0,0.0,0.0,0.0,0.0,0.0,0.0,0.0,0.0,0.0,0.0,0.0,0.0,0.0,0.0,0.0,0.0,0.0,0.0,0.0,0.0,0.0,0.0,0.0,0.0,0.0,0.0,0.0,0.0,0.0,0.0,4.6903,5.0851,5.3821,5.5141,5.4465,5.3923,5.3923,5.2536,4.956,4.4626,0.0,0.0,0.0,0.0,0.0,0.0,0.0,0.0,0.0,0.0,0.0,0.0,0.0,0.0,0.0,0.0,0.0,0.0,0.0,0.0,0.0,0.0,0.0,0.0,0.0,0.0,0.0,0.0,0.0,0.0,0.0,0.0,0.0,0.0,0.0,0.0,0.0,0.0,0.0,0.0,0.0,0.0,0.0,0.0,0.0,0.0,0.0,0.0,0.0,0.0,0.0,0.0,0.0,0.0,0.0,0.0,0.0,0.0,0.0,0.0,0.0,0.0,0.0,0.0,0.0,0.0,0.0,0.0,0.0,0.0,0.0,0.0,0.0,0.0,0.0,0.0,0.0,0.0,0.0,0.0,0.0,0.0,0.0,0.0,0.0,0.0,0.0,0.0,0.0,0.0,0.0,0.0,0.0,0.0,0.0,0.0,0.0,0.0,0.0,0.0,0.0,0.0,4.6089,5.0517,5.3687,5.4363,5.4499,5.4465,5.4397,5.3112,5.0439,4.6075,0.0,0.0,0.0,0.0,0.0,0.0,0.0,0.0,0.0,0.0,0.0,0.0,0.0,0.0,0.0,0.0,0.0,0.0,0.0,0.0,0.0,0.0,0.0,0.0,0.0,0.0,0.0,0.0,0.0,0.0,0.0,0.0,0.0,0.0,0.0,0.0,0.0,0.0,0.0,0.0,0.0,0.0,0.0,0.0,0.0,0.0,0.0,0.0,0.0,0.0,0.0,0.0,0.0,0.0,0.0,0.0,0.0,0.0,0.0,0.0,4.3809,4.2455,0.0,0.0,0.0,0.0,0.0,0.0,0.0,0.0,0.0,0.0,0.0,0.0,0.0,0.0,0.0,0.0,0.0,0.0,0.0,0.0,0.0,0.0,0.0,0.0,0.0,0.0,0.0,0.0,0.0,0.0,0.0,0.0,0.0,0.0,0.0,0.0,0.0,0.0,0.0,0.0,4.5225,4.9793,5.297,5.3448,5.3483,5.3315,5.2841,5.2503,5.0676,4.6819,4.2895,0.0,0.0,0.0,0.0,0.0,0.0,0.0,0.0,0.0,0.0,0.0,0.0,0.0,0.0,0.0,0.0,0.0,0.0,0.0,0.0,0.0,0.0,0.0,0.0,0.0,0.0,0.0,0.0,0.0,0.0,0.0,0.0,0.0,0.0,0.0,0.0,0.0,0.0,0.0,0.0,0.0,0.0,0.0,0.0,0.0,0.0,0.0,0.0,0.0,0.0,0.0,0.0,0.0,0.0,0.0,0.0,0.0,0.0,0.0,4.6819,4.5026,0.0,0.0,0.0,0.0,0.0,0.0,0.0,0.0,0.0,0.0,0.0,0.0,0.0,0.0,0.0,0.0,0.0,0.0,0.0,0.0,0.0,0.0,0.0,0.0,0.0,0.0,0.0,0.0,0.0,0.0,0.0,0.0,0.0,0.0,0.0,0.0,0.0,0.0,0.0,0.0,4.5179,4.9414,5.2238,5.2557,5.3274,5.3583,5.3315,5.3011,5.1726,4.8931,4.5375,0.0,0.0,0.0,0.0,0.0,0.0,0.0,0.0,0.0,0.0,0.0,0.0,0.0,0.0,0.0,0.0,0.0,0.0,0.0,0.0,0.0,0.0,0.0,0.0,0.0,0.0,0.0,0.0,0.0,0.0,0.0,0.0,0.0,0.0,0.0,0.0,0.0,0.0,0.0,0.0,0.0,0.0,0.0,0.0,0.0,0.0,0.0,0.0,0.0,0.0,0.0,0.0,0.0,5.1285,5.23,5.2773,5.2773,5.3788,5.531,5.098,4.9018,4.8649,4.5877,0.0,0.0,0.0,0.0,0.0,0.0,0.0,0.0,0.0,0.0,0.0,0.0,0.0,0.0,0.0,0.0,0.0,0.0,0.0,0.0,0.0,0.0,4.3997,0.0,4.5808,4.5009,4.1286,0.0,0.0,0.0,0.0,0.0,0.0,0.0,0.0,0.0,0.0,0.0,4.5262,4.8972,5.1377,5.1561,5.2771,5.363,5.3764,5.3544,5.2673,5.1095,4.8231,4.5105,0.0,0.0,0.0,0.0,0.0,0.0,0.0,0.0,0.0,0.0,0.0,0.0,0.0,0.0,0.0,0.0,0.0,0.0,0.0,0.0,0.0,0.0,0.0,0.0,0.0,0.0,0.0,0.0,0.0,0.0,0.0,0.0,4.1517,4.4019,0.0,0.0,0.0,0.0,0.0,0.0,0.0,0.0,0.0,0.0,0.0,0.0,0.0,5.0879,5.23,5.504,5.6461,5.6596,5.8795,5.9505,5.893,5.893,5.9099,5.9336,5.866,0.0,5.2638,5.0913,0.0,0.0,0.0,0.0,0.0,0.0,0.0,0.0,0.0,0.0,0.0,0.0,0.0,0.0,0.0,0.0,0.0,0.0,0.0,0.0,0.0,0.0,4.8731,4.8346,4.8263,4.8344,0.0,4.4785,4.0236,3.6617,3.4975,0.0,0.0,0.0,0.0,0.0,0.0,0.0,4.4543,4.7851,5.0087,5.032,5.0531,5.0974,5.1701,5.2426,5.2404,5.1474,5.0659,4.9443,4.7659,4.2088,0.0,0.0,0.0,0.0,0.0,0.0,0.0,0.0,0.0,0.0,0.0,0.0,0.0,0.0,0.0,0.0,0.0,0.0,0.0,0.0,0.0,0.0,0.0,0.0,0.0,0.0,0.0,0.0,0.0,4.2234,4.4892,4.4718,4.546,4.4993,0.0,0.0,0.0,0.0,0.0,0.0,0.0,0.0,0.0,5.3146,5.412,5.5494,5.7409,5.9275,6.0632,6.1475,6.2892,6.36,6.3701,6.3701,6.3903,6.4315,6.3558,6.2144,5.9979,5.5003,5.1932,5.0045,0.0,0.0,0.0,0.0,4.8815,4.9052,5.0845,5.0913,4.9898,4.7909,0.0,0.0,0.0,0.0,0.0,0.0,0.0,4.3109,0.0,0.0,4.9712,5.1498,5.1413,5.084,5.043,4.7984,4.4782,0.0,4.0346,3.8697,3.3624,0.0,0.0,0.0,0.0,4.3179,4.5303,4.7663,4.9166,4.9336,4.9813,5.0572,5.1766,5.1913,5.1952,5.1894,5.1025,4.9883,4.8413,4.4886,4.1907,0.0,0.0,0.0,0.0,0.0,0.0,0.0,0.0,0.0,0.0,0.0,0.0,0.0,0.0,0.0,0.0,0.0,0.0,0.0,0.0,0.0,0.0,0.0,0.0,0.0,0.0,0.0,0.0,4.534,4.7573,4.595,4.8122,4.8068,0.0,0.0,0.0,0.0,0.0,0.0,5.2067,5.3342,5.5386,5.8392,5.9175,6.0437,6.2278,6.3254,6.4203,6.527,6.5807,6.6378,6.6949,6.6949,6.7262,6.7732,6.6761,6.6129,6.5244,5.8942,5.5808,5.4594,5.1663,5.0851,5.142,5.2739,5.3213,5.3619,5.6393,5.6528,5.5108,5.3247,5.1386,4.9292,4.6338,0.0,0.0,0.0,0.0,4.5353,4.9923,5.0268,5.0167,5.3161,5.3051,5.2166,5.1704,5.071,4.8914,0.0,4.5069,4.3661,3.8446,0.0,0.0,0.0,0.0,4.3944,4.6082,4.7496,4.8324,4.8418,4.9004,4.9878,5.11,5.1209,5.1331,5.1745,5.1239,5.0324,4.8923,4.7337,4.514,4.2292,0.0,0.0,0.0,0.0,0.0,0.0,0.0,0.0,0.0,0.0,0.0,0.0,0.0,0.0,0.0,0.0,0.0,0.0,0.0,0.0,0.0,0.0,0.0,0.0,0.0,0.0,0.0,0.0,0.0,4.9357,5.1296,0.0,0.0,0.0,0.0,5.0456,5.2434,5.484,5.7749,5.9287,6.1207,6.374,6.5253,6.6397,6.7247,6.7988,6.8259,6.8104,6.8138,6.8171,6.8205,6.8205,6.8238,6.8272,6.8205,6.7279,6.5611,6.3013,6.1129,5.9637,5.8758,5.8051,5.7543,5.8321,5.8626,5.866,5.8829,5.8389,5.7577,5.6765,5.4532,5.1998,5.1228,5.0391,0.0,0.0,4.9781,5.079,5.1091,5.1129,5.1345,5.235,5.1911,5.1908,5.4197,5.2953,5.0808,0.0,4.7246,4.5816,4.4202,0.0,4.3758,4.3244,4.4313,4.5443,4.6209,4.6933,4.7396,4.7366,4.7409,4.7752,4.8443,4.983,5.0641,5.0617,5.2167,5.2431,5.1033,4.9056,4.7302,4.5872,4.0528,0.0,0.0,0.0,0.0,0.0,0.0,0.0,0.0,0.0,0.0,0.0,0.0,0.0,0.0,0.0,0.0,0.0,0.0,0.0,0.0,0.0,0.0,0.0,0.0,0.0,0.0,0.0,0.0,5.3768,5.5632,0.0,5.2471,5.3636,5.4862,5.5612,5.8007,6.0171,6.1829,6.3141,6.4467,6.5898,6.6768,6.7545,6.8323,6.8727,6.9173,6.9549,6.9549,6.9549,6.9549,6.9549,6.9549,6.9516,6.9152,6.8662,6.8048,6.6728,6.4464,6.1743,6.1037,6.0762,6.0858,6.1447,6.1756,6.1936,6.2324,6.161,6.0261,5.8575,5.6664,5.4955,5.4734,5.4076,5.3362,5.3054,5.3358,5.3894,5.4511,5.4608,5.4722,5.507,5.4908,5.466,5.4653,5.3575,5.2427,5.1876,4.9945,4.7506,4.4819,4.5001,4.5243,4.4158,4.512,4.6184,4.683,4.716,4.7309,4.7309,4.7309,4.7758,4.888,4.907,4.9307,4.9686,4.99,4.9641,4.868,4.7981,4.7015,4.5797,4.2993,3.9313,0.0,0.0,0.0,0.0,0.0,0.0,0.0,0.0,0.0,0.0,0.0,0.0,0.0,0.0,0.0,0.0,0.0,0.0,0.0,0.0,0.0,0.0,0.0,0.0,0.0,5.213,5.5498,5.6272,5.838,5.8947,5.6888,5.8217,5.9572,6.0365,6.254,6.4328,6.5467,6.6257,6.7077,6.7978,6.8294,6.8712,6.921,6.9397,6.9663,7.0082,7.0082,7.0082,7.0082,7.0082,7.0082,7.0049,6.969,6.9415,6.9148,6.8727,6.7001,6.4495,6.381,6.3417,6.3174,6.3475,6.3472,6.3335,6.3438,6.2586,6.1219,5.9371,5.803,5.7084,5.6821,5.6393,5.5892,5.5602,5.5538,5.5664,5.6036,5.609,5.6062,5.6115,5.6134,5.5841,5.494,5.4092,5.3518,5.3445,5.1592,4.9361,4.7036,4.7189,4.7279,4.6142,4.6741,4.7489,4.7908,4.7788,4.7638,4.7638,4.7638,4.7997,4.891,4.8745,4.885,4.9269,4.8656,4.7997,4.7339,4.71,4.6484,4.55,4.3758,4.0637,3.607,0.0,0.0,0.0,0.0,0.0,0.0,0.0,0.0,0.0,0.0,0.0,0.0,0.0,0.0,0.0,0.0,0.0,0.0,0.0,0.0,0.0,0.0,0.0,4.9078,5.3028,5.6182,5.6811,5.9398,6.0703,5.9698,6.0913,6.2574,6.4584,6.5879,6.7247,6.8639,6.8705,6.921,7.0176,7.0209,7.0209,7.0209,7.0209,7.0035,6.9798,6.9798,6.9798,6.9798,6.9798,6.9798,6.9798,6.9798,6.9368,6.8705,6.8958,6.8619,6.7854,6.7402,6.6156,6.4649,6.4604,6.3937,6.2876,6.2125,6.1285,6.0335,5.9338,5.8707,5.8238,5.7528,5.7345,5.7173,5.6492,5.6311,5.6216,5.54,5.5229,5.5229,5.5179,5.5179,5.5179,5.5179,5.47,5.4042,5.3384,5.2187,5.1289,5.1229,5.0644,5.0016,4.9479,4.9359,0.0,4.9359,4.8775,4.8356,4.8356,4.8327,4.8327,4.8356,4.891,4.9269,4.9269,4.8596,4.7938,4.7309,4.6681,4.6022,4.5364,4.2791,4.0157,3.7554,0.0,0.0,0.0,0.0,0.0,0.0,0.0,0.0,0.0,0.0,0.0,0.0,0.0,0.0,0.0,0.0,0.0,0.0,0.0,0.0,0.0,4.8693,5.1923,5.3052,5.6461,5.957,6.1407,6.2594,6.3606,6.4335,6.5071,6.6059,6.7446,6.8387,6.9069,6.9467,6.95,6.9614,6.9893,6.9893,6.9893,6.9893,6.9893,6.9893,6.9798,6.9798,6.9798,6.9798,6.9798,6.9798,6.9798,6.9798,6.9202,6.8258,6.8307,6.7441,6.6152,6.7314,6.6738,6.5324,6.5171,6.4108,6.2619,6.187,6.1456,6.1088,6.0308,5.9585,5.8908,5.8294,5.8074,5.7856,5.6467,5.7074,5.7726,5.5937,5.6017,5.625,5.5431,5.5179,5.5179,5.5179,5.5059,5.485,5.467,5.3952,5.2935,5.1468,5.1079,5.09,5.072,5.069,0.0,5.069,5.0511,5.0242,4.9763,4.9284,4.9194,4.9628,4.8566,4.8057,4.8536,4.7489,4.677,4.6548,4.6369,4.6441,4.6741,4.4167,4.2222,0.0,0.0,0.0,0.0,0.0,0.0,0.0,0.0,0.0,0.0,0.0,0.0,0.0,0.0,0.0,0.0,0.0,0.0,0.0,0.0,0.0,0.0,5.2101,5.5451,5.7236,5.9232,6.1247,6.338,6.372,6.4601,6.6841,6.6447,6.6906,6.8994,6.9118,6.9301,6.9798,6.9798,6.9574,6.9107,6.9107,6.9107,6.9107,6.8634,6.8863,6.9798,6.9301,6.9301,6.9798,6.9798,6.9798,6.9798,6.9798,6.9156,6.8072,6.8072,6.7157,6.5837,0.0,0.0,0.0,0.0,6.2543,6.1597,6.0811,6.0664,6.0721,5.9855,5.9421,5.9028,5.8381,5.8165,5.8005,5.6889,5.7402,5.7956,5.6567,5.6455,5.6522,5.6101,5.5568,5.5269,5.5538,5.5388,5.5179,5.5179,5.488,0.0,5.3084,5.2426,5.2037,5.2037,5.2037,5.2037,5.2037,5.1798,5.1498,5.1109,5.072,5.0541,5.0584,4.9299,0.0,0.0,0.0,4.616,4.5903,4.5903,0.0,0.0,0.0,0.0,0.0,0.0,0.0,0.0,4.1833,4.1624,0.0,0.0,0.0,0.0,0.0,0.0,0.0,0.0,0.0,0.0,0.0,0.0,0.0,0.0,0.0,0.0,5.5797,5.9279,6.0976,6.1283,6.1915,6.3513,6.3373,6.4351,6.7414,6.5866,6.6004,6.9156,6.8453,6.8354,6.9382,6.943,0.0,0.0,0.0,6.7921,6.7921,6.6898,6.7414,6.943,6.8403,6.8453,6.943,6.943,6.943,6.943,6.943,6.8781,6.7719,6.7719,6.7054,6.5994,6.5356,6.4203,6.2634,6.0765,6.0251,6.0325,5.9447,0.0,0.0,5.8836,5.8761,5.8797,5.8131,5.7919,5.7837,5.757,5.7437,5.7385,5.7146,5.6675,5.6406,5.6974,5.6226,5.5568,5.6137,5.5777,5.5299,5.5299,5.5239,5.5179,5.5179,5.4192,5.3414,5.3414,5.3414,5.3414,5.3414,5.2905,5.2516,5.2426,0.0,0.0,5.1498,5.0734,5.0062,4.9404,4.7608,4.6262,4.5663,4.5783,4.6411,4.7608,4.713,4.7983,5.0315,4.9853,5.0182,5.1199,4.5933,4.4736,0.0,0.0,0.0,0.0,0.0,0.0,0.0,0.0,0.0,0.0,0.0,0.0,0.0,0.0,0.0,5.477,5.8241,6.0851,6.1762,6.2361,6.2864,6.3183,6.3162,6.3706,6.5196,6.4978,6.5359,6.695,6.6846,6.6846,6.7054,6.7054,6.695,6.6742,6.6742,6.6742,6.6742,6.6533,6.6638,6.7054,6.6846,0.0,6.7054,6.7054,6.7054,6.7054,6.7054,6.6428,6.5359,6.5359,6.4734,6.3759,6.3971,6.3904,6.3333,6.0946,6.0141,6.0052,5.9338,5.9153,5.9261,5.9057,5.9027,5.8961,5.8271,5.8038,0.0,5.7348,5.7198,5.7146,5.7094,5.7004,5.6944,5.7064,5.6915,5.6765,5.6885,5.6406,5.5987,5.5987,5.5568,5.5179,5.5179,5.497,5.479,5.479,5.479,5.479,5.479,5.47,5.4401,5.3892,5.3324,5.2935,5.2815,5.1708,5.075,5.0092,4.8716,4.7848,4.7728,4.8716,4.9359,4.9628,5.0016,5.0511,5.0973,5.1439,5.1768,5.1977,5.084,5.0571,0.0,0.0,0.0,0.0,0.0,0.0,0.0,0.0,0.0,0.0,0.0,4.5458,4.8789,0.0,5.467,5.7663,6.0086,6.1822,6.248,6.2869,6.3079,6.3079,6.3079,6.3535,6.4623,6.4209,6.4568,6.6269,6.5897,6.579,6.6375,6.6375,6.6164,6.5575,6.5575,6.5575,6.5575,6.5009,6.5282,6.6375,6.5844,6.5844,6.6375,6.6375,6.6375,6.6375,6.6375,6.5737,6.4678,6.4097,6.3592,6.3107,6.3343,6.3447,6.3269,6.1657,6.0894,6.0505,5.9817,5.9368,5.9099,5.9099,5.9099,5.9039,5.871,5.862,5.853,5.8201,5.8112,5.8112,5.8112,5.7842,5.7693,5.8022,5.7603,5.7184,5.7543,5.7094,5.6645,5.6645,5.6376,5.6137,5.6137,5.5897,5.5568,5.5239,5.5179,5.5179,5.5179,5.5179,5.5059,5.473,5.4401,5.4042,5.3713,5.2486,5.1439,5.0734,5.0122,4.9763,4.9763,5.0391,5.0853,5.1199,5.1528,5.2217,5.3204,5.3533,5.4012,5.467,5.4999,5.464,0.0,0.0,0.0,0.0,0.0,0.0,0.0,0.0,4.3388,4.5604,4.7559,4.9733,5.2606,5.5239,5.7723,6.0086,6.1493,6.248,6.2989,6.3079,6.3079,6.3079,6.3079,6.3451,6.432,6.3592,6.3819,6.5629,6.4899,6.4789,6.5683,6.5737,6.5336,6.4432,6.4376,6.4376,6.4376,6.3535,6.3958,6.5737,6.4844,6.4844,6.5737,6.5737,6.5737,6.5737,6.5737,6.5227,6.432,6.3451,6.3079,6.3079,6.3079,6.3079,6.2989,6.2331,6.1762,6.1194,6.0386,5.9727,5.9279,5.9129,5.9099,5.9099,5.9099,5.9099,5.9099,5.9099,5.9099,5.9099,5.9099,5.871,5.8441,5.8979,5.8261,5.7633,5.8201,5.7782,5.7304,5.7304,5.7184,5.7094,5.7094,5.6675,5.6137,5.5478,5.5269,5.5179,5.5179,5.5179,5.5239,5.5359,5.5269,5.5029,5.461,5.3473,5.2606,5.2217,5.2067,5.1977,5.1977,5.2097,5.2426,5.2965,5.3084,5.3952,5.5568,5.5688,5.6346,5.7483,5.8201,5.7573,4.1618,4.054,4.0546,4.1771,4.2043,4.3476,0.0,4.8879,4.8468,5.1772,5.3451,5.476,5.6286,5.8261,6.0146,6.1642,6.248,6.2989,6.3079,6.3079,6.3079,6.3079,6.3079,6.3137,6.3279,6.3194,6.3194,6.3451,6.3337,6.3337,6.3451,6.3451,6.3394,6.3279,6.3279,6.3279,6.3279,6.3194,6.3222,6.3451,6.3337,6.3337,6.3451,6.3451,6.3451,6.3451,6.3451,6.3394,6.3279,6.3137,6.3079,6.3079,6.3079,6.3079,6.2989,6.2331,6.2061,6.1822,6.0535,6.0027,5.9877,5.9279,5.9099,5.9099,5.9099,5.9099,5.9099,5.9099,5.9099,5.9099,5.9099,5.9039,5.9009,5.9099,5.8979,5.889,5.8979,5.8471,5.8022,5.8022,5.7513,5.7094,5.7094,5.7034,5.6765,5.6166,5.5568,5.5179,5.5179,5.5179,5.5418,5.5987,5.5538,5.5388,5.5897,5.5269,5.5089,5.5598,5.5059,5.473,5.473,5.5299,5.5658,5.5718,5.6256,5.6645,5.6885,5.7513,5.8171,5.889,5.9548,5.9428,4.5825,4.4639,4.4025,4.5082,4.612,4.754,5.0232,5.1031,5.191,5.4503,5.6032,5.7423,5.9129,6.0446,6.1583,0.0,6.2899,6.3079,6.3079,6.3079,6.2929,6.254,6.2839,6.3079,6.3079,6.3079,6.3079,6.3079,6.3079,6.3079,6.3079,6.3079,6.3079,6.3079,6.3079,6.3079,6.3079,6.3079,6.3079,6.3079,6.3079,6.3079,6.3079,6.3079,6.3079,6.3079,6.3079,6.3079,6.3079,6.3079,6.3079,6.3079,6.3079,6.3079,6.3049,6.278,6.2421,6.1972,6.1014,6.0416,5.9967,5.9308,5.9099,5.9099,5.9099,5.9099,5.9099,5.9099,5.9099,5.9099,5.9099,5.9099,5.9099,5.9099,5.9099,5.9099,5.9099,5.889,5.871,5.871,5.8471,5.8261,5.8261,5.7932,5.7603,5.7334,5.6735,5.6286,5.6286,5.6286,5.6406,5.6675,5.6466,5.6406,5.6675,5.6466,5.6406,5.6705,5.6466,5.6286,5.6286,5.6555,5.6705,5.6705,5.7363,5.7872,5.8261,5.8949,5.9608,6.0266,6.0565,6.0745,4.7698,4.716,4.701,4.7668,4.9464,5.1139,5.1481,5.2995,5.476,5.6585,5.8022,5.9458,6.1074,6.1912,6.251,6.2989,6.3079,6.3079,6.3079,6.2929,6.263,6.2151,6.2361,6.26,6.278,6.2959,6.3079,6.3079,6.3079,6.3079,6.3079,6.3079,6.3079,6.3079,6.3079,6.3079,6.3079,6.3079,6.3079,6.3079,6.3079,6.3079,6.3079,6.3079,6.3079,6.3079,6.3079,6.3079,6.3079,6.3079,6.3079,6.3079,6.3079,6.3079,6.3079,6.3079,6.278,6.2241,6.1403,6.0775,6.0236,5.9368,5.9099,5.9099,5.9099,5.9099,5.9099,5.9099,5.9099,5.9099,5.9099,5.9099,5.9099,5.9099,5.9099,5.9099,5.9099,5.9099,5.9099,5.9099,5.9099,5.9099,5.9099,5.871,5.8411,5.8411,5.7962,5.7513,5.7154,5.7274,5.7304,5.7124,5.7274,5.7393,5.7393,5.7393,5.7453,5.7633,5.7663,5.7663,5.7663,5.7663,5.7663,5.7663,5.8321,5.889,5.9368,6.0057,6.0715,6.1373,6.1373,6.1732,4.5753,4.677,4.8386,4.909,5.1216,5.3443,5.473,5.6047,5.7363,5.874,6.0086,6.1253,6.1942,6.26,6.3049,6.3079,6.3079,6.3079,6.3079,6.254,6.2121,6.2091,6.1553,6.1433,0.0,6.269,6.3079,6.3079,6.3079,6.3079,6.3079,6.3079,6.3079,6.3079,6.3079,6.3079,6.3079,6.3079,6.3079,6.3079,6.3079,6.3079,6.3079,6.3079,6.3079,6.3079,6.3079,6.3079,6.3079,6.3079,6.3079,6.3079,6.3079,6.3079,6.3079,6.3079,6.3079,6.2869,6.1553,6.1104,6.0864,5.9548,5.9099,5.9099,5.9099,5.9099,5.9099,5.9099,5.9099,5.9099,5.9099,5.9099,5.9099,5.9099,5.9099,5.9099,5.9099,5.9099,5.9099,5.9099,5.9099,5.9099,5.9099,5.9099,5.9069,5.9069,5.9069,5.856,5.7274,5.7693,5.7842,5.7154,5.7693,5.8082,5.8082,5.8082,5.8351,5.9009,5.9039,5.9039,5.9039,5.9039,5.9039,5.9039,5.9697,6.0027,6.0057,6.0745,6.1433,6.2061,6.2061,6.2421,4.8193,4.9374,5.072,5.2695,5.4491,5.6017,5.6915,5.7812,5.868,5.9578,5.9757,5.9997,6.0625,6.0954,6.1253,6.1702,6.2151,6.257,6.3019,6.2899,6.2421,6.1553,6.1642,0.0,0.0,0.0,0.0,6.3049,6.3079,6.3079,6.3079,6.3079,6.3079,6.3079,6.3079,6.3079,6.3079,6.3079,6.3079,6.3079,6.3079,6.3079,6.3079,6.3079,6.3079,6.3079,6.3079,6.3079,6.3079,6.3079,6.3079,6.3079,6.3079,6.3079,6.3079,6.3079,6.3079,6.2899,6.1583,6.1104,6.0894,5.9548,5.9099,5.9099,5.9099,5.9099,5.9099,5.9099,5.9099,5.9099,5.9099,5.9099,5.9099,5.9099,5.9099,5.9099,5.9099,5.9099,5.9099,5.9099,5.9099,5.9099,5.9099,5.9099,5.9099,5.9099,5.9099,5.8949,5.8501,5.862,5.868,5.8441,5.865,5.877,5.877,5.877,5.886,5.9099,5.9099,5.9099,5.9099,5.9518,5.9757,5.9757,6.0416,6.0984,6.1433,6.1642,6.2121,6.275,6.275,6.2869,4.9956,5.1409,5.2875,5.5269,5.6675,5.7633,5.8321,5.88,5.9159,5.9338,5.886,5.853,5.8949,5.865,5.886,6.0475,6.0894,6.1493,6.2869,6.2869,6.2421,6.1553,6.1642,6.1493,0.0,0.0,0.0,6.269,6.2929,6.3079,6.3079,6.3079,6.3079,6.3079,6.3079,6.3079,6.3079,6.3079,6.3079,6.3079,6.3079,6.3079,6.3079,6.3079,6.3079,6.3079,6.3079,6.3079,6.3079,6.3079,6.3079,6.3079,6.3079,6.3079,6.3079,6.3079,6.3079,6.2899,6.1583,6.1104,6.0894,5.9548,5.9099,5.9099,5.9099,5.9099,5.9099,5.9099,5.9099,5.9099,5.9099,5.9099,5.9099,5.9099,5.9099,5.9099,5.9099,5.9099,5.9099,5.9099,5.9099,5.9099,5.9099,5.9099,5.9099,5.9099,5.9099,5.9099,5.9099,5.9099,5.9099,5.9099,5.9099,5.9099,5.9099,5.9099,5.9099,5.9099,5.9308,5.9458,5.9458,6.0086,6.0446,6.0446,6.1134,6.1672,6.2091,6.2331,6.266,6.3079,6.3079,6.3079,5.1139,5.2965,5.491,5.6825,5.7752,5.8381,5.9009,5.9069,5.883,5.8171,5.7423,5.6885,0.0,0.0,5.6226,5.9368,5.9518,6.0116,6.272,6.254,6.2121,0.0,0.0,0.0,0.0,0.0,0.0,6.2091,6.272,6.3079,6.3079,6.3079,6.3079,6.3079,6.3079,6.3079,6.3079,6.3079,6.3079,6.3079,6.3079,6.3079,6.3079,6.3079,6.3079,6.3079,6.3079,6.3079,6.3079,6.3079,6.3079,6.3079,6.3079,6.3079,6.3079,6.3079,6.3079,6.2899,6.1613,6.1164,6.0954,5.9608,5.9159,5.9159,5.9129,5.9099,5.9099,5.9099,5.9099,5.9099,5.9099,5.9099,5.9129,5.9129,5.9159,5.9159,5.9189,5.9219,5.9219,5.9219,5.9219,5.9219,5.9219,5.9219,5.9189,5.9159,5.9159,5.9129,5.9099,5.9099,5.9099,5.9099,5.9099,5.9099,5.9099,5.9129,5.9159,5.9159,5.9787,6.0146,6.0146,6.0805,6.1164,6.1164,6.1822,6.2151,6.2151,6.278,6.3079,6.3079,6.3079,6.3079,5.47,5.6705,5.8231,5.9727,5.9847,5.9638,5.9787,5.868,5.7423,5.6795,5.5359,5.3892,5.2905,5.4072,5.5628,5.6944,5.9099,0.0,6.2839,6.2929,0.0,6.2151,0.0,6.1732,6.1403,6.1822,0.0,6.2091,6.272,6.3079,6.3079,6.3079,6.3079,6.3079,6.3079,6.3079,6.3079,6.3079,6.3079,6.3079,6.3079,6.3079,6.3079,6.3079,6.3079,6.3079,6.3079,6.3079,6.3079,6.3079,6.3079,6.3079,6.3079,6.3079,6.3079,6.3079,6.3079,6.2959,6.2121,6.1852,6.1613,6.0266,5.9847,5.9727,5.9249,5.9099,5.9099,5.9099,5.9099,5.9099,5.9099,5.9099,5.9219,5.9727,5.9847,5.9967,6.0475,6.0595,6.0595,6.0595,6.0595,6.0595,6.0595,6.0595,6.0416,5.9907,5.9847,5.9668,5.9159,5.9099,5.9099,5.9099,5.9099,5.9099,5.9099,5.9548,5.9847,5.9847,6.0475,6.0864,6.0864,6.1493,6.1852,6.1852,6.248,6.2839,6.2839,6.2989,6.3079,6.3079,6.3079,6.3079,5.6795,5.874,6.0086,6.0565,6.0386,5.9787,5.862,5.7483,5.6017,5.3672,5.2294,5.087,4.8985,5.078,5.3204,5.5029,0.0,0.0,6.278,6.3079,6.2929,0.0,6.254,0.0,6.2002,6.2301,6.254,6.254,6.2869,6.3079,6.3079,6.3079,6.3079,6.3079,6.3079,6.3079,6.3079,6.3079,6.3079,6.3079,6.3079,6.3079,6.3079,6.3079,6.3079,6.3079,6.3079,6.3079,6.3079,6.3079,6.3079,6.3079,6.3079,6.3079,6.3079,6.3079,6.3079,6.3019,6.266,6.254,6.2301,6.0984,6.0535,6.0475,6.0086,5.9997,5.9997,5.9997,5.9997,5.9997,5.9997,5.9997,6.0086,6.0446,6.0535,6.0655,6.1044,6.1104,6.1104,6.1104,6.1104,6.1104,6.1104,6.1104,6.0984,6.0595,6.0535,6.0416,6.0027,5.9727,5.9638,5.9967,5.9997,5.9997,5.9997,6.0326,6.0535,6.0535,6.1164,6.1553,6.1553,6.2181,6.254,6.254,6.2899,6.3079,6.3079,6.3079,6.3079,6.3079,6.3079,6.3079,5.8231,5.9907,6.1104,6.0505,6.0146,5.9308,5.6855,5.5807,5.4192,5.0048,4.891,4.7951,4.5603,4.7339,5.0242,5.3653,0.0,5.9279,6.26,6.3079,6.3079,6.3079,6.3079,6.3079,6.3079,6.3079,6.3079,6.3079,6.3079,6.3079,6.3079,6.3079,6.3079,6.3079,6.3079,6.3079,6.3079,6.3079,6.3079,6.3079,6.3079,6.3079,6.3079,6.3079,6.3079,6.3079,6.3079,6.3079,6.3079,6.3079,6.3079,6.3079,6.3079,6.3079,6.3079,6.3079,6.3079,6.3079,6.3079,6.3079,6.2869,6.1642,6.1253,6.1224,6.1134,6.1104,6.1104,6.1104,6.1104,6.1104,6.1104,6.1104,6.1134,6.1224,6.1253,6.1283,6.1373,6.1373,6.1373,6.1373,6.1373,6.1373,6.1373,6.1373,6.1343,6.1253,6.1253,6.1253,6.1253,6.0655,6.0446,6.1044,6.1104,6.1104,6.1104,6.1194,6.1253,6.1253,6.1852,6.2241,6.2241,6.278,6.3079,6.3079,6.3079,6.3079,6.3079,6.3079,6.3079,6.3079,6.3079,6.3079,6.0745,6.1672,6.1912,6.1762,6.0505,5.886,5.7304,5.4012,0.0,4.8835,4.6711,4.5035,4.4556,4.6651,4.9733,5.3593,5.6406,5.9279,6.26,6.3079,6.3079,0.0,6.3079,6.3079,6.3079,6.3079,0.0,6.3079,6.3079,6.3079,6.3079,6.3079,6.3079,6.3079,6.3079,6.3079,6.3079,6.3079,6.3079,6.3079,6.3079,6.3079,6.3079,6.3079,6.3079,6.3079,6.3079,0.0,6.3079,6.3079,6.3079,6.3079,6.3079,6.3079,6.3079,6.3079,6.3079,6.3079,6.3079,6.3079,6.2959,6.2181,6.1942,6.1822,6.1283,6.1104,6.1104,6.1104,6.1104,6.1104,6.1104,6.1104,6.1253,6.1792,6.1942,6.2061,6.263,6.272,6.272,6.272,6.272,6.272,6.272,6.272,6.254,6.2002,6.1942,6.1942,6.1942,6.1343,6.0984,6.1104,6.1104,6.1104,6.1104,6.1613,6.1942,6.1942,6.254,6.2899,6.2899,6.3019,6.3079,6.3079,6.3079,6.3079,6.3079,6.3079,6.3079,6.3079,6.3079,6.3079,6.1553,6.2331,6.245,6.1762,6.0086,5.7782,5.473,0.0,0.0,4.5304,4.3958,4.309,4.2402,4.5274,4.8506,5.075,5.3922,5.7244,6.0535,6.1014,6.1523,6.2899,6.3079,6.3079,6.3079,6.3079,6.3079,6.3079,6.3079,6.3079,6.3079,6.3079,6.3079,6.3079,6.3079,6.3079,6.3079,6.3079,6.3079,6.3079,6.3079,6.3079,6.3079,6.3079,6.3079,6.3079,6.3079,6.3079,6.3079,6.3079,6.3079,6.3079,6.3079,6.3079,6.3079,6.3079,6.3079,6.3079,6.3079,6.3079,6.3019,6.272,6.26,6.254,6.2241,6.2121,6.2121,6.2121,6.2121,6.2121,6.2121,6.2121,6.2211,6.254,6.26,6.269,6.3019,6.3079,6.3079,6.3079,6.3079,6.3079,6.3079,6.3079,6.2959,6.266,6.26,6.26,6.26,6.2331,6.2121,6.2121,6.2121,6.2121,6.2121,6.2421,6.26,6.26,6.2899,6.3079,6.3079,6.3079,6.3079,6.3079,6.3079,6.3079,6.3079,6.3079,6.3079,6.3079,6.3079,6.3079,6.1762,6.257,6.272,6.1253,5.9279,5.6526,5.2037,4.9045,0.0,4.2192,4.1482,4.1362,4.0726,4.3599,4.6591,4.8237,5.1349,5.485,5.859,5.9368,6.0416,6.281,6.3079,0.0,6.3079,6.3079,0.0,6.3079,6.3079,6.3079,6.3079,6.3079,6.3079,6.3079,6.3079,6.3079,6.3079,6.3079,6.3079,6.3079,6.3079,6.3079,6.3079,6.3079,6.3079,6.3079,6.3079,6.3079,6.3079,6.3079,6.3079,6.3079,6.3079,6.3079,6.3079,6.3079,6.3079,6.3079,6.3079,6.3079,6.3079,6.3079,6.3079,6.3079,6.3079,6.3079,6.3079,6.3079,6.3079,6.3079,6.3079,6.3079,6.3079,6.3079,6.3079,6.3079,6.3079,6.3079,6.3079,6.3079,6.3079,6.3079,6.3079,6.3079,6.3079,6.3079,6.3079,6.3079,6.3079,6.3079,6.3079,6.3079,6.3079,6.3079,6.3079,6.3079,6.3079,6.3079,6.3079,6.3079,6.3079,6.3079,6.3079,6.3079,6.3079,6.3079,6.3079,6.3079,6.3079,6.3079,6.3199,6.3258,6.1912,6.257,6.26,6.0655,5.8261,5.5299,5.1289,0.0,4.3329,4.1713,3.9978,3.929,4.0965,4.1654,4.3549,4.8431,5.0481,5.3264,5.8381,6.0146,6.1463,6.2899,0.0,0.0,6.3079,6.3079,6.3079,6.3079,6.3079,6.3079,6.3079,6.3079,6.3079,6.3079,6.3079,6.3079,6.3079,6.3079,6.3079,6.3079,6.3079,6.3079,6.3079,6.3079,6.3079,6.3079,6.3079,6.3079,0.0,6.3079,6.3079,6.3079,6.3079,6.3079,6.3079,6.3079,6.3079,6.3079,6.3079,6.3079,6.3079,6.3079,6.3079,6.3079,6.3079,6.3079,6.3079,6.3079,6.3079,6.3079,6.3079,6.3079,6.3079,6.3079,6.3079,6.3079,6.3079,6.3079,6.3079,6.3079,6.3079,6.3079,6.3079,6.3079,6.3079,6.3079,6.3079,6.3079,6.3079,6.3079,6.3079,6.3079,6.3079,6.3079,6.3079,6.3079,6.3079,6.3079,6.3079,6.3079,6.3079,6.3079,6.3079,6.3079,6.3079,6.3079,6.3079,6.3079,6.3079,6.3079,6.3647,6.3917,6.1583,6.257,6.26,6.0595,5.7812,5.4431,5.0092,4.6112,4.2692,4.0636,3.9559,3.9379,4.0576,4.1115,4.2462,4.5753,4.704,4.9224,5.3713,5.5508,5.7423,6.0326,6.1403,6.2211,0.0,0.0,6.3079,6.3079,6.3079,6.3079,6.3079,6.3079,6.3079,6.3079,6.3079,6.3079,6.3079,6.3079,6.3079,6.3079,6.3079,6.3079,6.3079,6.3079,6.3079,6.3079,6.3079,6.3079,0.0,6.3079,6.3079,6.3079,6.3079,6.3079,6.3079,6.3079,6.3079,6.3079,6.3079,6.3079,6.3079,6.3079,6.3079,6.3079,6.3079,6.3079,6.3079,6.3079,6.3079,6.3079,6.3079,6.3079,6.3079,6.3079,6.3079,6.3079,6.3079,6.3079,6.3079,6.3079,6.3079,6.3079,6.3079,6.3079,6.3079,6.3079,6.3079,6.3079,6.3079,6.3079,6.3079,6.3079,6.3079,6.3079,6.3079,6.3079,6.3079,6.3079,6.3079,6.3079,6.3079,6.3079,6.3079,6.3079,6.3079,6.3079,6.3079,6.3079,6.3258,6.3647,6.3887,6.4216,6.0356,6.1702,6.2002,5.9997,5.7184,5.3683,4.9045,4.5424,4.2342,3.9881,3.926,3.932,3.9978,4.0636,4.1743,4.3718,4.4915,4.707,5.1229,5.2785,5.482,5.8381,0.0,6.0745,6.2061,6.272,6.3079,6.3079,6.3079,6.3079,6.3079,6.3079,6.3079,6.3079,6.3079,6.3079,6.3079,6.3079,6.3079,6.3079,6.3079,6.3079,6.3079,6.3079,6.3079,6.3079,6.3079,6.3079,0.0,6.3079,6.3079,6.3079,6.3079,6.3079,6.3079,6.3079,6.3079,6.3079,6.3079,6.3079,6.3079,6.3079,6.3079,6.3079,6.3079,6.3079,6.3079,6.3079,6.3079,6.3079,6.3079,6.3079,6.3079,6.3079,6.3079,6.3079,6.3079,6.3079,6.3079,6.3079,6.3079,6.3079,6.3079,6.3079,6.3079,6.3079,6.3079,6.3079,6.3079,6.3079,6.3079,6.3079,6.3079,6.3079,6.3079,6.3079,6.3079,6.3079,6.3079,6.3079,6.3079,6.3079,6.3079,6.3079,6.3079,6.3079,6.3079,6.3258,6.3558,6.4006,6.4425,6.4964,5.7962,5.9608,6.0655,5.865,5.6166,5.2995,4.8356,4.4766,4.1841,3.9828,3.8871,3.8601,3.932,3.9978,4.1055,4.309,4.5035,4.7908,5.2516,5.3773,5.5179,0.0,5.8141,5.868,5.9997,6.1912,6.3079,6.3079,6.3079,6.3079,6.3079,6.3079,6.3079,6.3079,6.3079,6.3079,6.3079,6.3079,6.3079,6.3079,6.3079,6.3079,6.3079,6.3079,6.3079,6.3079,6.3079,6.3079,0.0,6.3079,6.3079,6.3079,6.3079,6.3079,6.3079,6.3079,6.3079,6.3079,6.3079,6.3079,6.3079,6.3079,6.3079,6.3079,6.3079,6.3079,6.3079,6.3079,6.3079,6.3079,6.3079,6.3079,6.3079,6.3079,6.3079,6.3079,6.3079,6.3079,6.3079,6.3079,6.3079,6.3079,6.3079,6.3079,6.3079,6.3079,6.3079,6.3079,6.3079,6.3079,6.3079,6.3079,6.3079,6.3079,6.3079,6.3079,6.3079,6.3079,6.3079,6.3079,6.3079,6.3079,6.3079,6.3079,6.3079,6.3079,6.3079,6.3677,6.3977,6.4036,6.5353,6.634,5.4192,5.5568,5.5897,5.3892,5.2097,4.9853,4.6112,4.3748,4.1841,3.9828,3.926,3.917,3.9379,3.9553,4.0965,4.4766,4.5514,4.707,5.1259,5.3593,0.0,5.6645,5.9578,6.1672,6.2091,6.272,6.3079,6.3079,6.3079,6.3079,6.3079,6.3079,6.3079,6.3079,6.3079,6.3079,6.3079,6.3079,6.3079,6.3079,6.3079,6.3079,6.3079,6.3079,6.3079,6.3079,6.3079,6.3079,6.3079,6.3079,6.3079,6.3079,6.3079,6.3079,6.3079,6.3079,6.3079,6.3079,6.3079,6.3079,6.3079,6.3079,6.3079,6.3079,6.3079,6.3079,6.3079,6.3079,6.3079,6.3079,6.3079,6.3079,6.3079,6.3079,6.3079,6.3079,6.3079,6.3079,6.3079,6.3079,6.3079,6.3079,6.3079,6.3079,6.3079,6.3079,6.3079,6.3079,6.3079,6.3079,6.3079,6.3079,6.3079,6.3079,6.3079,6.3079,6.3079,6.3079,6.3079,6.3079,6.3079,6.3079,6.3079,6.3079,6.3498,6.3707,6.3707,6.4366,6.4934,6.5383,6.6281,6.6789,5.0272,5.2187,5.2725,5.1182,4.9673,4.7788,4.4945,4.312,4.1542,3.9768,3.9373,3.9373,3.9373,3.9619,4.0905,4.4287,4.4885,4.6322,5.0255,5.2695,5.476,5.6675,5.9907,6.2061,6.2301,6.278,6.3079,6.3079,6.3079,6.3079,6.3079,6.3079,6.3079,6.3079,6.3079,6.3079,6.3079,6.3079,6.3079,6.3079,6.3079,6.3079,6.3079,6.3079,6.3079,6.3079,6.3079,6.3079,0.0,6.3079,6.3079,6.3079,6.3079,6.3079,6.3079,6.3079,6.3079,6.3079,6.3079,6.3079,6.3079,6.3079,6.3079,6.3079,6.3079,6.3079,6.3079,6.3079,6.3079,6.3079,6.3079,6.3079,6.3079,6.3079,6.3079,6.3079,6.3079,6.3079,6.3079,6.3079,6.3079,6.3079,6.3079,6.3079,6.3079,6.3079,6.3079,6.3079,6.3079,6.3079,6.3079,6.3079,6.3079,6.3169,6.3408,6.3199,6.3079,6.3079,6.3079,6.3079,6.3079,6.3288,6.3438,6.3438,6.4066,6.4395,6.4395,6.5054,6.5742,6.64,6.6789,6.6999,0.0,4.9015,5.0361,4.9717,4.8237,4.6381,4.4407,4.2551,0.0,3.9559,3.9254,3.9284,3.9469,3.9918,4.0786,4.25,4.3658,4.5783,4.9777,5.1678,5.4072,5.8022,5.9548,6.0565,6.1194,6.2361,6.3079,6.3079,6.3079,6.3079,6.3079,6.3079,6.3079,6.3079,6.3079,6.3079,6.3079,6.3079,6.3079,6.3079,6.3079,6.3079,6.3079,6.3079,6.3079,0.0,6.3079,6.3079,6.3079,6.3079,6.3079,6.3079,6.3079,6.3079,6.3079,6.3079,6.3079,6.3079,6.3079,6.3079,6.3079,6.3079,6.3079,6.3079,6.3079,6.3079,6.3079,6.3079,6.3079,6.3079,6.3079,6.3079,6.3079,6.3079,6.3079,6.3079,6.3079,6.3079,6.3079,6.3079,6.3079,6.3079,6.3079,6.3079,6.3079,6.3079,6.3079,6.3079,6.3079,6.3079,6.3079,6.3139,6.3139,6.3408,6.4006,6.3498,6.3169,6.3199,6.3228,6.3228,6.3228,6.3767,6.4066,6.4066,6.4755,6.5054,6.5173,6.5772,6.64,6.6999,6.6999,6.6999,4.0337,0.0,4.3658,4.3509,4.312,4.2372,0.0,4.0217,3.9499,3.8153,3.7883,3.8362,3.9888,3.9469,4.0457,4.5364,4.5544,4.6621,5.1109,5.461,5.8022,6.1493,6.2181,6.245,6.26,6.2899,6.3079,6.3079,6.3079,6.3079,6.3079,6.3079,6.3079,6.3079,6.3079,6.3079,6.3079,6.3079,6.3079,6.3079,6.3079,6.3079,6.3079,6.3079,6.3079,6.3079,6.3079,6.3079,6.3079,6.3079,6.3079,6.3079,6.3079,6.3079,6.3079,6.3079,6.3079,6.3079,6.3079,6.3079,6.3079,6.3079,6.3079,6.3079,6.3079,6.3079,6.3079,6.3079,6.3079,6.3079,6.3079,6.3079,6.3079,6.3079,6.3079,6.3079,6.3079,6.3079,6.3079,6.3079,6.3079,6.3079,6.3079,6.3079,6.3079,6.3079,6.3079,6.3079,6.3079,6.3079,6.3258,6.3737,6.3767,6.4066,6.4725,6.4156,6.4006,6.4545,6.4575,6.4575,6.4575,6.4695,6.4784,6.4784,6.5443,6.6011,6.652,6.67,6.6849,6.6999,6.6999,6.6999,3.7434,3.9655,4.1871,4.1871,4.1632,4.1205,4.0487,3.9379,3.8302,3.7554,3.7404,3.7943,3.9649,3.9589,4.0666,4.4796,4.5633,4.7698,5.3234,5.6915,6.0027,6.275,6.3079,6.3079,6.3079,6.3079,6.3079,6.3079,6.3079,6.3079,6.3079,6.3079,6.3079,6.3079,6.3079,6.3079,6.3079,6.3079,6.3079,6.3079,6.3079,6.3079,6.3079,6.3079,6.3079,6.3079,6.3079,6.3079,6.3079,6.3079,6.3079,6.3079,6.3079,6.3079,6.3079,6.3079,6.3079,6.3079,6.3079,6.3079,6.3079,6.3079,6.3079,6.3079,6.3079,6.3079,6.3079,6.3079,6.3079,6.3079,6.3079,6.3079,6.3079,6.3079,6.3079,6.3079,6.3079,6.3079,6.3079,6.3079,6.3079,6.3079,6.3079,6.3318,6.3498,6.3498,6.3767,6.3977,6.3977,6.3977,6.4096,6.4425,6.4485,6.4755,6.5413,6.5144,6.4964,6.5024,6.5024,6.5024,6.5024,6.5323,6.5622,6.5922,6.6281,6.664,6.6999,6.6999,6.6999,6.6999,6.6999,6.6999,3.6537,3.9535,4.2291,4.1901,4.1602,4.1332,4.0995,3.917,3.7524,3.7434,3.7404,3.7913,3.9559,4.0337,4.1474,4.3798,4.613,4.9733,5.5658,5.865,6.0954,6.2839,6.3079,6.3079,6.3021,6.3079,6.3079,6.3021,6.3079,6.3079,6.3079,6.3079,6.3079,6.3079,6.3079,6.3079,6.3079,6.3079,6.3079,6.3079,6.3079,6.3079,6.3079,6.3079,6.3079,6.3079,6.3079,0.0,6.3079,6.3079,6.3079,6.3079,6.3079,6.3079,6.3079,6.3079,6.3079,6.3079,6.3079,6.3079,6.3079,6.3079,6.3079,6.3079,6.3079,6.3079,6.3079,6.3079,6.3079,6.3079,6.3079,6.3079,6.3079,6.3079,6.3079,6.3079,6.3079,6.3079,6.3079,6.3079,6.3079,6.3109,6.3199,6.3647,6.4036,6.4126,6.4665,6.5024,6.5024,6.5024,6.5054,6.5173,6.5173,6.5443,6.6101,6.6161,6.5922,6.5353,6.5323,6.5323,6.5323,6.5862,6.643,6.6969,6.6999,6.6999,6.6999,6.6999,6.6999,6.6999,6.6999,6.7029,3.7614,4.0224,4.1841,3.9595,4.0224,4.0935,3.923,3.8542,3.8093,3.7524,3.7404,3.8332,4.1392,4.2021,4.3489,4.7712,5.1439,5.476,5.7453,5.9638,6.1493,6.2899,6.3079,6.3021,6.2731,6.2905,6.2963,6.2673,6.2963,6.3079,6.3079,6.3079,6.3079,6.3079,6.3079,6.3079,6.3079,6.3079,6.3079,6.3079,6.3079,6.3079,6.3079,6.3079,6.3079,6.3079,0.0,6.3079,6.3079,6.3079,6.3079,6.3079,6.3079,6.3079,6.3079,6.3079,6.3079,6.3079,6.3079,6.3079,6.3079,6.3079,6.3079,6.3079,6.3079,6.3079,6.3079,6.3079,6.3079,6.3079,6.3079,6.3079,6.3079,6.3079,6.3079,6.3079,6.3079,6.3079,6.3079,6.3079,6.3079,6.3228,6.3767,6.3947,6.4186,6.4784,6.4964,6.5024,6.5024,6.5024,6.5233,6.5802,6.5862,6.6131,6.6789,6.6849,6.6789,6.67,6.67,6.67,6.67,6.6789,6.6879,6.6999,6.6999,6.6999,6.6999,6.6999,6.6999,6.6999,6.6999,6.7298,3.6596,3.8751,4.0487,3.926,4.1235,4.315,4.1893,4.0756,3.9918,3.9619,3.9559,4.0337,4.294,4.4287,4.6651,5.1648,5.488,5.7334,5.8949,6.0595,6.2002,6.2959,6.3079,6.2963,6.2615,6.2905,6.2963,6.2615,6.2905,6.3079,6.3079,6.3079,6.3079,6.3079,6.3079,6.3079,6.3079,6.3079,6.3079,6.3079,6.3079,6.3079,6.3079,6.3079,6.3079,6.3079,0.0,6.3079,6.3079,6.3079,6.3079,6.3079,6.3079,6.3079,6.3079,6.3079,6.3079,6.3079,6.3079,6.3079,6.3079,6.3079,6.3079,6.3079,6.3079,6.3079,6.3079,6.3079,6.3079,6.3079,6.3079,6.3079,6.3079,6.3079,6.3079,6.3079,6.3079,6.3079,6.3169,6.3498,6.3588,6.3767,6.4455,6.4844,6.5203,6.5503,6.5862,6.6071,6.6071,6.6071,6.6191,6.652,6.655,6.667,6.6969,6.6999,6.6999,6.6999,6.6999,6.6999,6.6999,6.6999,6.6999,6.6999,6.6999,6.6999,6.6999,6.6999,6.6999,6.6999,6.7358,6.7687,3.6537,3.8123,3.9738,4.0038,4.2252,4.4377,4.4317,4.291,4.1782,4.2192,4.2282,4.2851,4.4676,4.7279,5.0631,5.5149,5.7663,5.9398,6.0416,6.1526,6.2453,6.3019,6.2963,6.2789,6.2615,6.2847,6.2847,6.2498,6.2847,6.3021,6.2905,6.3021,6.3079,6.2963,6.3079,6.3079,6.3079,6.3079,6.3079,6.3079,6.3079,6.3079,6.3079,6.3079,6.3079,6.3079,6.3079,6.3079,6.3079,6.3079,6.3079,6.3079,6.3079,6.3079,6.3079,6.3079,6.3079,6.3079,6.3079,6.3079,6.3079,6.3079,6.3079,6.3079,6.3079,6.3079,6.3079,6.3079,6.3079,6.3079,6.3079,6.3079,6.3079,6.3079,6.3079,6.3079,6.3079,6.3199,6.3438,6.3917,6.4126,6.4455,6.5144,6.5682,6.6071,6.6221,6.667,6.6999,6.6999,6.6999,6.6999,6.6999,6.6999,6.6999,6.6999,6.6999,6.6999,6.6999,6.6999,6.6999,6.6999,6.6999,6.6999,6.6999,6.6999,6.6999,6.6999,6.7148,6.7208,6.7238,6.7897,6.8286,3.9529,4.0187,4.0636,4.1871,4.1931,4.2132,4.3898,4.3269,4.286,4.4646,4.5005,4.5424,4.683,5.1229,5.5359,5.7573,6.0116,6.1852,6.1942,6.234,6.2672,6.3079,6.2526,6.2292,6.2556,6.2615,6.2498,6.2175,6.2701,6.2847,6.2234,6.2759,6.2963,6.2615,6.2963,6.3079,6.3079,6.3079,6.3079,6.3079,6.3079,6.3079,6.3079,6.3079,6.3079,6.3079,6.3079,6.3079,6.3079,6.3079,6.3079,6.3079,6.3079,6.3079,6.3079,6.3079,6.3079,6.3079,6.3079,6.3079,6.3079,6.3079,6.3079,6.3079,6.3079,6.3079,6.3079,6.3079,6.3079,6.3079,6.3079,6.3079,6.3079,6.3079,6.3079,6.3079,6.3079,6.3528,6.3947,6.3977,6.4515,6.5173,6.5832,6.5981,6.6221,6.6819,6.6969,6.6999,6.6999,6.6999,6.6999,6.6999,6.6999,6.6999,6.6999,6.6999,6.6999,6.6999,6.6999,6.6999,6.6999,6.6999,6.6999,6.6999,6.6999,6.6999,6.6999,6.7597,6.7897,6.7926,6.8615,6.9243,3.8332,3.914,4.0098,4.1452,4.2162,4.321,4.5633,4.6741,4.7698,4.9254,4.9583,5.0002,5.1349,5.3892,5.6585,5.8949,6.0894,6.2241,6.266,6.264,6.2731,6.3079,6.2526,6.2234,6.2556,6.2439,6.2292,6.2439,6.2468,6.2468,6.2439,6.2673,6.2673,6.2292,6.2615,6.2789,6.2789,6.2789,6.2905,6.3079,6.3079,6.3079,6.3079,6.3079,6.3079,6.3079,6.3079,6.3079,6.3079,6.3079,6.3079,6.3079,6.3079,6.3079,6.3079,6.3079,6.3079,6.3079,6.3079,6.3079,6.3079,6.3079,6.3079,6.3079,6.3079,6.3079,6.3079,6.3079,6.3079,6.3079,6.3079,6.3079,6.3079,6.3079,6.3079,6.3169,6.3558,6.3827,6.4246,6.5084,6.5473,6.5832,6.652,6.661,6.67,6.6939,6.6999,6.6999,6.6999,6.6999,6.6999,6.6999,6.6999,6.6999,6.6999,6.6999,6.6999,6.6999,6.6999,6.6999,6.6999,6.6999,6.6999,6.6999,6.6999,6.7178,6.7597,6.7837,6.8196,6.8615,6.9303,6.9752,3.8153,3.8686,3.9738,4.1055,4.2521,4.4396,4.7519,4.9105,5.0481,5.2426,5.2665,5.2935,5.4281,5.5418,5.6974,5.9368,6.1074,6.2331,6.2989,6.2789,6.2673,6.2905,6.2351,6.2057,6.2439,6.2116,6.2057,6.2292,6.2175,6.2116,6.2145,6.2322,6.2292,6.191,6.2292,6.2498,6.2615,6.2498,6.2615,6.2963,6.2847,6.2905,6.3079,6.3079,6.3079,6.3079,6.3079,6.3079,6.3079,6.3079,6.3079,6.3079,6.3079,6.3079,6.3079,6.3079,6.3079,6.3079,6.3079,6.3079,6.3079,6.3079,6.3079,6.3079,6.3079,6.3079,6.3079,6.3079,6.3079,6.3079,6.3079,6.3079,6.3079,6.3079,6.3228,6.3498,6.3917,6.4336,6.4904,6.5832,6.6191,6.646,6.6909,6.6999,6.6999,6.6999,6.6999,6.6999,6.6999,6.6999,6.6999,6.6999,6.6999,6.7089,6.7298,6.7119,6.7178,6.7597,6.7418,6.7208,6.6999,6.6999,6.7089,6.7298,6.7298,6.7627,6.8286,6.8495,6.8854,6.9333,6.9961,7.026,3.9768,3.9373,3.9738,4.1055,4.288,4.5394,4.9329,4.9763,5.0288,5.3563,5.3683,5.3623,5.497,5.5748,5.6825,5.88,6.0805,6.2331,6.2989,6.2789,6.2615,6.2615,6.1969,6.1732,6.2057,6.1791,6.1613,6.1613,6.191,6.1821,6.1253,6.1761,6.191,6.1613,6.191,6.2234,6.2615,6.2234,6.2234,6.2615,6.2234,6.2468,6.3079,6.3079,6.3079,6.3079,6.3079,6.3079,6.3079,6.3079,6.3079,6.3079,6.3079,6.3079,6.3079,6.3079,6.3079,6.3079,6.3079,6.3079,6.3079,6.3079,6.3079,6.3079,6.3079,6.3079,6.3079,6.3079,6.3079,6.3079,6.3079,6.3079,6.3079,6.3079,6.3558,6.4006,6.4006,6.5054,6.6011,6.6011,6.655,6.6999,6.6999,6.6999,6.6999,6.6999,6.6999,6.6999,6.6999,6.6999,6.6999,6.6999,6.6999,6.7268,6.7897,6.7388,6.7597,6.8914,6.8375,6.7687,6.7029,6.6999,6.7328,6.7956,6.7986,6.8315,6.9004,6.9662,6.9991,6.9991,7.062,7.0889,3.8482,3.902,4.0427,4.1782,4.4616,4.8027,5.1528,5.2546,5.3533,5.6376,5.6406,5.6047,5.6466,5.7094,5.8052,5.9548,6.1104,6.2274,6.27,6.2498,6.2234,6.2234,6.1702,6.1523,6.2057,6.1642,6.1464,6.191,6.1642,6.1464,6.1494,6.1673,6.1613,6.1344,6.1613,6.1791,6.191,6.1791,6.191,6.2234,6.2175,6.2351,6.2731,6.2731,6.2905,6.3079,6.3079,6.3079,6.3079,6.3079,6.3079,6.3079,6.3079,6.3079,6.3079,6.3079,6.3079,6.3079,6.3079,6.3079,6.3079,6.3079,6.3079,6.3079,6.3079,6.3079,6.3079,6.3079,6.3079,6.3079,6.3079,6.3079,6.3079,6.3079,6.3558,6.4126,6.4605,6.5413,6.6131,6.661,6.6849,6.6999,6.6999,6.6999,6.6999,6.6999,6.6999,6.6999,6.6999,6.6999,6.6999,6.6999,6.7418,6.7747,6.7956,6.8226,6.8585,6.8974,6.8794,6.8615,6.8405,6.8405,6.8495,6.8704,6.8704,6.9034,6.9692,6.9871,7.0201,7.0649,7.0829,7.0889,3.9828,4.0666,4.2073,4.4237,4.692,5.0062,5.3862,5.5269,5.6286,5.8141,5.7752,5.7184,5.7453,5.7633,5.8231,5.9817,6.0872,6.1603,6.1733,6.1969,6.1673,6.0445,6.0926,6.1224,6.0926,6.1104,6.1104,6.0926,6.1104,6.1044,6.0624,6.1135,6.1344,6.1193,6.1344,6.1494,6.1613,6.1494,6.1583,6.191,6.1821,6.188,6.2234,6.2498,6.2673,6.2701,6.2847,6.2905,6.2905,6.3021,6.3079,6.3079,6.2963,6.2905,6.2905,6.2789,6.2701,6.2701,6.2701,6.2701,6.2701,6.2701,6.2701,6.2701,6.2701,6.2789,6.2905,6.2905,6.3021,6.3079,6.3079,6.3079,6.3139,6.3378,6.3947,6.4605,6.5263,6.5922,6.652,6.6909,6.6999,6.6999,6.6999,6.6999,6.6999,6.6999,6.6999,6.6999,6.6999,6.7208,6.7388,6.7388,6.7986,6.8495,6.8734,6.8914,6.9213,6.9722,6.9542,6.9482,6.9752,6.9273,6.9123,6.9393,6.9393,6.9692,7.035,7.035,7.053,7.0889,7.0889,7.0889,4.2372,4.321,4.4157,4.7489,4.9553,5.1917,5.6226,5.7723,5.8381,5.8979,5.8141,5.7483,5.8112,5.7752,5.7909,5.9623,6.0291,6.0524,6.0103,6.1111,6.075,5.7732,5.9655,6.0595,5.9058,6.0104,6.0287,5.8996,6.0075,6.0287,5.8996,6.0104,6.0802,6.0802,6.0952,6.1104,6.1346,6.1164,6.1224,6.1554,6.1164,6.1224,6.1613,6.2234,6.2351,6.2116,6.2439,6.2556,6.2556,6.2905,6.3021,6.2963,6.2673,6.2556,6.2498,6.2234,6.2116,6.2116,6.2116,6.2116,6.2116,6.2116,6.2116,6.2116,6.2116,6.2292,6.2615,6.2615,6.2847,6.3079,6.3079,6.3109,6.326,6.3888,6.4516,6.5203,6.5862,6.652,6.6999,6.6999,6.6999,6.6999,6.6999,6.6999,6.6999,6.6999,6.6999,6.6999,6.6999,6.7567,6.7956,6.7956,6.8645,6.9333,6.9931,6.9482,6.9662,7.0829,7.038,7.032,7.0889,6.9782,6.9453,7.0051,7.0051,7.035,7.0889,7.0889,7.0889,7.0889,7.0889,7.0889,4.0127,4.2132,4.4766,4.7578,5.1618,5.5418,5.7453,5.8411,5.8949,5.9069,5.889,5.871,5.886,5.9189,5.9165,5.8371,5.9812,6.0058,5.7271,5.854,5.8912,5.6713,5.7377,5.787,5.7487,5.7742,5.7742,5.7487,5.7742,5.7742,5.7487,5.7742,5.787,5.787,5.8996,5.9555,5.9617,5.9555,6.0137,6.1284,6.0075,6.0137,6.1313,6.1613,6.191,6.2116,6.2175,6.2234,6.2234,6.2292,6.2292,6.2292,6.2234,6.2234,6.2175,6.2116,6.2116,6.2116,6.2116,6.2116,6.2116,6.2116,6.2116,6.2116,6.2116,6.2292,6.2615,6.2615,6.2847,6.3021,6.2789,6.3088,6.3506,6.3949,6.4576,6.5203,6.5862,6.652,6.6999,6.6999,6.6999,6.6999,6.6999,6.6999,6.6999,6.6999,6.6999,6.6999,6.6999,6.7567,6.7956,6.7956,6.9064,6.9812,6.9961,7.029,7.062,7.0889,7.0769,7.0769,7.0889,7.0649,7.056,7.0709,7.0709,7.0769,7.0889,7.0889,7.0889,7.0889,7.0889,7.0889,4.1085,4.3718,4.6681,5.0601,5.4132,5.6885,5.7902,5.862,5.9099,5.9099,5.9099,5.9099,5.9099,5.9289,5.9062,5.7916,5.8464,5.8086,5.5317,5.6328,5.6459,5.4167,5.5243,5.605,5.561,5.6219,5.6482,5.6064,5.665,5.6715,5.609,5.665,5.6973,5.6973,5.7679,5.8088,5.8088,5.8088,5.8467,5.9183,5.8467,5.8467,5.9245,6.0713,6.1583,6.185,6.185,6.185,6.185,6.2057,6.2175,6.2292,6.1969,6.1969,6.2057,6.1761,6.1642,6.1642,6.1642,6.1642,6.1642,6.1642,6.1642,6.1642,6.1642,6.188,6.2116,6.2116,6.2351,6.2585,6.241,6.2854,6.3445,6.3975,6.4662,6.5441,6.6097,6.6637,6.6999,6.6999,6.6999,6.6999,6.6999,6.6999,6.6999,6.6999,6.6999,6.7119,6.7418,6.8046,6.8585,6.8914,6.9842,7.041,7.041,7.0709,7.0889,7.0889,7.0889,7.0889,7.0889,7.0889,7.0889,7.0889,7.0889,7.0889,7.0889,7.0889,7.0889,7.0889,7.0889,7.0889,4.1893,4.5244,4.8716,5.3892,5.6077,5.7124,5.7782,5.8381,5.877,5.877,5.8757,5.8852,5.9045,5.8525,5.7842,5.7254,5.6702,5.5594,5.3398,5.4153,5.398,5.1453,5.3217,5.4389,5.3661,5.4664,5.507,5.4415,5.5405,5.5536,5.4374,5.5405,5.603,5.603,5.6305,5.6488,5.6488,5.6596,5.678,5.6973,5.6973,5.6973,5.7102,5.9431,6.0713,6.1166,6.1166,6.1286,6.1554,6.1821,6.2116,6.2322,6.1761,6.1554,6.1554,6.1284,6.1073,6.0863,6.1133,6.1073,6.0802,6.0802,6.0681,6.047,6.047,6.0834,6.1226,6.1226,6.1465,6.1821,6.2116,6.2526,6.3051,6.3847,6.4801,6.5638,6.6387,6.6753,6.6999,6.6999,6.6999,6.6999,6.6999,6.6999,6.6999,6.6999,6.7089,6.7358,6.7897,6.8675,6.9393,6.9931,7.053,7.0889,7.0889,7.0889,7.0889,7.0889,7.0889,7.0889,7.0889,7.0889,7.0889,7.0889,7.0889,7.0889,7.0889,7.0889,7.0889,7.0889,7.0889,7.0889,3.7823,4.315,4.9284,5.4012,5.5748,5.6466,5.7094,5.7304,5.7363,5.7363,5.7394,5.7804,5.8936,5.7047,5.5267,5.4911,5.4762,5.3652,5.0576,5.1854,5.2485,5.0716,5.1276,5.1804,5.1706,5.1813,5.193,5.1807,5.194,5.2006,5.1807,5.194,5.2073,5.2073,5.3647,5.4472,5.4472,5.4997,5.5828,5.6973,5.6973,5.6973,5.7038,5.7359,5.8277,5.9431,5.9431,6.0137,6.1253,6.1313,6.1373,6.1373,6.1313,6.0531,5.9617,6.0802,6.0409,5.9555,6.0802,6.0409,5.9369,5.9369,5.8529,5.7551,5.7551,5.8627,5.9896,5.9896,6.0051,6.0621,6.2105,6.2105,6.2085,6.3622,6.4764,6.5702,6.6352,6.6753,6.6999,6.6999,6.6999,6.6999,6.6999,6.6999,6.6999,6.6999,6.7478,6.7867,6.7956,6.9064,6.9871,6.9961,7.053,7.0889,7.0889,7.0889,7.0889,7.0889,7.0889,7.0889,7.0889,7.0889,7.0889,7.0889,7.0889,7.0889,7.0889,7.0889,7.0889,7.0889,7.0889,7.0889,4.0008,4.4167,4.8297,5.2905,5.4581,5.5329,5.6346,5.6855,5.7094,5.7094,5.6038,5.5758,5.7932,5.6582,5.4876,5.424,5.3368,5.2051,4.9886,5.041,5.0729,5.0006,5.0193,5.0469,5.077,5.0795,5.0946,5.1247,5.1272,5.1272,5.1272,5.1272,5.1272,5.1272,5.2378,5.2992,5.2992,5.3554,5.4081,5.4727,5.4727,5.4727,5.4727,5.4727,5.5894,5.7933,5.7933,5.8277,5.8843,5.8843,5.8968,5.9093,5.8905,5.9093,5.9341,5.8968,5.8905,5.9058,5.8933,5.8467,5.7933,5.7933,5.7487,5.6973,5.6973,5.7551,5.8123,5.8123,5.8222,5.8739,6.0693,6.1194,6.1501,6.2537,6.3551,6.4332,6.4653,6.5635,6.6444,6.6444,6.6568,6.6753,6.6753,6.6753,6.6934,6.7478,6.7653,6.8068,6.9004,6.9632,7.0111,7.047,7.0739,7.0889,7.0889,7.0889,7.0889,7.0889,7.0889,7.0889,7.0889,7.0889,7.0889,7.0889,7.0889,7.0889,7.0889,7.0889,7.0889,7.0889,7.0889,7.0889,4.1025,4.3617,4.5607,5.0495,5.2431,5.3526,0.0,5.5662,5.5961,5.6057,5.4428,5.3639,5.5707,5.4742,5.3591,5.325,5.1839,5.0509,4.9694,4.959,4.959,4.959,4.959,4.9766,5.0167,5.0218,5.0393,5.082,5.0845,5.0845,5.0845,5.0845,5.0845,5.0845,5.1398,5.1749,5.19,5.2578,5.2929,5.2929,5.2929,5.2929,5.2929,5.2929,5.4013,5.5959,5.6352,5.6715,5.6973,5.6973,5.7139,5.7332,5.7102,5.7615,5.8313,5.7359,5.7423,5.7961,5.7231,5.678,5.6455,5.6455,5.626,5.5959,5.5959,5.6221,5.6455,5.6455,5.6563,5.7131,5.9247,5.9922,6.0401,6.1274,6.204,6.2773,6.33,6.4781,6.6007,6.6132,6.6257,6.6382,6.6506,6.6624,6.7046,6.7772,6.8005,6.8601,6.9842,7.0111,7.038,7.0859,7.0889,7.0889,7.0889,7.0889,7.0889,7.0889,7.0889,7.0889,7.0889,7.0889,7.0889,7.0889,7.0889,7.0889,7.0889,7.0889,7.0889,7.0889,7.0889,7.0889,3.7404,3.9033,0.0,4.6228,4.887,5.0671,0.0,0.0,5.2723,5.3145,5.2491,5.1736,5.1623,5.0312,4.9741,5.1118,5.0017,4.9115,4.9515,4.959,4.959,4.959,4.959,4.9615,4.964,4.964,4.964,4.969,4.969,4.969,4.969,4.969,4.969,4.969,5.0218,5.077,5.1322,5.2402,5.2929,5.2929,5.2929,5.2929,5.2929,5.2929,5.2998,5.3179,5.4552,5.5828,5.6973,5.6973,5.7038,5.7038,5.7038,5.6287,5.5393,5.652,5.6221,5.5393,5.6585,5.6156,5.5061,5.5061,5.4216,5.311,5.311,5.4039,5.5061,5.5061,5.5427,5.6288,5.8346,5.8333,5.8286,6.0225,6.0729,6.1273,6.3337,6.4973,6.607,6.6382,6.6257,6.6132,6.6444,6.7011,6.7489,6.7549,6.8874,6.9901,6.9961,7.05,7.0859,7.0889,7.0889,7.0889,7.0889,7.0889,7.0889,7.0889,7.0889,7.0889,7.0889,7.0889,7.0889,7.0889,7.0889,7.0889,7.0889,7.0889,7.0889,7.0889,7.0889,7.0889,3.4584,0.0,0.0,4.244,4.4656,4.6627,4.9251,5.0361,5.1028,5.1621,5.1112,5.0293,4.9603,4.9499,4.9692,5.0296,4.9179,4.8284,4.8485,4.8837,4.9063,4.9063,4.9389,4.959,4.959,4.959,4.959,4.959,4.959,4.959,4.959,4.959,4.959,4.959,5.0117,5.087,5.18,5.2201,5.2578,5.2929,5.2929,5.2929,5.2929,5.2929,5.2929,5.2929,5.3452,5.3903,5.435,5.435,5.435,5.435,5.435,5.4619,5.4953,5.4552,5.4619,5.4927,5.4552,5.4013,5.3632,5.3632,5.3316,5.2929,5.2929,5.3247,5.3632,5.3632,5.4014,5.4962,5.7014,5.7525,5.7852,5.8894,5.9166,5.9375,6.0181,6.2214,6.398,6.411,6.4584,6.526,6.628,6.6966,6.7683,6.8289,6.8761,6.927,7.0141,7.0444,7.0658,7.0919,7.0889,7.0889,7.0889,7.0889,7.0889,7.0889,7.0889,7.0889,7.0889,7.0889,7.0889,7.0889,7.0889,7.0889,7.0889,7.0889,7.0889,7.0889,7.0889,7.0889,3.2869,0.0,0.0,0.0,4.076,4.2225,4.6465,4.7659,4.8275,4.9595,4.9337,4.8748,4.8184,4.8466,4.8792,4.8937,4.8186,4.7707,4.7883,4.8234,4.856,4.8736,4.9088,4.9389,4.9565,4.959,4.959,4.959,4.959,4.959,4.959,4.959,4.959,4.959,5.0117,5.087,5.1825,5.2026,5.2377,5.2929,5.2929,5.2929,5.2929,5.2929,5.2929,5.2929,5.2929,5.2929,5.2929,5.2929,5.2929,5.2929,5.2929,5.3452,5.4174,5.3247,5.3521,5.4174,5.3247,5.2929,5.2929,5.2929,5.2929,5.2929,5.2929,5.2929,5.2955,5.313,5.3582,5.439,5.5905,5.6752,5.7197,5.7584,5.8063,5.8276,5.7804,6.0,6.2298,6.3121,6.3753,6.4681,6.6446,6.7318,6.7969,6.8641,6.884,6.9266,7.014,7.0265,7.0331,7.0528,7.0563,7.0593,7.0694,7.0694,7.0759,7.0889,7.0889,7.0889,7.0889,7.0889,7.0889,7.0889,7.0889,7.0889,7.0889,7.0889,7.0889,7.0889,7.0889,7.0889,0.0,0.0,0.0,0.0,0.0,0.0,4.4434,0.0,4.4343,4.7029,4.7129,4.6811,4.7085,4.6968,4.6838,4.7065,4.7104,4.728,4.7782,4.7883,4.8083,4.8661,4.8761,4.8987,4.9515,4.959,4.959,4.959,4.959,4.959,4.959,4.959,4.959,4.959,5.0117,5.067,5.1272,5.1825,5.2377,5.2929,5.2929,5.2929,5.2929,5.2929,5.2929,5.2929,5.2929,5.2929,5.2929,5.2929,5.2929,5.2929,5.2929,5.2929,5.2929,5.2929,5.2929,5.2929,5.2929,5.2929,5.2929,5.2929,5.2929,5.2929,5.2929,5.2929,5.3055,5.3557,5.4135,5.4712,5.5265,5.5817,5.6219,5.6219,5.7328,5.7947,5.651,5.8444,6.122,6.3655,6.3958,6.448,6.6861,6.786,6.8268,6.8364,6.9193,6.9803,6.9869,6.9869,6.9869,6.9869,6.9869,7.0068,7.0397,7.0397,7.0528,7.0919,7.0889,7.0889,7.0889,7.0889,7.0889,7.0889,7.0889,7.0919,7.0919,7.0919,7.0919,7.0919,7.0949,7.0949,3.0463,0.0,0.0,0.0,0.0,0.0,0.0,0.0,3.982,4.3138,4.3939,4.4318,4.5212,4.5962,4.6458,4.6256,4.6396,4.6577,4.6728,4.7104,4.7405,4.7556,4.8284,4.8837,4.8987,4.9364,4.959,0.0,4.959,4.959,4.959,4.959,4.959,4.959,4.9741,5.0293,5.1272,5.1423,5.2,5.2929,5.2929,5.2929,5.2929,5.2929,5.2929,5.2929,5.2929,5.2929,5.2929,5.2929,5.2929,5.2929,5.2929,5.2929,5.2929,5.2929,5.2929,5.2929,5.2929,5.2929,5.2929,5.2929,5.2929,5.2929,5.2929,5.3181,5.3507,5.3658,5.4411,5.529,5.5842,5.6093,5.6219,5.6219,5.6485,5.6805,5.6795,5.7433,5.8523,6.027,6.1274,6.2346,6.4067,6.4943,6.5712,6.6883,6.7232,6.7896,6.927,6.947,6.9604,6.9869,6.9869,7.0068,7.0397,7.0397,7.0528,7.0919,7.0889,7.0889,7.0889,7.0889,7.0889,7.0889,7.0889,7.1128,7.1607,7.1128,7.1158,7.1637,7.2116,7.2355,0.0,0.0,0.0,0.0,0.0,0.0,3.6049,3.6849,3.7775,0.0,4.2916,4.3462,4.4377,4.5047,4.5431,4.5233,4.5624,4.605,4.6276,4.6602,4.6878,4.7043,4.7707,4.8259,4.8736,4.9063,4.9339,4.9565,4.959,4.959,4.959,4.959,4.959,4.959,4.959,5.0017,5.0921,5.1147,5.1724,5.2578,5.2829,5.2929,5.2929,5.2929,5.2929,5.2929,5.2929,5.2929,5.2929,5.2929,5.2929,5.2929,5.2929,5.2929,5.2929,5.2929,5.2929,5.2929,5.2929,5.2929,5.2929,5.2929,5.2929,5.2929,5.2929,5.3281,5.3758,5.3984,5.4863,5.5817,5.6118,5.6219,5.6219,5.6219,5.6394,5.6646,5.6972,5.7399,5.8149,5.9622,6.0535,6.1548,6.3317,6.393,6.4752,6.6272,6.6483,6.7138,6.8866,6.9068,6.9136,6.9404,6.9404,6.9604,6.9936,6.9936,7.0134,7.0462,7.0629,7.0843,7.1141,7.1242,7.1308,7.1308,7.1607,7.1936,7.2325,7.1637,7.1667,7.2325,7.3013,7.3163,3.3345,3.2513,0.0,0.0,3.1617,0.0,3.6488,3.675,3.6933,0.0,4.2216,4.2656,4.3433,4.3691,4.3787,4.3767,4.4623,4.5522,4.6125,4.6276,4.6502,4.6918,4.7043,4.7506,4.8485,4.8636,4.8912,4.9464,4.9565,4.959,4.959,4.959,4.959,4.959,4.959,4.9866,5.0419,5.0921,5.1498,5.2126,5.2603,5.2879,5.2929,5.2929,5.2929,5.2929,5.2929,5.2929,5.2929,5.2929,5.2929,5.2929,5.2929,5.2929,5.2929,5.2929,5.2929,5.2929,5.2929,5.2929,5.2929,5.2929,5.2929,5.2929,5.3005,5.3381,5.3934,5.4561,5.544,5.6219,5.6219,5.6219,5.6219,5.6294,5.6671,5.7072,5.7198,5.8001,5.9085,6.0564,6.0862,6.1463,6.3338,6.3638,6.422,6.5751,6.599,6.6553,6.809,6.846,6.8528,6.8528,6.8692,6.8963,6.927,6.927,6.95,6.9987,7.0289,7.0717,7.1496,7.1828,7.1996,7.1996,7.2684,7.3013,7.3013,7.2415,7.2415,7.3043,7.3702,7.3702,3.4528,3.4306,3.3742,3.2631,0.0,0.0,3.2515,3.2934,3.3875,0.0,3.6131,3.6765,3.8773,4.023,4.0977,4.0594,4.2562,4.4493,4.5497,4.6024,4.6351,4.6451,4.6853,4.723,4.7431,4.7832,4.8309,4.8887,4.9339,4.959,4.959,4.959,4.959,4.959,4.959,4.9866,5.0419,5.0519,5.1096,5.2101,5.2226,5.2503,5.2929,5.2929,5.2929,5.2929,5.2929,5.2929,5.2929,5.2929,5.2929,5.2929,5.2929,5.2929,5.2929,5.2929,5.2929,5.2929,5.2929,5.2929,5.2929,5.2929,5.2929,5.3005,5.3432,5.3959,5.4612,5.5616,5.6043,5.6219,5.6219,5.6219,5.6319,5.6771,5.6947,5.7273,5.8202,5.8579,5.8906,5.9616,5.9768,5.9947,6.0355,6.0457,6.0964,6.2487,6.2709,6.3272,6.4895,6.6202,6.693,6.693,6.8022,6.8963,6.927,6.927,6.9705,7.0539,7.0703,7.1132,7.212,7.2216,7.2351,7.2714,7.3373,7.3702,7.3702,7.3582,7.3582,7.3732,7.436,7.4599,3.5241,3.4858,3.4444,3.4035,0.0,0.0,0.0,3.3091,3.3273,3.5286,3.5234,3.5348,3.6962,3.7671,3.8284,3.8836,4.0613,4.2242,4.3263,4.4593,4.5472,4.5472,4.5974,4.6426,4.6702,4.7205,4.7857,4.8711,4.9038,4.9314,4.959,4.959,4.959,4.959,4.959,4.9715,5.0017,5.0268,5.0845,5.1699,5.1975,5.2402,5.2929,5.2929,5.2929,5.2929,5.2929,5.2929,5.2929,5.2929,5.2929,5.2929,5.2929,5.2929,5.2929,5.2929,5.2929,5.2929,5.2929,5.2929,5.2929,5.2929,5.2929,5.303,5.3557,5.431,5.5139,5.5968,5.6219,5.6219,5.6219,5.642,5.6696,5.6972,5.7474,5.8027,5.8604,5.893,5.9182,5.9433,5.9483,5.9483,5.9483,5.9483,5.9997,6.1542,6.1842,6.2635,6.5039,6.6061,6.679,6.7581,6.8324,6.9012,6.9535,6.9564,6.9894,7.0673,7.0936,7.1502,7.2531,7.2697,7.3117,7.3881,7.3881,7.4061,7.439,7.439,7.439,7.439,7.4719,7.4869,0.0,0.0,0.0,0.0,0.0,3.3468,0.0,0.0,0.0,3.5443,3.5103,0.0,0.0,0.0,0.0,3.6955,0.0,0.0,0.0,4.2032,0.0,4.4091,4.4744,4.5372,4.5924,4.6301,4.7029,4.836,4.8259,4.851,4.9389,4.954,4.959,4.959,4.959,4.959,4.959,5.0142,5.072,5.1297,5.185,5.2402,5.2929,5.2929,5.2929,5.2929,5.2929,5.2929,5.2929,5.2929,5.2929,5.2929,5.2929,5.2929,5.2929,5.2929,5.2929,5.2929,5.2929,5.2929,5.2955,5.3055,5.3231,5.3482,5.3909,5.4737,5.5641,5.6093,5.6219,5.6244,5.6344,5.6696,5.7097,5.7298,5.8052,5.8755,5.8855,5.9207,5.9483,5.9483,5.9483,5.9483,5.9483,5.9483,5.9946,6.1165,6.1391,6.2264,6.4824,6.5396,6.6117,6.7476,6.8125,6.8825,6.946,6.9822,7.0083,7.0412,7.1057,7.1696,7.2519,7.3211,7.4027,7.4869,7.436,7.436,7.4869,7.4869,7.4869,7.4869,7.4869,7.4869,0.0,0.0,0.0,0.0,3.6671,0.0,0.0,0.0,3.3143,3.1914,0.0,0.0,0.0,0.0,0.0,0.0,0.0,0.0,3.6615,3.7786,3.9672,4.2187,4.3363,4.4217,4.4769,4.4443,4.5045,4.7154,4.6401,4.6753,4.8761,4.9339,4.959,4.959,4.959,4.959,4.959,5.0142,5.072,5.1297,5.185,5.2402,5.2929,5.2929,5.2929,5.2929,5.2929,5.2929,5.2929,5.2929,5.2929,5.2929,5.2929,5.2929,5.2929,5.2929,5.2929,5.2929,5.2929,5.2929,5.3005,5.3457,5.4285,5.5114,5.5189,5.5616,5.6118,5.6194,5.6219,5.6319,5.6821,5.6972,5.7273,5.8303,5.8629,5.8855,5.9307,5.9458,5.9483,5.9483,5.9483,5.9483,5.9483,5.9483,5.956,5.9714,5.9792,5.9869,6.0227,6.1467,6.2624,6.3302,6.5909,6.7792,6.844,6.9802,7.0272,6.9386,7.0792,7.1606,7.1482,7.3584,7.4809,7.4869,7.4809,7.4809,7.4869,7.4869,7.4869,7.4869,7.4869,7.4869,0.0,0.0,0.0,0.0,0.0,0.0,3.33,0.0,3.1967,0.0,0.0,0.0,0.0,0.0,0.0,0.0,3.3785,0.0,0.0,0.0,3.7136,0.0,0.0,0.0,4.3011,4.2986,4.3765,4.6024,4.5146,4.5623,4.8134,4.8812,4.9264,4.959,4.959,4.959,4.959,5.0142,5.072,5.1297,5.185,5.2402,5.2929,5.2929,5.2929,5.2929,5.2929,5.2929,5.2929,5.2929,5.2929,5.2929,5.2929,5.2929,5.2929,5.2929,5.2929,5.2929,5.2929,5.313,5.3457,5.4034,5.4737,5.539,5.539,5.5767,5.6219,5.6219,5.6445,5.6746,5.6972,5.7524,5.8127,5.8604,5.8956,5.9232,5.9458,5.9483,5.9483,5.9483,5.9483,5.9483,5.9483,5.9483,5.9483,5.9483,5.9483,5.9995,6.1198,6.191,6.285,6.4337,6.5706,6.7155,6.867,6.9477,7.0164,7.1108,7.2053,7.2624,7.2757,7.3731,7.4456,7.4869,7.4663,7.4663,7.4869,7.4869,7.4869,7.4869,7.4869,7.4869,3.9913,0.0,0.0,0.0,0.0,0.0,0.0,0.0,0.0,0.0,0.0,0.0,0.0,0.0,0.0,0.0,0.0,3.3089,0.0,3.3449,0.0,0.0,0.0,0.0,0.0,4.1207,4.1961,4.4593,4.3489,4.4091,4.7305,4.8159,4.8786,4.9339,4.9515,4.959,4.959,5.0293,5.087,5.1297,5.2,5.2528,5.2929,5.2929,5.2929,5.2929,5.2929,5.2929,5.2929,5.2929,5.2929,5.2929,5.2929,5.2929,5.2929,5.2929,5.2929,5.2955,5.308,5.3582,5.4235,5.4662,5.5164,5.5616,5.5616,5.5892,5.6219,5.6219,5.662,5.7072,5.7223,5.8001,5.8755,5.8905,5.9232,5.9483,5.9483,5.9483,5.9483,5.9483,5.9483,5.9483,5.9483,5.9483,5.9483,5.9483,5.9633,6.0325,6.1839,6.2199,6.2945,6.4542,6.5128,6.6351,6.8596,6.9196,7.0372,7.243,7.253,7.2886,7.3621,7.3761,7.404,7.4594,7.4387,7.4456,7.4731,7.4869,7.4869,7.4869,7.4869,7.4869,0.0,0.0,0.0,3.7429,0.0,0.0,0.0,0.0,3.4136,0.0,0.0,0.0,0.0,0.0,0.0,0.0,0.0,0.0,0.0,0.0,0.0,0.0,0.0,0.0,0.0,3.8617,3.8919,0.0,4.1053,4.1731,4.6125,4.7355,4.8209,4.8786,4.9314,4.959,4.959,5.0695,5.1272,5.1297,5.2377,5.2904,5.2929,5.2929,5.2929,5.2929,5.2929,5.2929,5.2929,5.2929,5.2929,5.2929,5.2929,5.2929,5.2929,5.2929,5.2929,5.3005,5.3507,5.4411,5.534,5.5365,5.5742,5.6194,5.6194,5.6194,5.6219,5.6219,5.662,5.7173,5.7725,5.8303,5.8855,5.9357,5.9483,5.9483,5.9483,5.9483,5.9483,5.9483,5.9483,5.9483,5.9483,5.9483,5.9483,5.9483,5.996,6.0286,6.039,6.0893,6.1446,6.2079,6.3567,6.5392,6.7544,6.9243,7.0854,7.2459,7.1408,7.148,7.3128,7.3551,7.3831,7.3831,7.411,7.4318,7.4318,7.4731,7.4869,7.4869,7.4869,7.4869,0.0,0.0,4.5114,4.0671,0.0,0.0,0.0,0.0,0.0,0.0,0.0,0.0,0.0,0.0,0.0,0.0,0.0,0.0,0.0,0.0,0.0,0.0,0.0,0.0,0.0,0.0,0.0,4.0626,4.0124,0.0,4.5547,4.6803,4.7807,4.8736,4.9314,4.9766,5.0142,5.0896,5.1473,5.1825,5.2578,5.2929,5.2929,5.2929,5.2929,5.2929,5.2929,5.2929,5.2929,5.2929,5.2929,5.2929,5.2929,5.2929,5.2929,5.2929,5.313,5.3557,5.4486,5.5064,5.544,5.5817,5.6068,5.6219,5.6219,5.6219,5.6294,5.6646,5.7173,5.7725,5.8303,5.883,5.9282,5.9458,5.9483,5.9483,5.9483,5.9483,5.9483,5.9483,5.9483,5.9608,5.9985,6.0035,6.0035,6.0035,6.0186,6.0588,6.1341,6.1592,6.1943,6.2496,6.3007,6.4157,6.5948,6.7652,6.8792,6.9318,6.899,6.9065,6.9913,6.9811,7.0033,7.0577,7.0402,7.1133,7.2699,7.284,7.3603,7.4869,7.4869,7.4869,4.5924,4.6761,0.0,4.3127,4.1925,0.0,3.6358,0.0,3.7429,0.0,0.0,0.0,0.0,0.0,0.0,0.0,0.0,0.0,0.0,2.9441,0.0,0.0,0.0,0.0,0.0,0.0,3.6383,3.9471,3.8969,0.0,0.0,4.6024,4.7255,4.8159,4.9113,4.9866,5.0419,5.0996,5.1548,5.2126,5.2653,5.2929,5.2929,5.2929,5.2929,5.2929,5.2929,5.2929,5.2929,5.2929,5.2929,5.2929,5.2929,5.303,5.3206,5.3206,5.3658,5.4411,5.5139,5.5516,5.5742,5.6093,5.6219,5.6219,5.6219,5.6219,5.6319,5.6872,5.7449,5.8027,5.8579,5.9106,5.9483,5.9483,5.9483,5.9483,5.9483,5.9483,5.9483,5.9483,5.9659,5.991,6.0261,6.0487,6.0638,6.0638,6.0788,6.119,6.1918,6.2169,6.2446,6.2797,6.2822,6.3448,6.5134,6.6805,6.7702,6.7702,6.7702,6.7855,6.8083,6.7855,6.8235,6.9318,6.9365,7.0402,7.2557,7.284,7.3672,7.4869,7.4869,7.4869]}]]